ECMWFNIL_850_spd_000.txt.gz
Wind_Speed
19 17 16 16 15 12 11 10 9 9 7 7 6 6 7 6 5 4 3 3 3 2 2 1 1 2 3 4 4 5 5 5 6 7 8 8 9 9 8 8 7 6
20 19 18 17 16 15 14 13 11 10 9 8 7 7 8 8 6 5 5 5 4 4 3 3 2 1 2 2 3 3 4 5 6 8 9 10 10 10 9 9 8 7
20 20 19 19 18 17 16 16 14 12 11 11 10 9 10 9 7 7 7 7 6 6 6 5 4 3 2 2 3 3 4 5 6 8 9 10 10 11 11 11 10 9
20 18 18 19 20 19 17 17 15 14 14 13 13 12 11 10 9 9 8 9 9 8 7 7 5 4 4 3 3 4 4 5 6 7 8 9 9 10 11 12 11 11
22 20 19 20 20 21 20 19 18 17 16 15 14 14 14 13 11 10 10 10 10 10 10 8 7 5 4 4 4 5 5 6 6 7 8 8 9 10 11 12 12 13
25 22 21 21 20 21 21 20 20 19 18 16 16 16 16 15 14 12 12 11 12 12 11 11 9 7 5 4 4 5 6 7 7 8 9 9 10 11 12 12 13 15
27 25 25 23 22 22 22 21 21 21 20 18 17 18 18 18 17 15 14 13 13 13 13 13 11 9 7 6 5 5 6 7 7 8 8 9 10 11 12 13 14 14
29 28 30 28 25 24 24 23 23 23 22 21 20 19 20 20 19 18 17 16 15 15 15 15 14 12 10 9 8 7 7 7 7 7 8 9 10 11 12 13 14 13
27 27 30 31 31 30 29 27 26 25 25 25 23 21 21 22 22 21 19 18 18 17 17 16 15 14 12 11 11 9 9 9 9 8 9 10 11 11 12 13 14 14
22 22 23 26 29 31 31 31 31 29 28 27 26 25 24 24 25 24 22 21 21 20 19 18 17 16 14 14 13 11 11 11 11 11 11 12 12 13 13 14 14 14
19 21 23 24 26 28 30 33 34 34 32 29 27 29 29 28 28 28 26 25 25 24 22 20 18 18 17 16 15 13 13 14 14 14 14 13 14 14 15 15 14 14
14 19 21 22 25 28 32 34 36 37 38 34 30 30 32 33 33 32 30 29 28 26 24 22 20 19 19 18 17 15 15 15 16 16 16 15 15 15 15 15 14 13
7 11 13 15 18 21 25 27 30 33 35 35 33 33 34 36 36 36 34 32 30 28 26 24 22 22 21 20 18 17 17 18 18 18 18 18 17 17 16 15 14 14
6 8 9 10 11 13 16 17 20 23 24 26 29 31 34 35 36 37 36 34 33 31 29 27 25 24 23 21 19 19 19 19 19 19 19 19 18 18 17 16 16 15
7 9 10 12 12 12 12 12 14 17 18 20 24 27 31 32 32 36 39 37 35 34 32 30 28 26 24 21 20 20 20 20 19 19 19 19 18 17 17 16 16 15
9 11 12 14 16 16 16 14 12 13 14 17 19 20 23 25 26 34 39 36 34 36 36 33 30 27 24 22 21 21 20 20 20 19 18 18 16 15 15 15 16 16
14 14 15 16 17 18 19 18 14 12 11 13 14 15 20 26 29 33 36 33 34 38 37 35 32 28 24 23 22 21 21 20 20 19 18 17 15 14 13 14 14 15
18 18 18 18 19 19 19 19 15 12 11 11 12 13 19 27 30 30 31 32 36 41 39 35 32 27 24 23 22 21 21 20 18 18 17 15 14 13 12 12 13 16
21 21 20 20 20 20 21 21 17 12 11 12 13 12 14 19 24 26 29 33 38 43 41 35 30 26 24 23 22 20 19 17 15 15 15 13 13 14 14 15 16 16
22 21 21 21 21 21 22 23 21 15 11 11 14 15 14 15 19 24 28 33 38 42 39 33 29 26 24 21 18 17 16 14 13 14 14 13 14 15 17 18 18 17
22 23 23 23 23 22 23 24 24 21 17 12 12 16 17 17 19 23 27 32 37 38 36 32 29 25 20 17 15 14 13 12 13 14 14 14 15 16 17 17 16 17
24 25 25 25 24 23 23 24 23 23 21 16 13 15 18 18 20 23 28 32 34 35 33 28 24 19 15 13 12 11 11 12 13 14 14 13 14 15 16 15 15 17
25 26 26 25 24 22 21 21 22 21 19 17 16 16 17 18 19 23 30 35 35 32 26 20 16 14 12 11 10 9 10 10 10 10 10 11 12 14 14 14 15 18
25 25 25 25 24 22 19 19 20 19 16 15 15 14 15 16 19 25 33 37 34 28 21 15 12 11 10 9 8 8 9 9 8 8 9 11 12 14 14 15 16 19
25 25 24 23 23 21 19 19 19 17 14 13 12 13 13 15 21 30 36 35 29 24 19 15 12 9 8 7 7 7 9 9 8 9 10 12 13 14 15 15 16 19
26 24 23 22 22 21 19 18 17 16 15 14 13 13 13 14 23 33 35 30 24 20 16 13 10 8 7 7 7 8 9 10 11 11 12 13 14 15 16 17 17 19

ECMWFNIL_850_spd_003.txt.gz
Wind_Speed
16 15 15 14 13 13 13 13 12 13 11 10 9 9 9 8 5 5 4 1 2 2 3 3 3 3 3 4 6 5 5 6 6 6 6 7 7 7 7 6 5 4
17 16 15 15 14 13 13 13 13 14 13 12 11 10 11 10 7 7 6 3 1 1 1 2 2 3 3 3 4 4 4 4 5 6 6 7 8 8 8 8 7 6
18 17 16 15 15 14 14 14 14 14 13 13 13 12 13 13 9 8 7 5 4 3 1 1 1 1 2 2 3 3 2 3 4 5 5 6 7 8 8 8 9 8
20 18 17 16 15 15 14 15 15 15 14 14 14 13 15 14 11 9 8 7 7 6 4 3 2 1 2 2 2 2 1 1 2 3 3 4 4 6 7 8 8 9
20 19 19 17 16 15 14 15 15 15 14 14 14 14 16 15 12 11 10 9 9 8 6 5 5 4 4 4 3 3 2 1 1 1 1 2 2 3 4 6 7 8
19 19 18 16 15 14 14 14 15 14 14 14 15 15 16 16 14 13 12 10 11 10 9 8 8 7 7 6 6 5 3 3 3 2 2 2 3 3 4 5 6 8
17 18 15 14 17 17 16 15 15 16 15 14 15 15 16 17 16 15 14 12 12 13 12 11 10 10 10 9 8 7 5 5 5 3 3 4 4 5 5 6 6 6
16 19 17 17 21 22 20 17 16 17 16 15 16 16 17 18 18 17 17 15 14 15 14 14 13 13 12 11 11 11 9 8 7 5 5 6 6 6 6 7 8 6
14 17 18 20 23 24 24 22 19 18 17 17 18 18 18 20 19 19 19 18 17 17 16 16 15 15 15 14 14 14 12 11 9 7 7 8 7 6 6 8 10 9
11 13 15 17 20 23 24 25 24 23 23 20 20 20 20 20 21 21 21 21 20 19 18 18 18 18 18 17 16 16 15 13 12 9 9 9 8 7 7 9 11 10
10 11 13 14 15 17 20 22 23 25 26 25 24 24 23 22 22 22 22 22 23 22 22 22 21 21 21 19 18 18 16 15 13 12 11 10 9 9 10 10 11 11
2 5 9 12 13 14 16 18 19 20 21 22 23 24 24 23 23 23 23 24 25 25 25 25 24 23 23 21 19 19 18 17 15 14 13 11 11 11 11 12 12 11
3 1 3 4 7 10 12 14 15 17 19 19 19 19 20 22 23 24 26 26 26 26 26 25 24 23 23 22 21 21 20 18 17 16 15 13 13 12 12 13 13 12
3 6 6 5 5 5 6 7 10 14 17 19 19 19 20 22 22 24 26 27 28 27 25 25 25 25 25 23 22 22 21 20 19 18 16 15 15 14 14 14 14 13
4 8 11 12 12 11 11 12 12 13 14 15 17 19 20 22 22 23 24 24 26 27 25 25 27 29 29 27 25 24 22 20 19 18 16 16 15 14 15 15 14 14
3 4 6 8 9 11 13 15 14 13 12 12 14 16 18 20 21 23 24 24 26 28 28 28 29 29 30 30 29 26 22 20 19 18 16 15 14 14 14 15 14 14
6 7 8 8 8 8 9 10 11 11 11 12 13 14 16 17 18 21 23 25 27 29 29 31 32 31 31 32 32 28 24 22 21 18 16 15 14 14 13 14 14 14
6 8 9 9 9 8 8 9 10 10 11 12 12 13 14 14 15 19 20 22 26 28 30 33 33 32 32 33 33 31 28 25 20 17 16 15 14 14 12 11 11 11
5 6 6 7 8 8 8 10 11 11 11 12 12 14 15 14 14 15 16 21 24 26 30 34 33 31 32 34 34 32 30 25 18 15 15 14 13 13 12 11 11 12
5 5 6 8 9 10 10 11 11 12 12 12 11 13 15 14 12 11 13 18 20 23 28 33 35 34 34 34 33 31 28 22 16 13 14 13 12 14 14 14 14 14
6 7 9 11 12 12 12 11 12 13 13 12 11 12 12 12 12 12 12 14 18 24 29 32 34 35 35 34 33 31 25 20 16 17 17 15 13 15 15 15 14 14
7 9 10 12 12 12 12 12 12 13 13 12 12 12 13 13 14 14 13 13 20 27 31 32 32 34 34 33 32 28 23 18 16 16 15 13 12 13 14 13 13 12
9 10 11 12 12 12 12 12 11 12 12 12 12 12 13 13 14 15 15 15 20 26 29 30 31 32 33 31 28 25 21 17 13 10 9 10 10 12 12 12 12 13
10 10 11 12 12 12 12 12 11 12 12 12 12 13 13 13 14 16 16 16 19 22 24 26 28 32 31 27 24 22 19 17 12 7 6 9 10 11 11 11 12 14
10 11 12 12 11 12 12 12 11 12 12 13 13 13 12 12 14 15 15 15 17 17 19 22 26 29 27 23 21 19 18 17 13 9 8 10 11 11 11 10 11 13
12 12 12 12 12 12 13 13 12 12 13 13 13 13 12 12 14 15 15 14 14 16 20 22 24 25 23 20 19 18 16 13 10 9 9 9 9 9 9 10 10 11

ECMWFNIL_850_spd_006.txt.gz
Wind_Speed
23 20 18 18 15 13 13 12 11 11 10 8 6 4 3 2 4 5 7 7 6 7 7 7 6 6 6 7 6 6 6 6 6 5 5 4 4 4 3 4 3 2
22 19 17 17 16 13 12 12 12 11 10 9 8 7 6 2 2 3 4 6 5 6 6 6 6 5 5 6 6 6 6 5 5 5 5 5 5 5 6 6 5 5
21 19 17 16 16 14 12 13 13 11 10 11 9 9 9 6 4 3 2 3 4 5 5 5 5 5 4 4 4 5 6 5 6 6 6 6 6 7 7 7 7 7
21 20 17 15 15 14 13 13 13 12 11 12 11 10 11 10 8 6 4 2 2 3 4 4 4 4 3 3 3 3 4 4 5 5 5 6 6 6 7 7 7 7
21 20 18 16 14 15 14 14 14 13 11 12 12 12 13 13 11 8 6 5 4 3 2 3 3 3 3 3 3 3 3 3 3 3 4 5 5 4 5 5 5 5
20 19 18 17 16 16 15 15 16 15 13 12 13 14 15 15 14 11 9 7 7 6 5 4 4 4 4 5 5 4 4 4 3 2 2 2 3 3 2 2 2 3
18 17 17 18 19 18 17 17 17 17 16 15 14 14 15 16 15 13 12 11 10 9 8 7 7 7 7 7 8 7 6 6 4 3 3 4 3 2 1 1 1 2
16 17 17 17 19 20 20 20 19 18 19 18 17 16 15 16 16 14 13 13 13 13 13 11 10 10 10 10 10 10 9 8 7 6 5 6 6 5 4 3 1 1
13 16 17 16 18 19 19 20 21 20 20 20 20 19 17 16 17 16 14 15 15 15 16 16 14 13 12 12 12 12 12 11 11 9 8 8 9 7 6 6 5 3
13 13 14 16 19 19 17 17 19 20 20 20 20 19 18 16 17 18 17 16 17 18 18 18 17 16 16 15 15 14 15 15 13 12 11 11 10 8 6 8 9 7
13 11 12 14 18 19 19 19 20 19 18 18 17 17 18 17 18 19 19 18 19 20 20 19 19 19 19 19 18 17 17 17 16 15 14 13 12 10 8 10 11 10
11 11 13 15 16 18 20 20 21 21 18 17 18 19 20 20 21 22 21 20 20 20 21 21 20 20 20 21 21 20 20 20 19 17 15 14 13 12 11 12 12 12
11 11 12 12 12 14 15 15 17 19 18 17 19 22 24 24 25 25 23 22 23 23 23 22 22 22 21 22 23 23 22 22 20 19 17 16 15 14 14 14 12 12
9 9 8 6 6 6 7 7 7 8 7 7 10 15 19 20 21 21 21 23 25 26 26 25 25 25 24 24 25 25 24 23 22 21 20 19 18 18 17 16 15 13
4 4 3 3 3 3 4 5 6 6 6 7 8 10 13 16 17 16 17 20 24 27 27 26 28 30 29 28 28 27 26 25 25 24 23 21 21 21 19 18 17 15
3 1 1 0 1 3 4 4 6 8 9 10 10 9 11 13 15 14 16 18 21 24 25 27 29 32 32 31 29 28 27 28 27 26 24 22 23 23 21 19 17 15
2 3 3 2 2 1 1 1 2 3 5 6 7 8 9 10 12 13 15 17 19 20 22 26 28 30 32 32 29 29 30 30 29 26 24 22 22 21 19 18 15 13
6 4 3 3 2 1 1 2 2 3 4 6 7 8 8 9 10 12 14 17 19 20 21 24 26 27 30 32 31 30 31 31 30 27 25 23 21 19 17 16 15 13
5 3 2 3 4 5 5 6 6 5 6 6 6 8 9 11 12 12 12 14 18 21 22 24 26 27 29 31 32 33 34 34 32 30 27 25 22 20 18 16 13 11
3 3 2 2 4 6 7 8 8 6 6 8 9 9 10 13 15 13 11 11 13 19 22 23 24 26 28 29 32 34 35 35 33 30 27 24 21 19 17 13 11 12
2 2 3 5 6 7 8 9 9 7 7 9 10 10 10 12 14 15 14 11 11 16 20 20 22 23 25 27 30 32 34 34 32 28 25 23 20 18 16 15 15 16
5 4 4 5 6 8 9 8 8 7 7 9 11 11 10 11 12 14 16 15 14 16 18 20 22 22 22 25 28 30 31 31 29 27 26 25 23 20 19 18 16 15
6 5 5 5 5 6 7 7 8 8 7 8 10 11 11 11 12 13 14 15 18 20 18 18 21 22 23 24 26 27 28 28 29 29 28 26 22 19 17 15 14 14
6 6 6 6 7 7 7 8 10 10 8 8 10 12 12 13 13 12 13 16 21 22 19 18 18 20 21 22 23 26 28 29 31 30 27 22 17 14 12 12 11 12
8 8 9 10 10 9 10 11 12 11 9 8 10 12 13 14 13 12 15 19 22 21 19 17 17 18 19 20 22 26 28 29 28 26 22 16 11 10 10 10 9 10
9 10 10 10 10 10 12 13 14 13 11 10 11 13 13 13 13 14 17 21 22 20 19 18 18 18 18 19 22 24 26 26 23 20 16 13 10 10 11 10 9 11

ECMWFNIL_850_spd_009.txt.gz
Wind_Speed
18 14 14 14 12 11 11 11 11 11 11 12 12 12 12 12 11 11 11 11 10 9 8 8 6 5 6 7 7 6 5 5 5 5 4 4 4 3 3 3 3 2
20 16 15 14 13 12 11 11 11 9 9 8 8 10 10 10 11 11 10 10 10 9 8 8 7 6 5 6 6 5 4 4 4 4 4 4 5 5 5 5 5 4
22 19 17 16 14 14 13 12 10 7 7 6 4 5 7 7 9 9 9 9 9 9 9 8 7 6 6 5 5 4 4 4 4 5 5 5 6 5 6 6 5 5
24 21 19 17 15 14 13 13 12 8 7 6 4 3 3 3 5 6 7 7 7 7 7 7 8 7 6 6 4 4 4 3 4 4 5 5 6 5 6 5 5 5
25 22 19 17 15 14 13 13 14 12 9 7 6 5 4 2 2 2 3 3 4 5 5 5 6 6 6 6 5 4 3 3 3 3 3 4 4 4 5 4 4 4
25 21 17 17 16 16 15 14 14 14 11 9 8 8 7 5 3 2 1 1 2 2 2 3 3 4 4 4 5 5 4 3 3 2 2 2 2 2 2 2 2 2
23 20 16 17 17 17 16 15 14 14 12 9 8 8 7 7 6 5 4 3 3 2 2 2 3 3 3 4 4 4 4 4 4 4 3 3 3 3 2 3 3 3
23 21 18 18 17 17 19 19 17 16 15 12 12 10 8 8 8 8 7 7 6 5 5 4 5 5 6 7 7 7 7 6 6 6 5 4 4 4 4 4 5 5
23 23 21 20 17 17 20 23 21 19 17 16 15 14 11 9 8 9 9 10 10 9 9 8 8 8 8 9 9 9 9 9 9 8 8 8 7 6 6 5 6 6
25 25 24 23 21 18 19 21 20 19 18 17 16 15 14 11 9 10 10 11 12 11 12 13 13 12 12 12 12 12 12 12 11 10 10 11 11 10 9 8 8 8
27 26 24 24 24 22 20 19 18 18 18 18 18 17 16 15 14 13 12 12 13 13 15 17 17 16 16 16 15 15 14 14 14 13 13 13 14 13 12 12 11 10
25 27 27 25 24 23 23 22 20 18 17 19 19 19 19 20 19 17 16 16 16 16 16 18 20 20 20 20 20 19 18 17 17 16 15 16 16 15 15 14 14 12
21 23 22 22 21 21 22 21 20 18 18 19 20 21 22 23 22 20 19 18 18 18 18 18 19 22 23 23 23 22 21 21 20 19 18 18 18 17 17 16 15 14
17 16 16 17 17 16 16 16 17 18 19 20 20 19 21 23 23 22 22 23 25 24 22 21 21 23 25 25 25 25 24 23 23 22 21 20 20 19 18 18 17 16
13 12 11 13 13 11 11 10 11 12 13 14 14 13 14 16 18 18 18 18 20 20 18 20 23 26 26 26 27 27 27 25 24 24 23 22 22 21 20 20 19 18
9 9 10 10 10 10 9 9 9 10 10 10 11 11 11 12 13 14 14 13 13 14 13 16 22 26 28 28 29 29 29 28 27 25 24 24 24 24 23 22 22 21
8 9 10 10 10 10 9 8 8 8 9 9 9 9 10 10 11 11 12 13 14 15 16 18 21 24 27 29 30 30 30 30 29 27 26 27 27 26 25 24 24 24
8 9 9 9 8 8 7 5 5 5 6 6 7 7 7 7 8 9 10 13 14 15 16 18 20 21 23 26 28 29 30 31 31 30 29 29 30 29 28 27 26 24
10 9 10 10 9 9 7 6 7 6 5 5 6 7 7 7 8 9 9 11 12 14 15 16 17 19 20 21 23 24 25 28 30 31 30 31 31 31 30 29 26 23
11 11 10 10 9 8 7 8 9 10 9 8 8 9 9 9 9 11 11 11 13 15 16 16 16 16 17 19 20 20 22 24 27 29 29 30 31 31 29 26 23 20
10 11 10 8 7 5 5 5 6 8 9 10 11 12 12 12 12 13 13 13 14 14 14 13 13 13 15 17 17 18 19 21 25 27 28 30 31 29 25 21 19 19
7 8 7 5 3 2 2 3 2 2 3 5 7 9 10 11 13 13 13 13 13 13 11 11 12 12 13 14 15 15 15 17 22 26 28 29 29 25 21 20 20 20
9 9 7 6 4 2 1 2 3 2 2 2 4 6 8 9 10 12 14 14 13 13 13 13 13 13 14 14 15 14 13 16 21 24 25 25 24 21 21 21 20 19
12 11 9 7 7 5 5 5 5 4 4 5 5 6 8 9 10 12 14 15 15 16 16 16 15 15 15 15 14 14 14 16 19 21 22 22 22 21 21 20 18 17
9 9 9 9 9 9 10 10 8 7 7 7 6 7 8 10 11 13 15 16 17 18 18 18 17 17 16 16 15 14 14 15 18 19 21 22 23 22 21 19 17 15
8 7 9 11 12 13 12 12 11 11 11 10 10 9 9 11 13 15 16 17 18 19 19 19 18 17 16 16 15 14 14 15 17 19 21 22 23 22 20 19 17 15

ECMWFNIL_850_spd_012.txt.gz
Wind_Speed
18 19 18 16 16 15 14 16 16 15 16 15 14 14 13 12 12 11 10 9 7 7 6 7 7 7 7 8 7 7 7 7 7 7 7 6 5 5 5 4 4 4
18 21 21 18 18 17 16 18 18 17 17 16 15 15 14 13 12 12 11 10 9 7 7 7 7 7 6 6 6 5 5 5 5 6 6 6 6 6 5 4 4 3
20 23 25 22 19 18 18 19 19 18 18 17 16 15 15 14 13 12 11 10 9 8 7 7 8 8 7 6 5 5 5 5 6 6 6 6 6 6 5 5 4 3
23 25 26 25 21 19 19 20 20 19 18 18 17 16 15 14 13 13 12 11 9 8 7 7 7 7 7 7 6 5 6 6 6 6 6 6 6 5 5 5 5 4
26 27 28 28 24 20 21 21 20 19 18 17 17 17 15 14 13 12 11 11 10 8 8 7 6 6 7 7 6 6 6 6 6 5 5 5 5 4 3 4 3 3
28 28 30 31 27 23 22 22 20 19 18 16 16 16 16 15 13 12 11 10 9 8 8 7 6 5 5 5 5 5 5 5 4 4 3 2 2 1 1 1 1 1
31 30 31 33 30 25 23 22 21 20 19 16 15 15 16 16 14 13 12 10 9 8 8 7 6 5 4 4 5 4 4 4 4 4 3 3 3 3 2 2 2 2
31 30 29 32 33 28 25 24 22 22 20 18 16 14 14 13 12 13 12 11 9 8 7 6 6 5 4 4 4 4 4 5 5 5 5 5 5 5 5 4 4 4
31 30 28 31 32 28 27 27 25 24 23 20 18 16 14 13 11 11 12 12 11 10 8 7 5 4 3 3 4 4 4 5 6 6 7 7 7 6 6 6 5 5
30 30 31 33 34 31 30 30 28 27 26 23 20 18 17 15 13 12 11 11 11 10 9 7 6 6 5 5 5 6 6 6 7 8 8 9 9 8 8 8 7 7
29 30 33 35 34 32 32 32 31 29 27 24 22 20 19 17 16 15 13 12 10 9 8 8 9 10 9 9 8 8 9 10 10 9 10 10 10 11 11 10 10 10
30 29 31 33 34 33 32 32 32 31 30 27 24 22 20 19 18 16 15 14 13 12 11 11 12 13 12 11 11 11 12 13 13 13 13 12 12 13 13 13 12 12
30 29 26 25 27 28 28 30 30 29 29 28 26 24 21 20 18 17 17 16 15 14 13 14 15 14 13 13 13 14 14 16 16 17 17 16 15 15 15 15 14 14
28 29 23 17 18 23 26 28 29 27 24 23 24 23 22 21 19 18 19 18 17 16 16 17 17 16 16 17 18 17 17 19 20 20 20 19 18 17 17 17 17 17
23 23 22 20 20 22 22 22 24 27 25 23 23 23 23 21 19 19 19 18 18 17 17 17 17 19 21 22 20 17 16 18 21 23 23 22 21 20 19 20 20 20
21 20 21 23 23 21 18 17 19 22 24 23 23 22 22 21 20 21 22 22 22 21 21 21 22 24 26 26 24 20 17 17 21 24 25 24 24 23 22 22 23 23
14 15 17 19 17 14 12 12 13 15 16 17 17 17 18 18 18 19 21 22 23 23 23 23 23 24 24 25 25 24 23 23 24 24 24 24 25 25 26 25 25 25
13 14 15 15 14 12 11 11 12 13 13 14 14 15 15 16 17 18 18 18 19 20 20 20 20 20 20 20 21 21 23 24 25 26 26 25 26 27 28 28 27 27
12 12 13 14 13 13 13 13 13 14 14 14 14 14 15 15 15 16 16 15 15 16 17 18 18 19 19 19 19 19 20 21 23 23 23 23 25 27 29 29 29 28
10 11 12 13 13 13 12 12 12 13 13 12 12 12 13 12 12 11 11 10 10 11 12 15 17 17 18 17 17 18 18 20 21 20 19 20 23 27 29 30 29 29
11 11 12 12 12 12 11 11 11 11 11 11 10 10 11 11 10 10 9 8 9 10 12 14 15 15 16 15 15 15 15 16 17 18 18 18 20 24 28 28 27 27
10 11 12 12 11 11 11 11 12 12 12 10 9 10 11 11 12 13 12 11 11 12 14 14 14 13 13 13 14 14 14 13 12 13 14 14 15 19 24 26 26 25
8 11 12 10 9 8 8 9 9 10 11 10 9 9 9 10 11 13 13 14 15 15 15 14 13 12 12 13 13 14 13 13 12 10 9 10 12 16 21 23 24 23
9 11 12 11 9 7 6 5 3 5 7 8 8 7 8 8 9 10 11 13 15 16 16 15 15 15 15 15 15 14 12 12 11 9 9 9 12 15 18 20 21 21
12 13 13 11 9 8 7 6 5 5 5 5 5 5 6 8 9 10 11 12 13 14 15 16 16 16 17 17 16 14 12 11 10 9 9 10 12 15 18 20 21 21
10 12 12 10 9 8 8 8 10 9 8 7 7 7 8 9 10 11 13 13 13 14 14 15 16 16 17 17 16 14 12 11 9 9 10 11 13 15 17 19 20 21

ECMWFNIL_850_spd_015.txt.gz
Wind_Speed
16 14 13 11 10 8 6 6 6 7 8 8 7 6 7 9 10 10 9 8 8 8 9 10 10 9 9 9 8 8 8 7 7 6 5 5 4 3 3 2 2 1
18 16 14 12 11 10 7 7 8 8 8 8 8 8 8 8 9 9 9 8 8 8 8 9 9 8 7 7 7 7 6 6 5 5 5 4 4 3 3 2 2 2
20 17 16 14 11 9 9 10 11 10 10 9 10 10 9 9 8 8 8 8 8 8 8 9 9 9 8 8 8 7 8 8 7 7 7 7 6 6 5 4 4 3
20 18 16 14 12 9 10 13 14 13 12 11 11 11 11 11 10 9 9 9 9 10 9 9 10 11 10 10 10 10 10 10 10 10 9 9 8 8 7 6 6 5
19 19 16 13 15 13 12 14 17 16 15 14 13 12 12 12 11 11 11 11 11 11 11 11 11 12 13 12 12 11 11 10 10 9 8 7 7 7 6 6 5 5
21 21 18 13 15 17 15 15 17 17 17 15 14 14 13 13 13 12 11 11 11 12 12 12 12 12 12 12 12 11 10 9 8 7 6 5 5 4 4 3 3 3
25 26 22 16 17 20 18 16 17 17 18 16 15 14 14 14 13 12 12 11 10 11 11 11 11 11 10 10 10 9 8 7 6 5 4 3 2 1 1 1 0 1
28 29 25 21 21 22 21 20 18 17 18 17 16 16 15 14 14 13 12 12 11 10 10 10 10 10 9 9 8 7 6 6 5 4 4 3 2 2 2 2 2 3
30 31 28 25 24 24 23 23 21 18 19 19 17 16 16 14 14 13 12 12 12 11 10 10 9 9 9 8 8 7 7 6 6 5 5 5 4 4 4 5 5 5
32 31 29 27 26 25 25 26 26 24 21 20 20 19 19 17 16 14 13 12 11 11 10 10 9 9 8 8 8 7 7 6 6 6 6 6 6 5 6 6 6 6
32 30 29 28 28 27 26 26 29 29 27 24 23 23 23 22 20 20 19 16 13 11 10 10 10 9 8 7 7 6 6 5 5 5 5 5 6 6 6 6 7 7
32 31 29 28 28 28 27 27 30 32 31 28 27 27 27 24 22 23 22 18 14 14 14 12 11 10 8 7 7 6 6 6 6 6 6 6 6 7 7 7 7 8
31 31 29 27 27 26 25 26 31 33 32 30 29 30 28 25 23 22 21 17 14 16 18 17 15 13 11 11 10 9 9 10 11 11 10 10 10 10 10 10 10 10
29 30 28 25 25 25 22 24 30 32 31 30 30 29 28 25 24 23 22 21 20 21 23 22 19 17 15 15 14 13 13 14 14 14 14 14 13 13 13 14 13 13
24 26 25 24 25 26 24 24 28 30 30 30 29 29 27 25 25 26 26 25 25 24 24 25 24 21 19 17 17 16 16 17 17 17 17 17 15 16 17 17 16 16
20 22 22 22 23 25 24 24 25 27 29 31 31 30 31 29 29 30 29 27 24 22 22 23 23 22 19 18 18 19 20 22 23 22 21 19 17 17 18 18 17 18
18 20 20 18 18 20 21 21 22 24 25 28 31 32 32 31 29 29 27 25 23 22 21 21 20 21 21 21 22 23 24 25 25 24 22 21 20 19 18 18 18 19
14 17 19 18 17 18 18 19 22 23 23 24 28 31 29 27 27 27 26 23 22 22 21 20 21 23 23 22 22 21 21 22 22 22 22 22 23 22 21 20 18 19
11 13 14 15 15 16 16 18 19 19 20 21 23 25 24 23 23 22 20 17 17 17 16 17 18 19 19 18 18 18 18 19 20 21 22 22 22 22 21 20 19 18
9 9 9 11 13 14 14 15 14 13 14 15 16 17 17 16 15 14 12 11 11 12 12 12 12 13 13 15 16 16 17 17 18 20 21 21 22 21 19 19 18 17
8 8 9 11 13 14 13 13 13 12 13 13 14 14 13 12 11 11 10 10 10 11 12 12 12 13 14 14 15 15 14 14 14 15 16 17 18 18 17 16 15 16
9 9 10 11 12 13 13 14 13 13 14 14 14 13 13 12 11 10 10 10 11 12 12 13 14 14 15 14 14 12 12 12 11 12 12 12 12 14 14 13 12 13
12 12 12 12 13 13 13 13 13 13 14 13 12 12 11 10 10 10 9 10 11 12 12 13 14 14 14 14 13 12 12 12 11 11 11 10 10 10 9 9 9 11
13 13 13 13 13 12 11 11 11 11 12 12 12 11 11 10 10 10 10 10 11 11 12 13 13 14 15 14 14 14 13 12 10 10 10 10 9 8 7 8 9 11
14 13 13 13 12 11 9 8 9 9 9 10 10 10 9 9 8 8 9 10 10 10 10 11 12 13 14 14 14 14 13 11 9 8 8 8 8 7 7 8 10 12
15 16 16 14 13 12 10 9 9 9 8 7 8 8 7 6 6 6 7 9 10 11 11 11 12 13 14 14 14 13 13 11 10 8 7 7 7 8 8 10 11 13

ECMWFNIL_850_spd_018.txt.gz
Wind_Speed
7 11 13 12 8 3 2 4 5 5 4 3 2 1 2 4 6 6 6 7 8 10 11 12 12 11 11 11 11 11 11 10 10 9 9 9 9 9 8 8 8 8
9 12 13 13 9 5 3 1 3 5 3 2 1 1 3 5 7 6 6 6 6 7 9 9 9 10 9 10 10 10 10 10 10 10 10 10 10 10 10 10 10 10
14 14 13 13 10 6 4 4 2 5 3 2 2 1 3 5 6 6 6 5 4 5 6 7 8 8 9 10 11 11 11 11 12 12 12 12 13 12 12 12 11 11
17 17 16 13 11 9 7 8 4 6 5 4 3 2 3 4 5 5 5 5 5 4 5 6 7 8 9 11 12 13 14 14 14 14 14 14 14 13 13 13 11 11
17 18 18 14 13 12 10 9 7 7 7 6 5 4 3 3 4 4 4 4 5 5 5 5 6 8 9 11 12 13 14 14 14 14 13 12 13 12 12 11 10 10
18 19 20 16 15 15 13 11 11 11 9 9 7 5 5 4 4 3 3 4 4 4 4 4 5 6 7 8 10 11 11 11 11 11 11 10 10 9 9 8 7 7
19 19 20 18 17 17 14 13 16 13 10 10 10 8 6 5 4 4 4 3 3 3 4 4 4 4 4 5 6 7 8 8 7 7 7 7 7 7 6 5 5 4
20 20 20 18 20 20 16 16 16 13 11 11 11 10 8 7 6 6 6 6 5 4 4 4 4 4 3 3 3 3 3 3 3 3 2 3 3 3 3 3 2 2
21 24 22 20 22 23 19 17 17 14 13 13 12 11 9 9 8 8 8 7 7 6 5 5 5 5 5 4 3 2 1 1 1 1 2 2 2 2 2 2 2 2
21 26 25 23 25 26 23 19 17 16 15 15 15 14 13 11 10 9 8 8 8 7 7 6 6 7 6 5 4 4 4 3 3 3 3 2 2 3 3 3 4 4
19 25 26 24 27 29 26 21 17 17 18 18 18 18 17 16 14 13 11 10 9 8 9 9 9 9 8 7 6 5 5 5 4 3 3 3 2 3 3 3 3 4
17 21 23 24 27 28 27 24 20 19 20 21 22 22 21 19 17 17 16 14 12 11 12 12 12 11 10 8 8 7 7 8 7 5 4 4 4 4 5 4 4 4
15 17 21 26 27 27 26 25 22 21 21 23 23 24 24 22 20 19 18 17 15 14 14 15 14 12 12 11 11 10 10 10 11 10 8 7 8 8 8 8 7 6
18 19 21 25 26 25 24 23 22 22 23 23 24 25 25 24 22 20 19 18 16 16 16 17 16 14 15 14 14 14 14 13 14 14 13 11 10 11 12 12 12 10
18 20 21 23 25 25 23 22 22 23 24 25 26 27 28 28 25 20 20 20 20 20 20 21 18 16 16 17 16 18 19 17 16 17 17 15 14 13 13 13 13 13
14 17 18 20 23 24 24 23 23 24 24 25 27 28 31 34 31 24 22 24 24 23 23 23 21 19 19 20 20 20 19 17 17 17 17 18 18 18 16 15 14 14
10 13 14 16 17 17 18 19 20 19 19 20 23 25 29 35 37 33 30 28 26 25 24 23 22 20 19 19 19 18 18 18 18 18 18 18 18 17 16 15 15 15
9 10 12 13 14 14 13 14 14 14 14 15 17 18 21 28 33 35 34 31 27 25 24 22 20 19 19 18 17 17 17 17 16 17 17 16 15 15 14 15 15 15
8 9 11 12 12 12 11 11 12 12 12 13 13 13 15 19 23 27 29 29 27 25 23 21 19 18 16 15 13 12 13 13 13 14 15 14 15 15 15 16 16 16
7 8 9 9 10 11 12 12 12 13 13 14 14 14 14 14 16 19 22 23 22 21 19 17 15 12 10 9 9 9 9 10 11 11 12 12 12 13 14 15 16 16
5 6 6 6 8 10 11 11 11 10 10 11 12 13 13 13 14 15 16 16 15 14 13 12 11 10 8 7 8 8 8 8 9 9 9 9 9 10 11 12 13 14
7 7 6 5 6 8 9 9 9 8 7 7 8 9 10 11 11 11 11 11 11 11 10 10 9 9 8 8 8 8 8 8 8 8 8 8 8 8 8 9 9 10
10 9 8 7 6 7 8 8 8 7 7 7 8 9 10 10 10 10 10 11 10 10 11 10 9 9 9 8 8 8 8 8 8 7 8 7 8 8 8 8 7 7
10 10 9 8 7 7 8 8 7 7 7 7 8 8 9 10 10 10 10 10 10 9 9 9 8 7 7 7 7 7 8 8 8 7 7 7 7 8 8 8 7 6
10 11 10 9 9 8 8 7 7 7 8 8 9 9 10 10 10 10 9 7 6 6 5 5 5 5 6 6 6 7 7 8 8 7 7 6 7 7 7 7 7 6
10 11 11 11 10 10 9 7 7 7 7 7 8 9 9 9 8 8 7 5 4 3 3 4 6 7 7 7 7 8 9 9 9 9 8 7 7 7 7 7 7 7

ECMWFNIL_850_spd_021.txt.gz
Wind_Speed
8 6 3 1 4 4 2 2 3 1 3 4 4 4 5 8 11 10 10 10 10 10 9 9 9 9 9 9 9 10 10 10 10 10 11 11 11 12 11 11 11 11
14 11 7 6 8 6 4 3 2 2 4 4 4 4 5 8 10 10 10 10 10 11 10 10 10 9 9 9 9 10 10 10 11 11 11 11 11 12 12 13 14 14
20 19 16 13 11 8 7 5 4 3 5 4 3 5 5 7 8 8 9 9 9 9 9 9 9 9 8 8 8 9 9 10 11 12 13 13 13 14 15 16 16 16
22 22 19 14 11 11 9 7 6 4 5 3 2 4 5 5 6 6 7 7 7 7 8 8 8 8 8 8 8 8 8 10 11 13 14 15 15 15 16 16 16 16
23 22 18 14 12 13 11 8 7 4 3 2 1 3 4 4 5 5 5 5 5 6 6 7 7 7 8 8 8 8 7 9 11 12 13 14 15 15 15 15 14 14
24 22 18 13 13 15 12 10 10 6 3 2 2 2 3 4 4 4 4 5 5 5 6 6 6 6 7 8 8 8 8 8 10 10 10 11 12 12 12 12 11 11
24 22 17 13 13 16 14 12 12 8 5 4 5 3 2 2 3 3 4 4 4 4 4 5 5 6 6 7 7 8 8 8 8 8 8 8 8 8 8 8 7 7
23 21 18 14 14 18 18 16 15 11 8 8 7 7 5 4 3 3 3 4 4 4 4 4 4 5 5 5 6 6 6 6 6 6 5 5 5 5 4 5 5 4
22 21 19 17 16 19 20 18 17 14 11 10 10 9 9 7 6 4 4 3 3 4 4 4 4 4 5 5 4 5 5 5 4 4 3 3 2 2 3 3 3 3
19 20 19 17 16 20 21 20 19 15 13 12 12 11 11 9 8 7 6 5 4 4 4 4 4 3 3 3 3 3 4 4 4 4 3 3 2 1 1 1 1 1
15 17 16 16 17 19 20 21 20 16 14 14 14 13 12 11 10 9 7 6 5 5 5 5 5 5 4 4 4 4 3 3 4 4 4 4 4 3 2 1 2 2
12 13 14 15 17 19 19 20 21 19 15 15 15 15 14 13 12 11 10 9 8 7 7 7 7 7 6 6 6 5 5 5 5 5 5 5 5 5 4 4 4 5
9 11 12 14 17 20 20 20 22 22 19 16 16 16 16 16 16 15 15 14 13 11 11 11 9 9 8 7 6 6 7 7 7 7 7 6 6 6 6 7 7 8
8 10 11 12 14 17 18 19 20 22 22 19 18 18 17 17 18 18 18 17 16 15 15 14 14 12 10 9 8 9 10 10 10 9 10 10 10 9 9 9 9 10
8 10 11 11 11 12 13 16 18 19 19 18 18 18 17 17 17 20 22 22 20 18 17 16 16 16 14 12 11 11 12 14 14 14 14 13 13 12 12 11 11 12
6 8 9 10 11 12 12 15 17 18 18 17 17 17 18 18 19 22 24 25 25 23 21 18 17 17 16 15 13 13 14 16 17 17 15 14 13 14 14 15 15 14
4 6 7 9 11 12 13 14 16 17 18 18 18 19 19 20 22 23 25 27 29 29 27 24 21 20 19 18 16 16 17 16 16 16 15 15 14 14 14 14 14 15
4 6 7 9 11 12 13 14 16 17 17 18 19 19 20 21 23 23 24 26 29 32 32 31 28 25 22 20 19 18 17 16 15 15 14 14 13 12 12 12 12 14
5 6 8 9 11 12 14 15 16 16 16 16 16 17 19 20 20 20 21 22 26 28 30 33 33 29 25 22 19 17 16 15 13 12 12 11 11 12 12 12 12 13
2 4 5 7 10 12 13 14 15 15 14 14 15 15 17 16 15 15 15 17 20 22 22 25 28 28 24 21 18 16 13 12 10 10 11 11 11 12 12 12 11 12
2 3 4 5 7 9 11 13 14 14 14 14 15 16 17 16 14 12 12 12 14 16 17 18 20 22 20 17 15 13 10 9 9 9 10 10 10 10 9 9 9 9
5 5 5 6 6 6 7 9 11 11 11 10 11 13 15 16 14 13 12 11 11 14 16 14 13 15 16 15 13 10 8 8 8 8 8 8 8 8 8 7 7 7
8 8 7 6 5 6 6 6 7 7 7 6 7 8 9 11 11 11 11 11 11 12 14 12 10 13 16 13 10 9 8 7 7 7 7 7 7 7 6 6 6 5
10 9 8 7 6 5 6 7 7 7 7 6 6 6 7 8 9 9 9 10 10 10 10 11 12 14 13 11 9 8 7 6 5 5 5 5 5 5 5 5 5 4
9 9 8 8 8 7 7 8 8 9 9 8 8 8 8 9 9 10 10 11 11 10 10 10 11 12 11 10 9 8 7 5 4 4 4 4 4 5 4 4 3 3
9 9 9 10 10 10 9 9 9 10 10 10 10 10 10 11 11 12 12 12 12 11 11 10 11 11 10 9 9 7 6 5 4 3 3 3 4 3 3 3 3 3

ECMWFNIL_850_spd_024.txt.gz
Wind_Speed
10 9 8 7 7 6 5 4 4 6 7 8 8 8 9 9 9 9 9 10 11 10 9 8 8 8 8 9 9 7 5 6 7 8 9 9 10 10 10 11 10 9
12 11 10 7 5 4 2 1 3 6 7 8 10 10 12 12 10 10 11 11 11 11 11 10 10 11 10 10 10 8 7 9 10 11 11 11 11 11 11 11 11 11
14 13 12 8 4 2 2 3 5 7 8 9 11 11 13 13 11 11 11 11 11 11 11 10 10 11 11 12 12 11 10 11 12 12 12 13 13 13 14 14 14 14
16 15 14 11 6 3 3 5 6 8 9 11 11 11 11 11 11 10 10 9 9 9 9 9 9 10 10 12 12 11 11 12 12 13 13 14 15 16 17 17 17 17
15 17 17 13 8 5 6 7 8 8 10 12 12 11 10 10 10 10 9 9 8 8 8 8 8 9 10 11 11 10 10 11 12 13 13 15 16 17 18 19 19 19
14 18 19 15 9 7 8 9 9 9 10 13 12 11 10 10 9 9 9 8 8 8 8 8 8 9 10 10 11 11 11 12 13 14 14 14 15 16 17 16 15 16
14 18 20 16 10 7 10 12 11 9 10 13 14 12 10 10 9 9 9 8 8 8 8 8 9 10 10 11 12 13 13 14 15 14 13 13 14 13 13 13 11 11
13 17 19 16 11 8 11 14 13 11 10 11 14 13 11 11 10 9 10 9 9 9 9 9 10 11 11 12 12 13 13 14 14 12 10 11 12 10 10 10 9 8
11 15 17 15 12 10 11 15 15 14 11 10 12 14 13 11 10 10 10 10 10 10 10 10 10 11 11 11 11 11 11 12 12 11 10 10 9 8 7 8 8 7
9 13 16 15 13 11 11 15 18 17 14 11 11 12 13 12 11 11 11 10 10 10 10 11 11 11 11 10 10 10 10 9 9 10 10 9 8 7 7 7 6 5
8 11 14 14 14 12 11 15 20 19 16 13 11 11 13 13 12 12 12 11 11 11 11 11 10 10 10 9 9 9 9 9 9 9 9 9 9 9 9 9 7 6
8 9 11 12 13 12 11 15 20 20 17 13 11 12 13 13 13 13 13 12 12 12 12 11 11 10 10 9 9 9 9 9 9 9 9 9 9 9 9 9 9 8
6 7 9 10 10 11 13 16 19 19 18 15 12 12 13 14 14 13 13 13 13 13 13 12 12 11 10 10 9 9 9 9 9 9 9 9 8 8 7 7 7 8
4 6 8 8 9 11 14 17 18 18 17 17 16 14 13 14 14 14 14 15 15 15 14 14 13 12 12 11 10 10 10 10 9 8 8 8 8 7 8 7 7 8
5 7 7 6 7 9 12 15 17 17 16 17 18 17 15 14 14 15 16 17 17 17 16 16 15 14 15 14 14 14 13 12 11 10 9 9 8 8 10 11 11 11
4 5 4 5 6 7 8 11 14 16 16 16 17 18 17 16 15 16 18 19 19 20 20 19 18 18 18 18 18 18 17 15 12 11 11 12 12 13 14 14 13 14
2 2 3 5 6 7 7 9 10 12 14 15 16 16 17 17 17 18 20 20 20 22 23 24 23 22 20 20 21 21 21 18 14 11 11 12 14 15 15 15 15 14
2 3 4 5 7 8 8 9 10 11 13 14 16 16 17 17 19 20 21 21 21 23 24 25 27 26 24 22 23 24 24 22 18 15 13 13 14 15 16 16 14 11
2 3 5 6 7 8 9 9 10 12 14 15 15 16 16 17 18 19 20 21 21 22 23 24 26 29 30 28 25 24 25 24 21 19 17 16 16 17 18 16 11 8
1 2 3 5 7 9 10 10 11 12 13 14 15 15 16 16 17 18 19 21 22 22 22 23 25 27 30 30 28 26 26 24 22 21 20 18 16 17 16 14 12 11
2 2 3 4 5 7 9 10 12 13 14 14 13 13 14 16 17 17 18 19 20 20 19 21 22 23 25 28 28 27 28 27 25 22 19 16 16 16 14 13 12 12
5 6 5 5 5 6 7 8 10 12 13 14 14 14 15 18 19 19 19 18 17 17 17 18 20 20 21 23 24 25 26 25 22 19 16 15 15 14 13 12 11 10
7 8 9 8 8 7 7 7 8 9 10 12 13 13 14 16 17 19 20 19 18 17 16 17 18 17 18 19 20 22 22 20 16 15 16 15 14 13 13 12 11 10
8 9 10 11 11 9 9 9 9 9 10 10 11 11 10 11 13 15 18 19 19 18 17 17 17 17 18 19 19 19 17 15 13 13 14 15 14 13 12 11 10 9
8 9 10 11 11 11 11 11 11 11 11 11 11 10 10 10 10 11 14 16 17 18 17 16 16 16 17 18 18 17 15 13 12 12 14 13 13 12 11 11 10 9
11 11 12 12 12 13 14 14 13 12 12 13 11 10 10 10 10 10 12 14 15 15 15 15 16 17 19 19 18 16 14 12 11 11 12 12 12 12 11 11 11 10

ECMWFNIL_850_spd_030.txt.gz
Wind_Speed
17 15 12 10 11 10 9 7 6 5 6 6 7 8 8 6 5 7 9 9 8 8 6 6 9 9 10 10 9 8 9 9 10 10 11 13 15 16 17 17 16 15
18 16 14 13 13 12 10 8 6 6 7 7 9 10 8 5 4 6 8 8 6 6 7 8 11 10 9 9 8 10 12 13 13 13 12 13 15 17 19 18 15 15
20 18 17 16 15 12 10 9 7 7 8 8 10 10 6 4 4 5 6 6 4 5 6 8 11 11 10 8 8 11 13 13 13 13 12 13 14 16 18 17 15 15
21 19 18 17 15 12 8 7 6 6 8 9 9 7 4 4 4 5 5 4 5 5 6 8 9 10 10 8 8 10 11 10 11 11 12 13 14 17 18 15 15 15
19 18 19 18 15 11 7 6 5 5 7 7 6 4 4 4 4 4 4 3 4 4 4 5 7 9 10 8 8 9 9 10 10 9 10 12 13 16 17 15 14 14
18 18 19 17 13 10 7 7 5 4 6 6 4 5 5 5 4 3 3 2 2 2 3 4 6 8 8 8 8 8 8 9 9 8 10 12 13 15 16 15 16 16
17 17 17 14 12 9 8 8 6 4 6 6 5 6 5 5 5 3 3 2 1 2 2 3 5 6 7 8 9 9 8 9 10 10 12 14 15 16 14 14 17 19
16 15 14 12 11 9 9 9 7 6 7 7 7 7 6 7 6 5 5 4 4 4 3 4 4 6 8 8 8 10 11 12 11 11 13 15 15 14 14 14 16 17
16 15 13 12 11 10 10 10 8 8 9 9 8 7 8 8 6 6 6 6 6 5 4 5 5 6 8 8 9 12 14 13 11 12 14 15 14 13 14 14 14 13
14 14 14 13 12 11 12 11 10 10 11 10 9 8 9 9 7 6 7 7 7 6 5 6 6 6 6 7 9 13 14 12 12 13 15 15 12 12 13 12 11 11
13 14 13 13 13 13 14 12 11 11 11 11 10 9 9 9 8 8 8 8 8 7 7 6 6 6 6 6 8 12 13 12 12 13 14 13 11 9 10 9 8 7
11 12 12 12 13 13 13 13 12 12 11 11 11 11 11 10 9 8 9 9 8 8 8 7 6 6 7 7 8 10 11 11 11 13 14 13 11 9 9 8 7 6
9 10 11 12 12 11 11 12 13 13 12 11 11 11 11 11 10 9 9 9 8 8 9 8 7 7 8 9 9 10 10 11 11 13 14 13 12 11 9 9 7 6
9 10 11 11 11 11 10 11 12 13 14 13 11 11 10 10 10 10 10 10 9 8 9 9 8 9 10 10 10 11 11 12 11 12 12 12 12 11 10 10 9 9
7 8 9 10 10 11 11 11 11 11 13 14 12 10 9 9 9 9 10 10 10 9 9 10 10 10 10 11 11 12 13 13 13 12 12 12 13 12 11 10 10 12
4 4 6 6 7 8 9 9 9 10 11 13 13 11 11 12 12 11 11 11 11 10 9 10 11 11 12 13 13 14 15 16 15 15 15 14 15 13 13 13 14 15
4 4 4 3 3 4 5 6 7 8 9 11 14 14 14 15 14 13 13 14 13 12 12 14 16 15 15 15 16 17 17 18 18 18 17 16 16 16 16 18 18 17
4 4 3 3 3 3 3 4 5 7 8 11 13 14 15 16 16 15 15 17 18 18 19 21 22 22 21 19 19 19 20 20 20 20 19 18 18 19 19 21 21 18
5 5 3 2 2 1 2 3 4 6 7 9 11 11 13 15 17 18 19 20 20 21 23 23 21 22 24 23 21 22 24 24 24 23 22 22 22 23 24 24 22 19
6 5 4 4 4 4 3 3 4 5 6 9 10 10 12 14 16 19 21 23 23 23 25 25 23 22 23 23 23 25 27 27 27 26 25 25 25 25 25 24 22 20
8 6 5 4 4 4 4 5 6 6 6 8 9 9 11 13 15 17 19 21 23 24 26 27 26 24 24 24 24 26 28 28 28 28 28 28 28 25 22 21 20 17
10 8 8 7 4 4 4 4 6 7 8 8 9 9 10 12 14 15 17 18 19 21 24 26 25 24 25 27 26 27 29 30 31 31 30 31 31 27 23 22 21 17
9 8 9 9 6 5 6 6 7 8 8 8 10 10 10 12 13 14 15 16 17 19 20 22 23 23 24 27 29 30 31 32 32 32 31 32 32 29 25 24 24 20
10 9 9 10 8 8 8 8 9 9 8 8 9 11 12 12 14 15 16 16 17 17 18 21 22 22 22 24 27 30 32 33 33 32 31 31 30 28 25 24 23 21
13 12 11 12 12 11 11 10 10 11 11 11 11 12 13 14 15 16 16 18 19 20 19 20 21 21 20 23 25 27 29 31 32 31 30 28 26 25 24 23 22 20
13 12 12 14 14 15 16 16 15 15 15 14 14 14 15 16 17 17 16 17 20 22 21 21 21 21 20 22 25 26 25 27 29 29 28 26 24 22 21 20 20 20

ECMWFNIL_850_spd_033.txt.gz
Wind_Speed
17 16 15 15 16 16 13 11 10 9 9 9 8 8 6 4 7 11 11 9 8 6 9 12 11 8 6 5 6 7 7 9 11 12 12 13 13 15 18 18 17 15
18 17 16 15 17 17 14 12 12 12 12 11 10 9 7 5 7 12 13 11 7 6 12 15 12 10 8 6 7 9 11 12 13 15 16 18 18 17 17 18 19 19
20 18 16 16 18 19 16 14 14 14 13 12 11 9 7 6 7 11 13 11 7 9 14 15 12 10 8 8 10 12 12 13 14 16 18 20 20 18 16 16 18 18
19 18 16 17 19 19 17 15 14 14 12 11 10 8 7 6 8 11 11 9 8 11 14 15 12 10 8 10 12 13 12 12 13 15 18 21 20 19 19 18 17 17
19 19 18 18 19 18 17 15 13 12 11 10 8 6 6 7 8 8 9 9 9 10 11 13 13 11 9 10 12 12 12 11 12 16 19 20 19 19 19 19 19 18
21 21 20 20 19 17 16 14 11 10 10 9 7 6 8 8 7 7 8 9 9 9 9 11 12 12 10 10 12 13 12 11 12 16 20 20 18 17 17 17 18 18
23 22 21 20 19 17 15 12 10 10 9 8 6 7 9 8 7 7 7 7 8 8 9 11 12 12 11 11 12 12 11 11 12 15 18 18 17 17 17 17 17 18
24 23 22 20 18 17 15 12 10 9 9 7 7 8 9 8 7 6 6 8 8 8 9 11 12 14 15 13 13 14 13 14 14 16 18 17 17 19 21 20 19 19
24 24 22 20 17 17 15 12 10 8 8 8 8 9 10 9 7 6 7 8 7 6 9 12 14 15 15 14 16 17 15 15 16 18 18 17 17 20 22 21 20 21
24 23 22 19 17 16 15 12 10 8 9 9 9 10 12 11 7 7 8 9 7 6 8 11 13 14 13 15 18 17 16 17 19 19 18 17 17 19 21 20 19 20
24 24 22 19 17 16 15 12 9 8 10 10 9 11 13 12 8 8 10 10 7 6 8 9 10 10 11 16 20 18 17 18 20 20 19 18 17 18 20 19 17 16
23 23 21 18 16 15 14 11 8 8 10 11 10 10 13 12 9 9 11 10 8 7 7 6 7 7 9 15 20 19 18 18 19 21 19 17 17 17 18 19 16 15
20 20 18 17 17 17 15 12 9 8 9 11 11 11 13 11 10 11 11 9 8 8 8 5 5 7 8 11 15 17 17 17 19 20 19 16 16 17 17 17 16 15
15 16 16 16 16 16 15 13 12 10 8 9 10 10 12 12 11 11 11 10 8 8 9 7 5 7 9 9 11 13 14 15 17 19 20 17 16 15 15 14 13 12
14 14 14 13 13 13 14 14 13 12 11 11 10 9 9 10 11 11 12 13 11 9 10 10 8 8 10 10 10 11 12 13 14 16 18 18 17 16 14 13 13 12
10 10 11 11 11 10 11 12 12 13 13 14 13 10 9 8 9 10 11 13 14 13 12 12 11 11 11 11 11 11 11 13 13 14 15 16 16 16 16 15 15 14
8 8 8 7 6 7 8 9 9 10 12 14 15 13 11 11 10 11 11 12 15 16 15 14 14 15 14 14 13 13 13 13 14 14 14 15 15 16 16 16 16 16
8 8 6 4 3 3 5 5 5 6 9 12 15 15 14 14 13 13 14 14 15 17 17 17 17 18 18 17 16 16 16 15 16 15 15 15 16 17 17 18 18 18
14 12 10 7 5 4 3 3 2 3 6 9 13 15 16 16 16 16 16 17 17 18 18 19 20 20 20 20 19 19 19 19 18 17 16 17 19 20 19 20 20 20
19 17 14 12 10 8 6 5 3 2 2 4 7 10 13 15 17 18 18 19 20 20 21 22 22 22 22 22 22 22 22 22 21 20 20 21 22 22 21 21 23 22
14 13 12 12 10 8 7 6 4 4 5 5 5 5 7 10 13 16 18 19 21 22 23 23 24 24 24 24 25 25 25 26 25 24 24 25 26 25 25 25 25 24
7 7 6 6 6 6 6 5 4 3 3 4 5 6 7 8 9 11 13 15 17 19 21 22 23 23 24 25 26 26 27 28 28 27 27 28 29 29 28 28 27 26
3 3 2 1 1 2 4 3 2 2 2 0 2 3 6 7 9 11 11 12 14 16 17 19 20 21 22 23 25 26 27 28 28 29 29 31 32 32 31 30 30 29
6 7 8 8 7 7 6 7 7 7 8 7 6 6 5 6 8 10 12 14 15 16 16 17 17 18 19 20 21 22 24 26 27 28 29 31 33 34 34 34 33 32
10 11 12 12 13 13 13 13 13 12 13 13 13 13 12 11 11 11 12 15 17 18 18 18 19 18 18 18 19 19 21 24 26 28 30 31 33 34 35 35 35 33
14 14 15 16 17 17 17 18 18 18 18 17 18 18 18 18 17 17 16 16 17 18 18 19 20 20 19 18 18 18 21 24 26 28 30 31 33 35 36 36 35 33

ECMWFNIL_850_spd_036.txt.gz
Wind_Speed
20 17 14 14 14 15 15 13 9 7 6 5 3 2 2 2 4 8 10 10 9 8 8 8 8 6 4 4 6 6 5 6 7 7 7 8 9 9 9 10 10 12
21 17 14 15 16 16 15 12 8 6 5 5 5 4 3 1 3 7 9 9 9 8 9 10 9 7 5 6 7 7 6 6 7 7 8 9 11 11 11 10 10 12
21 17 15 15 16 17 15 11 8 6 6 7 7 6 5 4 4 7 7 6 8 11 12 10 9 7 5 7 8 8 8 8 8 9 10 13 14 13 12 11 11 12
20 17 15 14 15 17 14 10 8 8 9 9 9 8 7 6 6 8 8 6 8 13 15 12 10 8 6 7 9 10 10 10 11 11 13 15 15 13 13 13 13 13
20 19 16 14 15 16 13 10 8 8 9 9 9 9 8 7 6 8 9 8 10 14 16 14 12 9 7 9 10 11 12 12 13 14 14 14 14 13 13 12 13 14
21 19 17 15 16 15 12 10 8 8 8 9 9 10 9 6 7 9 10 11 12 14 15 13 11 9 10 11 12 12 13 14 16 16 15 14 13 13 12 12 13 14
21 19 16 16 16 15 12 10 8 8 9 9 9 9 8 7 9 9 10 11 12 13 13 12 10 9 11 13 13 12 13 14 17 18 17 15 15 14 13 13 14 14
21 19 17 16 15 14 12 11 9 8 9 8 8 8 7 8 8 9 10 10 10 12 11 11 9 8 12 14 14 13 13 13 17 19 18 17 17 16 16 16 16 16
18 18 18 16 15 13 13 12 10 8 8 8 7 8 8 7 7 8 9 9 10 11 11 10 9 10 12 13 13 13 14 14 17 18 19 18 17 18 19 19 20 19
16 16 17 16 15 15 14 12 10 8 8 8 8 9 9 7 6 7 8 7 7 9 12 11 11 12 12 13 13 13 14 16 17 18 17 16 16 17 19 20 21 21
16 14 15 17 16 14 14 12 10 8 8 8 9 10 9 8 6 5 6 5 4 5 10 12 12 12 12 14 14 14 15 16 18 18 17 16 17 18 19 19 20 21
15 15 17 18 15 14 14 12 10 8 8 9 10 10 10 9 7 6 7 6 3 3 5 9 10 10 12 15 15 14 16 17 18 18 16 17 18 18 18 19 20 20
15 15 17 17 16 16 15 12 10 8 9 9 11 11 12 11 9 8 8 8 6 4 3 4 4 6 12 17 16 14 15 17 18 17 16 16 17 18 18 19 21 21
15 15 17 18 18 17 15 14 13 10 10 11 12 13 13 11 10 9 10 9 7 6 5 4 2 3 11 18 18 15 16 17 18 18 17 16 16 17 19 20 20 20
15 16 18 19 18 16 15 16 15 12 11 13 13 14 14 12 10 10 11 11 10 8 8 8 6 4 6 14 18 17 17 18 18 19 19 18 17 18 20 21 20 20
14 16 18 18 17 15 15 15 15 14 15 17 16 15 14 13 12 13 13 13 12 11 10 11 11 8 6 8 11 14 15 17 19 21 21 20 19 19 20 22 22 20
11 12 13 13 12 12 14 15 15 16 18 19 17 15 14 13 12 14 15 15 14 14 13 13 13 13 11 9 8 9 11 13 16 20 23 22 21 20 20 21 21 21
10 10 9 8 7 9 11 13 14 17 21 21 17 14 13 13 12 12 14 15 16 16 16 14 13 14 15 14 12 11 12 13 14 17 20 23 24 24 23 23 23 23
12 12 12 10 7 6 6 6 8 12 15 16 16 14 12 12 13 13 13 14 15 16 17 16 15 14 15 17 17 16 15 15 16 16 18 20 22 24 24 25 25 25
17 15 14 13 10 8 7 7 7 7 6 7 10 13 12 13 15 15 15 16 16 16 17 18 18 17 16 17 19 20 20 20 20 20 21 22 22 23 24 25 25 26
17 16 15 14 12 10 9 8 7 7 6 6 6 8 9 10 11 13 14 17 19 19 20 20 20 20 19 18 19 21 22 23 23 24 25 26 26 26 26 25 26 27
13 12 11 11 11 10 9 8 8 7 7 7 7 7 7 7 7 7 8 11 14 17 20 22 22 23 23 23 23 23 23 24 25 27 28 29 29 29 29 28 29 30
7 6 6 5 6 6 6 6 6 5 5 6 6 6 7 7 8 8 8 8 9 11 14 17 18 20 22 24 26 27 27 27 27 28 30 30 31 32 31 32 32 33
5 4 5 5 6 7 7 7 7 7 7 7 7 7 8 8 9 10 10 11 11 11 12 13 14 15 16 19 22 25 27 28 29 30 31 31 32 33 33 34 34 34
5 6 7 8 8 9 10 12 12 13 13 12 12 13 13 13 13 14 14 14 14 14 15 15 17 17 16 17 18 19 22 24 25 28 29 30 31 32 33 34 35 36
10 10 11 11 12 13 13 14 16 17 18 18 18 18 19 19 19 20 20 19 19 19 19 19 20 21 20 20 19 20 21 22 24 25 26 28 29 30 31 33 34 36

ECMWFNIL_850_spd_039.txt.gz
Wind_Speed
17 16 15 14 11 10 10 9 6 3 2 0 1 3 4 4 5 7 8 6 6 6 5 5 5 3 3 6 8 8 7 7 7 8 8 8 9 10 10 10 11 13
18 17 16 13 10 9 9 9 6 3 2 1 2 3 5 6 6 4 7 7 6 6 5 6 6 3 4 7 9 9 8 7 8 8 8 8 9 10 10 11 12 13
19 17 15 12 9 9 10 10 7 4 2 2 2 3 6 7 7 5 5 6 6 6 6 6 6 3 3 6 9 9 8 8 8 8 9 9 9 10 10 12 13 14
19 17 14 11 9 10 12 11 7 4 3 2 3 4 6 7 8 7 5 5 6 7 7 7 6 4 4 6 8 8 7 7 7 8 10 11 11 10 10 11 13 14
18 16 13 11 10 12 13 12 8 4 3 3 3 4 6 7 8 8 5 5 5 7 9 8 6 3 4 6 7 7 7 7 7 9 11 12 11 10 9 10 12 14
19 16 13 10 10 12 14 12 8 4 3 4 4 5 6 7 7 5 5 6 6 8 10 10 8 4 4 7 7 7 8 8 8 10 12 12 11 10 9 9 11 14
19 17 15 12 11 13 13 11 7 4 4 4 4 5 7 7 5 4 6 6 7 8 10 10 9 5 5 8 8 8 9 9 9 10 12 12 11 10 9 9 10 12
20 19 16 13 13 13 11 9 6 4 4 4 4 6 6 5 4 5 6 7 7 9 10 10 9 6 7 9 8 9 10 10 10 10 10 11 10 9 9 9 9 11
19 19 18 15 13 12 10 8 6 6 5 5 5 5 5 4 5 6 7 7 7 9 10 10 8 6 7 10 10 9 10 10 11 11 10 10 10 9 8 8 9 12
19 19 20 17 13 12 11 9 7 6 5 5 5 4 4 4 5 5 6 6 6 8 9 8 7 6 7 11 11 10 10 10 11 12 11 11 11 11 10 9 10 12
20 20 20 18 16 15 13 11 8 5 4 4 4 4 4 4 5 6 5 3 2 3 6 7 7 6 7 9 10 10 11 11 12 13 13 13 12 12 12 13 12 12
20 20 19 18 18 17 15 13 11 6 3 4 5 5 5 4 6 6 5 4 4 3 1 5 7 7 7 8 9 10 11 12 13 14 14 13 12 12 12 15 16 15
18 19 18 17 18 18 16 15 12 8 5 5 6 6 6 3 3 3 2 2 2 3 3 1 4 5 7 9 10 9 10 11 13 14 13 12 12 12 12 13 15 16
19 19 17 17 18 17 16 15 14 11 8 7 8 7 6 4 2 1 1 1 2 2 2 2 2 2 4 9 11 10 9 11 12 13 12 11 12 13 13 13 14 15
16 17 16 17 17 16 15 15 15 13 10 9 10 8 7 6 4 4 4 4 5 5 5 5 4 3 3 5 10 11 10 11 12 12 12 11 12 13 13 13 14 15
15 17 17 17 16 16 16 15 14 14 13 13 13 10 9 8 7 7 7 7 8 9 9 8 7 6 5 4 6 9 10 11 12 12 12 12 12 12 13 14 15 16
14 16 15 13 14 15 13 13 14 14 15 16 15 12 11 10 8 8 9 9 11 11 11 11 10 10 9 8 6 6 8 10 11 12 13 14 14 14 14 15 16 18
11 13 12 12 13 13 12 13 15 14 14 14 14 13 13 12 10 10 11 12 13 13 13 12 12 11 11 12 12 10 8 9 10 12 13 15 16 17 17 17 18 19
12 12 12 12 12 12 13 14 15 14 13 13 13 14 14 14 13 13 12 13 14 15 15 15 14 13 12 12 13 15 14 13 12 12 13 14 16 17 18 19 19 20
15 14 14 12 11 11 12 13 12 13 13 13 15 16 15 14 15 15 15 15 15 14 15 15 15 15 14 13 13 15 17 19 18 17 16 16 16 16 18 19 20 21
16 15 15 14 12 10 10 10 9 9 11 12 13 15 15 16 16 17 17 18 18 17 17 16 15 15 16 16 15 15 17 19 21 22 22 21 21 20 20 21 21 22
16 15 14 14 12 11 10 9 9 8 8 9 8 10 12 15 17 18 18 19 20 21 20 20 18 17 17 17 17 18 18 19 21 22 23 24 25 25 25 25 25 26
12 11 11 11 10 10 9 9 8 7 7 7 7 7 9 11 14 16 16 18 19 20 21 21 20 19 19 18 18 18 19 20 21 22 24 25 26 27 27 28 29 30
7 5 5 5 5 6 6 6 6 6 7 7 8 9 9 11 13 14 14 15 16 17 19 20 20 19 19 20 20 20 20 20 20 21 22 25 27 28 29 29 30 30
5 5 5 3 2 2 4 6 7 8 9 10 11 12 13 14 15 15 16 16 17 18 18 20 20 20 20 21 21 21 22 22 22 22 22 23 24 26 27 28 29 29
9 10 10 10 9 8 8 9 10 11 13 14 15 16 17 17 18 19 19 19 20 20 21 22 23 24 23 23 23 23 24 24 24 25 25 24 24 24 24 25 25 26

ECMWFNIL_850_spd_042.txt.gz
Wind_Speed
15 13 10 9 10 11 10 9 6 4 3 3 5 5 5 6 6 5 2 1 2 4 4 4 4 3 3 3 4 6 6 6 7 8 8 7 8 9 9 9 9 9
15 13 11 10 10 10 9 8 6 4 2 3 4 4 5 6 7 6 3 1 2 3 3 2 2 2 2 3 5 6 5 5 6 7 7 7 8 9 9 9 9 9
14 13 11 10 10 9 9 9 8 5 3 3 4 4 5 6 7 7 3 1 2 3 3 2 2 2 2 3 5 7 7 6 5 5 6 6 7 8 9 9 8 8
14 12 11 10 9 7 7 9 8 6 3 3 3 3 4 5 6 6 3 0 2 2 2 2 2 1 1 3 5 8 7 6 5 5 5 6 6 7 7 8 8 8
14 13 13 11 9 7 7 8 8 5 3 3 3 2 3 4 5 5 2 1 3 3 2 2 2 1 1 3 5 6 6 5 5 5 5 6 5 5 5 5 6 8
15 15 14 12 9 7 8 9 8 4 3 3 2 1 2 4 4 4 1 2 4 4 3 3 3 2 0 3 4 4 4 4 4 5 5 5 4 3 3 3 3 5
16 16 15 13 10 9 10 10 8 4 3 2 1 0 2 3 3 2 1 3 4 4 3 4 4 2 0 3 3 3 3 4 4 5 4 4 3 2 2 2 1 2
16 16 15 13 11 10 10 10 7 4 3 1 0 1 2 3 2 2 3 4 4 3 3 4 4 2 2 5 4 2 2 3 4 4 4 2 2 2 0 1 2 1
15 15 15 14 12 10 10 10 7 4 2 0 1 2 2 2 2 3 3 4 4 4 4 4 5 3 4 7 6 4 3 2 3 4 3 1 1 2 1 1 2 1
15 16 17 16 13 11 11 10 7 4 2 1 2 2 1 1 2 3 4 4 4 4 4 4 4 3 4 8 8 6 4 3 3 3 3 2 1 2 1 1 1 2
15 16 17 16 14 12 11 9 7 5 3 2 1 1 0 0 2 3 3 3 2 2 2 3 3 2 3 6 8 8 6 5 4 4 4 4 3 3 2 1 2 3
16 17 18 17 14 13 12 10 8 6 4 3 3 2 2 3 5 7 7 7 7 6 3 1 1 2 3 4 6 7 7 7 6 6 7 7 7 6 5 4 3 3
17 18 18 17 16 16 15 12 9 7 5 4 4 5 5 4 6 6 6 7 8 8 7 5 4 2 2 3 5 5 6 6 6 7 9 9 9 9 8 7 7 7
17 17 18 18 17 16 14 12 10 8 6 4 5 7 7 6 5 5 4 5 5 5 5 5 5 4 3 0 3 4 4 4 4 6 9 10 9 8 7 7 9 11
16 17 17 17 15 12 12 14 13 11 9 7 6 7 8 7 5 4 4 3 3 2 2 3 4 4 5 4 2 3 4 4 4 5 7 8 7 7 7 7 9 11
16 18 18 15 13 13 15 16 15 14 14 12 9 9 8 7 6 5 5 4 3 1 1 2 2 3 4 5 5 4 3 3 5 5 6 7 7 7 8 9 9 10
17 18 19 17 15 16 17 17 15 15 15 13 11 11 10 9 8 7 6 5 4 3 2 2 2 2 3 4 5 5 4 3 3 5 6 7 7 7 8 8 9 10
16 16 16 16 16 17 17 17 16 15 16 15 13 12 11 10 9 8 7 7 6 5 5 4 4 4 3 3 4 5 5 5 5 5 6 6 7 8 8 9 10 11
14 14 14 14 15 17 17 17 17 16 16 16 14 14 14 12 11 10 9 9 8 7 7 7 7 6 6 6 6 6 6 7 8 8 8 8 8 8 9 10 11 12
14 14 15 15 15 16 15 16 17 17 16 15 15 15 15 14 13 13 12 12 11 9 8 9 9 9 9 9 9 9 8 9 10 11 12 12 11 11 11 11 11 11
17 16 16 15 14 13 13 13 14 14 14 14 14 15 15 15 14 14 14 13 13 11 10 10 11 11 12 12 12 12 12 12 12 13 14 14 15 15 15 15 15 15
18 17 15 14 12 11 11 10 10 10 10 11 11 12 13 13 14 13 13 12 12 12 12 12 12 12 13 14 15 15 15 16 16 16 16 17 17 17 18 19 19 20
16 14 14 13 11 9 9 8 7 7 7 7 8 8 8 10 11 11 11 11 11 11 11 12 14 15 15 17 17 18 19 19 20 20 21 21 21 21 21 22 21 22
12 11 11 10 8 7 7 5 5 4 4 4 5 5 6 6 7 8 9 10 10 11 11 12 13 14 16 17 19 19 20 21 22 23 24 24 25 26 26 26 26 26
7 6 5 5 4 4 3 1 1 1 2 3 4 5 6 7 7 8 9 10 11 12 13 13 14 14 15 16 18 19 20 21 22 23 23 24 25 27 27 28 28 28
3 3 2 2 2 3 4 5 6 7 7 8 9 9 10 11 12 13 13 14 14 15 16 17 17 18 18 19 19 20 21 22 22 23 24 25 25 26 26 27 27 27

ECMWFNIL_850_spd_045.txt.gz
Wind_Speed
19 17 16 16 17 17 17 16 14 13 12 12 11 10 10 9 8 7 7 8 10 10 9 7 5 4 3 3 4 5 7 7 7 6 6 5 5 7 8 9 9 10
18 16 15 16 17 16 15 15 13 13 12 11 10 10 9 9 8 7 8 9 10 10 9 7 5 4 3 4 5 6 7 6 6 5 5 5 5 6 7 8 9 10
18 17 15 15 15 15 15 14 13 12 11 11 10 9 8 7 8 8 8 8 9 9 8 7 5 3 3 3 5 6 6 5 4 4 4 5 5 6 6 7 8 9
18 17 15 14 14 14 14 14 13 12 11 10 9 8 7 6 6 7 7 7 8 8 7 7 5 4 3 3 4 6 6 4 3 3 3 4 5 5 5 7 8 9
18 17 15 15 14 13 13 13 12 12 11 9 9 7 6 5 5 6 6 6 6 6 6 7 6 5 4 3 4 5 5 4 3 3 3 3 3 2 3 4 6 7
17 17 16 15 14 12 12 12 11 10 10 9 8 7 5 4 4 5 6 6 5 4 5 7 6 6 5 4 4 5 5 5 4 3 3 3 3 2 1 0 2 5
17 16 16 16 13 12 12 13 12 11 10 8 7 6 4 3 3 4 5 5 4 4 5 7 6 5 6 6 6 6 6 6 6 4 4 4 4 3 3 3 2 3
16 15 16 16 13 13 14 14 13 11 9 8 6 4 3 3 3 4 4 4 3 4 5 6 5 5 6 8 7 8 8 8 7 6 5 5 4 4 4 4 4 2
16 16 17 16 13 14 16 15 13 11 9 7 6 4 3 3 4 3 4 4 3 4 5 5 4 4 6 8 8 8 8 8 8 7 7 6 6 5 5 5 4 2
17 17 18 17 14 16 17 15 13 11 10 8 6 5 4 4 4 4 4 4 4 4 4 4 3 3 6 9 9 8 8 8 9 8 8 7 7 6 5 4 4 3
18 18 20 18 16 17 16 14 13 12 11 9 8 7 6 5 5 5 5 4 4 5 5 4 3 3 5 8 8 8 7 7 8 8 8 8 7 6 5 5 5 4
19 20 21 18 16 17 16 14 13 12 11 10 10 9 9 9 9 9 9 8 7 6 6 5 4 5 6 6 7 7 7 6 6 7 8 8 7 6 5 6 5 5
19 18 17 16 16 17 17 16 14 13 12 12 13 13 13 13 12 11 11 11 11 10 9 8 6 6 6 5 6 6 6 5 5 6 7 8 8 7 5 6 6 6
18 18 18 19 19 19 19 17 16 14 12 13 14 14 14 13 11 11 11 10 11 11 10 9 8 7 6 4 4 4 4 4 4 5 7 8 8 8 6 6 7 8
18 19 21 21 21 21 20 18 16 15 14 14 14 13 13 11 9 8 9 9 9 9 8 7 6 5 6 5 4 4 3 3 3 3 5 7 8 8 6 6 7 9
20 21 21 21 22 23 20 17 16 14 11 10 10 9 8 9 8 7 8 9 9 8 7 6 5 5 5 5 5 5 4 4 4 3 3 6 7 7 6 6 7 8
18 18 18 19 21 20 14 9 9 10 10 11 10 10 10 10 10 8 8 8 8 7 6 5 5 4 4 4 4 5 5 5 5 5 4 5 6 5 5 6 6 7
12 14 15 14 15 14 11 9 10 11 11 11 10 11 11 11 11 10 8 8 8 7 6 5 5 4 4 4 3 4 4 5 5 6 6 6 6 6 5 6 6 7
10 12 14 14 13 13 12 12 13 12 12 12 12 11 11 11 11 10 9 8 8 7 7 6 6 5 5 4 3 3 3 4 4 5 6 6 6 7 7 7 7 8
9 9 11 13 13 13 13 14 14 14 13 13 12 11 10 10 10 9 9 8 8 8 7 7 7 7 6 6 5 5 5 5 5 5 6 7 7 7 8 8 8 9
10 9 10 10 10 9 9 11 12 12 12 12 11 10 10 10 9 9 8 8 8 8 8 8 8 8 7 7 7 7 7 7 7 8 8 8 9 10 10 11 11 11
13 12 11 10 8 7 7 7 8 8 9 9 9 8 8 8 8 7 7 7 8 8 8 9 9 9 9 9 9 9 9 9 10 10 10 11 12 12 13 13 13 14
16 15 14 13 11 9 8 8 7 7 6 7 6 6 5 5 6 6 6 7 7 8 9 10 10 11 11 11 12 12 12 13 13 14 14 14 15 15 16 16 16 17
15 15 15 14 13 12 11 9 8 7 7 6 5 4 4 4 4 4 5 6 6 7 8 9 10 11 11 12 12 12 13 14 14 15 16 16 17 17 18 18 19 19
13 12 12 11 10 10 10 8 7 7 6 5 4 4 3 3 3 4 4 5 6 7 8 9 10 11 12 12 13 13 13 14 14 15 16 17 17 18 18 18 19 20
9 8 7 7 6 5 4 4 3 1 1 1 2 3 4 5 5 6 7 8 9 10 11 12 13 14 15 15 16 17 17 17 18 19 19 20 20 20 21 21 20 21

ECMWFNIL_850_spd_048.txt.gz
Wind_Speed
23 22 22 21 21 22 21 19 17 17 15 13 12 12 11 11 12 11 11 10 9 9 9 9 9 9 10 10 9 9 8 9 9 9 9 10 10 9 9 10 10 10
26 25 24 23 23 24 23 20 18 16 14 13 12 12 12 12 12 11 11 11 9 9 9 9 9 9 9 10 10 9 9 9 9 8 8 9 8 8 8 9 9 9
25 24 23 23 24 25 24 21 19 16 15 14 13 12 12 12 12 12 12 11 10 9 9 9 10 10 9 9 9 9 9 9 8 7 8 8 8 7 7 8 9 9
24 22 20 21 24 25 23 21 19 17 15 14 13 12 12 12 12 12 11 10 10 10 10 10 10 10 10 10 9 9 8 9 8 7 7 7 7 7 7 8 8 10
23 21 20 21 23 23 22 21 19 17 16 14 13 12 11 11 12 12 11 9 9 10 10 9 8 9 9 9 9 9 8 8 8 8 8 7 8 8 8 8 8 10
23 22 21 23 24 22 21 21 19 17 16 14 13 12 11 11 12 12 11 10 9 10 9 7 7 8 8 9 10 9 8 8 8 8 8 8 8 8 7 7 7 9
24 23 23 23 22 21 20 20 19 17 16 14 13 12 10 10 11 11 11 10 10 10 9 8 7 7 8 8 9 10 9 8 8 7 7 6 7 7 6 7 6 8
25 23 22 22 20 19 19 19 18 16 15 14 13 11 10 11 11 12 11 10 10 10 10 9 7 7 8 8 8 9 10 9 8 8 8 7 8 7 6 6 6 7
24 22 21 22 20 18 19 19 16 15 14 14 13 11 11 11 11 11 11 10 10 11 11 9 7 7 8 8 8 8 9 10 10 9 10 9 8 7 6 6 7 7
23 22 22 23 20 18 19 18 16 15 15 14 13 12 11 11 11 11 11 11 11 11 10 9 7 7 8 8 8 8 8 9 10 10 10 9 9 8 6 6 7 8
25 25 26 26 22 19 19 18 16 16 16 15 13 13 12 12 11 11 10 11 11 10 9 8 7 7 8 9 9 9 9 9 9 9 9 9 9 9 8 6 7 8
29 27 27 26 23 22 22 19 17 17 17 15 14 13 13 12 11 11 10 10 10 10 9 8 7 7 7 8 9 9 9 9 10 10 10 9 9 8 8 8 7 8
27 26 26 25 24 24 23 20 18 18 17 16 15 15 14 13 12 11 11 10 10 9 8 8 7 7 6 7 7 8 8 8 10 10 10 10 9 8 8 9 8 9
22 23 25 24 24 26 24 22 21 19 17 16 16 16 16 16 14 13 12 11 10 10 9 8 7 6 6 6 6 6 7 7 8 8 8 9 9 8 9 10 9 9
23 24 25 25 26 27 26 24 23 20 19 19 18 18 17 16 14 12 11 11 11 11 11 11 10 9 9 9 8 7 6 5 6 7 7 8 8 8 9 9 9 9
24 26 26 25 27 28 27 26 23 21 21 20 19 18 17 16 13 11 10 9 10 11 12 11 10 9 9 9 9 8 7 5 5 6 7 7 7 7 8 8 9 10
20 23 23 24 27 29 28 25 23 22 22 21 20 18 17 15 14 12 11 11 11 11 10 9 9 8 8 7 7 7 7 6 5 6 7 8 7 6 6 7 8 9
20 23 25 26 29 29 27 24 23 23 21 19 17 16 14 13 14 14 13 13 12 10 9 9 8 8 7 7 6 6 6 6 5 5 6 7 7 6 6 6 7 7
20 22 24 24 24 23 21 18 16 15 13 11 12 13 13 14 16 15 13 12 12 10 9 9 8 8 7 7 6 6 6 6 5 5 5 6 6 7 7 7 7 7
17 19 19 18 17 15 13 11 11 12 12 12 11 12 13 15 15 14 12 11 11 10 9 8 8 7 7 6 6 5 5 5 5 5 6 6 6 7 8 8 8 8
13 14 15 16 16 15 13 12 12 13 15 15 15 15 14 14 13 12 11 11 10 10 9 8 7 7 6 6 6 5 5 5 6 6 7 7 7 8 8 8 9 9
13 12 13 14 14 14 13 12 14 15 16 15 14 13 12 12 11 10 10 10 10 9 9 8 8 7 7 7 7 6 6 7 7 7 8 9 9 9 9 10 10 11
14 14 14 14 13 13 12 12 13 14 14 13 12 11 11 11 12 11 10 10 10 10 10 9 8 8 8 8 8 8 8 9 8 9 10 11 12 12 12 13 14 14
17 16 16 15 14 14 14 13 12 12 12 11 9 8 7 8 8 8 8 8 8 8 8 7 7 7 8 8 8 8 9 9 9 9 11 12 12 13 13 14 15 16
18 17 17 16 15 15 14 14 13 12 11 10 9 8 6 5 5 4 4 4 4 4 5 5 6 7 7 8 8 9 9 10 10 10 12 12 12 13 13 13 15 16
16 16 15 14 13 13 12 12 11 10 9 8 8 7 6 5 5 4 4 4 5 5 6 7 8 9 9 10 11 12 12 13 14 14 16 16 16 16 17 17 17 18

ECMWFNIL_850_spd_051.txt.gz
Wind_Speed
24 22 21 21 21 22 21 18 18 16 14 12 11 11 10 10 11 11 11 11 11 10 9 9 9 9 8 7 8 8 8 9 10 10 11 10 11 11 11 11 12 11
24 22 21 21 20 21 20 18 17 16 13 12 11 11 10 11 12 11 12 11 10 11 10 9 9 9 8 7 8 8 8 9 9 8 8 9 10 11 10 10 11 11
22 21 21 21 21 22 20 19 18 15 13 12 11 11 11 12 12 11 13 12 9 11 10 10 10 10 8 7 9 9 8 9 8 7 7 7 8 9 8 9 9 10
22 22 22 21 23 25 23 22 20 16 15 14 13 12 11 12 12 11 13 12 10 11 11 9 9 9 8 7 9 9 8 8 8 6 6 7 7 8 7 8 7 8
25 24 24 23 24 25 24 22 19 17 16 15 13 12 11 12 12 11 12 11 9 10 10 9 9 9 8 7 7 7 7 8 8 7 7 7 7 7 7 7 7 8
26 25 25 23 23 24 23 20 18 17 16 15 13 11 11 11 11 10 11 10 9 9 9 8 8 8 9 7 6 8 8 7 8 8 8 7 8 8 8 8 7 8
27 27 26 22 21 24 23 19 18 17 15 14 13 11 11 11 10 10 10 10 10 10 9 8 7 7 8 6 5 7 6 6 7 7 6 6 7 7 8 8 8 9
29 28 26 22 23 26 22 19 19 18 16 14 12 11 10 10 10 10 10 9 10 10 9 8 7 7 7 6 5 5 5 5 5 5 5 6 6 5 6 7 8 8
30 27 25 25 26 26 22 20 20 18 16 14 12 12 11 10 10 10 10 9 10 10 10 8 7 7 7 7 6 6 6 5 5 5 6 6 5 4 5 6 6 7
29 26 24 25 27 25 21 20 19 17 17 15 12 12 11 11 11 10 9 10 10 10 10 9 8 7 7 7 7 7 6 6 5 5 6 5 4 4 5 6 6 7
28 25 24 25 26 24 21 19 19 18 16 15 13 12 11 11 11 10 9 10 10 10 9 8 7 7 7 7 7 7 7 7 6 6 6 6 5 5 5 5 6 8
30 25 25 26 25 24 22 20 19 17 16 15 13 12 12 11 11 10 10 9 10 9 8 7 7 7 7 7 7 7 7 7 7 7 7 6 5 5 4 4 6 8
31 27 27 27 24 22 22 20 18 17 16 14 13 12 12 11 11 10 10 9 9 9 8 7 7 6 7 7 7 7 7 7 8 8 7 7 6 5 4 2 4 7
31 28 28 26 23 22 21 19 18 18 16 14 14 13 12 11 11 10 10 9 9 9 8 7 7 7 8 9 8 7 7 7 7 7 7 7 6 5 5 3 2 5
28 29 27 26 25 23 21 20 19 18 17 16 16 14 13 12 11 11 10 10 10 9 8 9 11 12 13 13 12 10 7 6 6 7 7 7 7 6 5 4 2 4
27 29 29 28 27 23 21 20 19 18 18 18 17 15 13 13 12 11 10 9 10 9 10 13 15 15 14 14 14 13 9 6 6 6 6 7 7 7 7 6 5 5
28 28 28 29 27 23 21 20 18 18 18 17 16 15 13 12 11 10 10 11 11 9 10 12 12 12 13 14 14 14 12 8 5 5 6 6 7 8 7 7 6 6
27 27 27 27 24 22 22 22 22 22 21 20 19 18 16 14 13 13 14 14 13 10 9 9 8 8 8 9 10 11 11 9 5 4 6 6 6 7 6 7 8 7
29 29 29 29 28 25 24 24 25 25 23 23 21 19 17 14 14 16 16 13 10 10 10 9 8 7 6 6 6 6 8 8 5 3 5 5 6 6 6 6 7 7
28 28 27 27 28 27 24 25 25 23 22 21 18 17 15 11 11 14 14 11 10 10 10 8 7 7 6 6 6 5 6 7 6 4 5 5 5 6 6 6 6 6
24 23 22 22 22 22 21 23 24 22 19 18 17 16 13 12 13 14 13 13 12 11 10 9 8 7 6 6 6 5 6 5 5 5 5 5 5 6 6 6 6 6
20 19 19 19 19 18 16 17 19 19 16 15 17 17 14 15 16 16 14 14 13 12 11 9 8 8 7 7 7 6 6 6 6 5 5 5 6 6 6 6 7 8
16 16 17 16 17 17 15 13 14 15 15 15 17 16 14 15 16 15 14 14 12 11 10 9 9 9 8 8 7 7 7 7 5 4 5 6 6 7 6 5 8 11
13 13 14 15 16 17 16 14 13 14 15 16 16 16 15 14 13 12 12 11 10 10 10 10 10 10 9 9 9 8 9 9 6 3 4 5 5 7 6 6 10 14
14 14 15 16 17 16 16 16 15 15 16 15 15 14 13 13 12 11 11 10 9 9 9 9 9 9 9 8 7 7 8 8 7 4 4 6 6 6 6 6 10 15
14 14 14 15 16 16 15 15 15 14 14 14 13 12 11 11 10 9 8 8 8 8 7 7 7 7 7 6 7 7 7 8 10 9 10 11 11 11 10 8 9 15

ECMWFNIL_850_spd_054.txt.gz
Wind_Speed
24 22 22 22 22 21 19 17 17 16 15 14 13 12 11 12 12 12 12 12 10 8 8 8 8 8 7 5 6 6 6 6 6 6 7 7 8 8 7 7 8 8
26 24 22 23 23 21 19 18 17 16 14 13 11 9 9 10 11 12 12 12 11 10 9 8 7 7 6 6 5 5 5 5 5 5 5 6 7 8 7 7 8 9
28 26 25 26 24 22 20 18 17 16 14 12 11 11 11 10 11 12 11 11 11 11 10 9 8 6 5 5 5 5 5 4 4 4 4 5 6 6 7 7 8 8
30 27 26 25 26 24 21 19 19 17 15 14 13 13 13 11 12 12 11 11 10 11 11 9 8 7 6 4 6 5 5 5 4 4 3 4 5 5 5 6 6 6
32 29 26 25 25 24 22 22 21 19 17 16 16 14 13 12 11 11 12 12 11 11 12 10 8 8 8 6 6 4 5 5 5 5 4 4 5 5 4 5 6 6
33 32 29 26 25 26 26 25 23 20 19 19 18 15 12 11 10 10 11 11 9 10 10 9 7 6 7 5 4 4 6 5 4 5 5 4 5 5 4 5 6 6
34 34 32 28 27 28 28 26 22 21 20 19 17 14 11 11 10 11 12 9 7 8 7 6 5 5 7 5 3 5 5 5 5 5 5 4 4 5 5 5 5 5
34 36 35 30 28 28 27 25 22 21 20 18 15 12 11 11 10 10 11 9 8 7 6 5 4 4 6 5 3 4 3 5 4 3 5 3 4 3 4 3 5 7
34 36 36 32 31 29 27 26 23 21 20 17 14 13 12 12 10 9 10 9 8 7 6 6 5 4 6 6 4 3 3 5 5 5 6 7 4 1 1 2 2 6
34 35 35 34 33 32 29 27 24 21 19 17 14 14 13 11 9 9 10 9 8 8 7 7 5 5 7 6 4 4 4 5 6 5 7 7 1 3 2 3 3 3
35 35 34 34 35 33 30 28 25 21 19 17 15 15 15 12 10 9 9 9 10 9 8 7 5 5 6 6 5 5 5 4 5 5 5 5 4 4 4 1 4 3
35 34 33 33 34 33 30 27 24 22 19 16 14 14 15 14 12 10 9 8 10 9 7 6 6 5 6 5 5 5 6 5 4 5 6 4 5 5 3 1 3 3
33 32 32 32 33 32 29 25 23 22 19 15 14 13 13 13 12 10 10 9 9 8 7 6 7 8 8 7 6 5 6 6 5 6 6 3 3 3 2 1 1 3
31 31 31 31 31 29 27 24 21 20 18 15 14 13 12 12 11 11 11 10 9 8 9 10 10 10 10 10 9 7 7 6 6 7 6 4 5 4 1 1 2 4
30 29 30 31 31 28 26 24 21 18 17 15 14 14 12 12 12 11 11 11 10 11 13 13 12 11 11 11 10 9 9 6 6 8 6 4 5 4 1 1 4 5
31 28 30 32 31 28 26 23 21 18 17 15 14 13 13 13 12 12 11 11 13 14 13 12 12 10 11 12 10 10 10 8 6 7 6 4 4 4 2 2 5 6
30 30 31 30 27 26 24 21 19 18 18 17 15 14 15 15 15 14 14 14 15 15 13 12 12 11 11 12 11 10 9 8 6 5 5 5 4 4 3 2 4 5
28 30 30 28 25 23 20 18 17 16 18 19 17 17 18 18 17 16 16 15 14 12 10 10 11 11 12 12 13 12 10 9 7 5 4 4 4 3 3 3 6 7
27 28 28 28 26 23 20 20 21 20 22 23 22 21 21 20 18 17 16 15 12 8 7 7 7 8 9 11 13 13 12 9 6 5 4 3 4 4 3 4 6 5
26 26 26 26 26 25 25 26 28 27 26 27 25 23 22 20 19 17 16 14 10 7 6 6 7 6 6 8 9 9 11 10 7 7 5 2 4 6 6 5 8 7
23 23 24 25 25 27 29 30 31 29 28 26 25 23 21 20 18 16 15 13 10 8 7 6 6 7 7 7 7 7 9 9 7 7 7 4 4 7 6 4 6 6
21 22 23 24 26 28 30 29 29 28 27 24 22 20 19 18 15 13 12 12 11 10 9 6 6 7 6 7 6 6 8 8 6 6 6 5 4 6 5 4 5 6
21 21 21 22 23 24 24 23 23 22 21 18 17 17 16 12 9 8 8 9 11 12 10 8 7 7 7 7 7 7 7 7 5 3 2 2 1 2 3 4 5 7
20 21 21 20 19 18 18 18 17 16 14 12 12 13 13 11 9 6 6 8 11 12 11 10 9 9 8 8 8 8 8 7 6 5 3 2 1 2 3 4 5 7
13 14 16 17 17 16 14 14 15 15 13 12 12 13 14 12 9 8 10 10 11 12 11 10 10 9 9 9 8 8 8 8 8 7 6 6 6 4 1 3 5 7
9 9 10 12 13 13 12 11 13 14 14 13 14 14 14 13 12 11 11 10 11 11 9 9 8 8 8 8 8 8 8 8 8 9 9 8 8 8 4 3 6 8

ECMWFNIL_850_spd_057.txt.gz
Wind_Speed
26 26 25 24 23 22 21 22 22 22 22 21 19 19 18 17 17 16 14 15 15 14 14 15 14 13 12 11 11 11 11 11 12 12 11 11 11 11 10 11 12 12
29 27 25 25 25 23 22 22 21 21 21 20 18 17 16 16 16 15 14 15 15 13 13 14 13 13 12 11 10 10 10 10 10 10 11 11 11 11 10 11 12 13
30 28 26 26 26 25 24 23 22 20 19 19 17 15 15 16 16 16 16 17 16 14 14 13 13 13 13 12 11 10 10 9 10 10 9 10 11 11 11 10 11 12
30 29 26 25 26 26 26 25 23 21 19 18 16 14 15 15 15 17 18 18 17 16 14 13 13 13 12 12 11 11 11 9 9 9 8 9 10 11 12 10 10 11
30 30 27 25 26 27 27 26 25 23 21 18 16 15 15 14 16 17 17 17 17 16 14 13 14 13 11 10 9 10 12 10 9 9 9 9 10 10 11 10 11 11
30 30 28 26 27 28 27 26 26 25 22 19 17 17 15 14 15 17 17 16 16 14 13 14 15 15 11 9 7 9 11 10 9 10 10 10 10 10 10 10 10 11
31 30 28 27 28 29 28 27 26 25 23 20 18 18 16 15 15 17 17 16 13 12 13 13 14 14 11 8 7 9 10 9 10 10 10 10 9 10 10 9 9 10
31 30 28 28 29 30 30 29 28 26 23 21 20 18 15 14 15 16 15 13 11 12 13 11 11 12 11 7 6 7 9 9 9 10 10 8 6 7 9 9 9 10
31 30 29 28 30 32 32 31 29 26 23 22 20 17 15 14 15 16 15 11 11 12 12 9 7 9 11 9 5 6 10 11 9 9 9 7 3 4 7 7 8 11
32 31 29 30 32 33 33 32 29 25 24 22 18 16 16 15 16 17 16 12 12 13 12 8 6 9 12 9 6 8 12 12 9 8 9 7 3 5 7 6 6 9
33 31 31 33 34 34 34 33 30 26 24 21 18 17 18 16 16 18 16 13 13 13 13 8 6 11 13 9 7 10 11 10 8 8 9 8 5 5 8 7 4 3
34 33 34 36 35 33 33 33 30 27 25 21 19 21 20 17 17 20 18 15 13 13 13 9 7 12 14 10 9 10 9 9 10 9 8 8 7 5 6 5 2 0
36 36 36 36 34 31 31 31 29 26 24 21 22 22 20 17 17 19 19 17 15 14 13 9 9 13 13 10 11 11 9 9 11 10 8 7 8 7 5 4 1 1
37 39 35 31 31 30 29 29 27 25 24 23 24 22 19 18 18 19 19 18 16 14 12 10 11 13 12 10 11 11 11 10 11 11 9 8 8 7 5 4 2 1
37 39 34 29 31 31 28 28 27 25 24 24 23 21 18 18 19 20 20 18 16 14 12 12 13 12 11 11 10 11 11 11 12 11 9 9 7 4 3 2 2 1
36 37 33 30 32 31 28 27 27 26 24 22 21 20 19 18 20 21 20 18 16 15 14 14 13 12 12 11 10 11 11 11 13 11 8 8 6 4 3 2 2 2
36 37 34 30 30 29 28 29 29 27 24 22 21 22 21 19 20 21 20 18 17 16 15 15 14 12 13 12 10 11 12 11 12 12 9 7 6 5 5 3 2 1
33 35 34 30 29 30 31 31 30 28 26 23 24 24 21 20 20 19 18 18 18 17 14 14 13 13 13 13 11 11 12 11 11 12 10 7 6 5 4 3 2 1
29 31 32 30 30 31 32 31 30 28 26 24 24 23 21 20 20 18 17 17 17 15 13 12 12 12 13 14 12 12 12 11 10 11 10 8 5 3 4 4 4 2
28 28 30 32 32 32 31 31 30 28 26 25 24 23 21 21 20 18 17 16 15 12 11 11 11 12 13 14 14 14 14 12 10 10 10 8 7 6 7 8 7 5
30 30 30 32 32 31 29 29 27 26 27 26 23 20 21 21 19 18 17 15 13 11 11 12 12 12 12 13 15 16 16 14 12 11 10 9 10 9 8 8 8 8
29 32 32 30 30 29 27 25 24 24 25 24 21 21 23 22 20 18 16 14 13 12 12 13 13 12 12 12 12 14 16 16 13 11 10 9 9 9 8 8 8 7
29 31 31 30 29 28 26 25 24 24 24 23 23 23 23 22 20 18 16 14 14 14 13 13 12 13 13 12 11 11 14 14 12 11 10 9 9 8 8 9 9 8
27 29 30 29 27 27 27 26 26 26 25 24 26 26 23 20 17 14 13 13 13 13 13 13 13 13 12 12 11 11 12 11 10 11 11 9 9 9 8 9 9 9
20 25 27 27 26 26 26 26 26 26 24 23 23 23 20 15 11 10 11 12 13 14 14 13 12 12 12 12 12 11 12 11 10 9 10 9 9 10 10 10 9 9
14 17 20 21 21 20 20 19 19 19 19 19 18 15 12 9 8 9 11 11 12 14 13 11 10 11 11 11 11 11 12 12 12 11 10 10 10 10 10 10 10 10

ECMWFNIL_850_spd_060.txt.gz
Wind_Speed
24 24 24 24 26 26 26 27 27 26 26 25 23 23 23 21 19 19 18 17 17 17 18 19 19 18 16 15 16 17 16 16 17 17 16 16 16 15 14 15 15 14
25 26 25 23 25 27 27 27 27 26 26 24 23 23 22 21 19 18 18 18 18 18 19 19 18 17 16 15 16 17 16 16 16 17 17 16 16 15 14 15 16 15
26 26 25 23 25 27 27 27 28 26 25 24 23 23 22 20 20 19 19 19 19 19 20 20 18 16 16 16 16 16 16 16 16 17 17 16 16 15 14 15 15 15
26 26 26 25 25 27 29 29 29 28 27 26 24 23 22 21 21 20 19 19 20 20 20 20 18 17 16 16 16 17 16 17 17 17 17 17 16 14 15 15 15 15
26 26 27 27 27 29 31 31 32 31 30 28 25 23 21 21 21 21 19 19 20 20 19 19 18 18 17 16 16 16 16 17 17 16 16 16 16 15 15 16 15 16
25 26 27 28 28 31 33 33 33 33 31 28 25 22 20 20 21 20 20 21 21 19 18 18 18 18 18 17 15 15 15 16 16 16 16 16 15 15 15 16 15 15
25 25 27 27 29 33 34 32 30 30 29 27 25 22 20 21 21 21 22 22 21 19 16 17 19 19 19 16 14 13 14 15 15 15 15 14 15 15 14 15 15 14
25 25 27 27 30 33 32 29 28 29 29 27 25 23 22 21 21 22 23 23 21 18 16 17 18 18 17 15 13 13 15 16 15 14 15 14 14 14 13 13 13 14
26 25 27 27 29 31 31 29 29 30 30 28 25 23 22 20 20 22 23 22 20 18 17 19 19 17 16 14 12 14 16 16 15 14 14 14 13 12 12 12 13 13
26 26 27 27 28 29 29 28 28 29 29 27 24 23 21 18 19 21 22 20 18 19 19 20 19 18 16 13 12 14 16 15 15 15 14 12 10 10 11 12 12 13
25 26 26 26 27 28 28 26 26 26 28 27 24 22 20 18 20 21 21 19 19 20 19 17 17 19 17 13 12 14 15 15 15 16 14 11 9 10 11 9 9 10
26 26 25 26 28 29 27 26 26 26 27 27 24 21 19 20 22 22 20 20 20 20 18 14 16 19 17 14 15 16 16 15 15 15 13 12 10 10 10 8 6 6
26 26 26 27 30 30 28 26 27 27 27 27 23 21 20 22 24 21 20 21 20 20 18 14 16 20 18 16 18 18 16 14 15 14 13 13 11 9 10 9 5 5
26 28 28 29 30 30 29 28 29 29 28 26 22 21 22 24 25 22 21 21 20 21 19 15 16 20 18 17 18 17 16 15 15 14 13 13 11 9 9 8 6 4
26 29 29 29 31 31 30 30 31 30 28 25 23 23 24 26 26 23 22 22 21 22 19 15 17 20 18 17 18 16 16 16 15 14 14 13 12 11 9 7 6 4
27 29 30 31 32 32 31 32 31 30 28 27 27 26 26 28 27 24 22 21 22 22 18 15 18 20 17 17 17 17 17 17 17 15 15 14 13 13 10 7 7 4
26 28 31 33 33 31 32 32 31 29 29 31 32 30 28 29 29 26 23 21 22 22 17 16 19 19 17 17 17 17 17 18 18 17 16 13 13 13 10 8 8 6
22 24 29 34 34 31 32 34 33 31 31 33 35 33 31 30 29 28 25 21 22 21 18 18 19 18 17 17 18 17 17 17 18 17 15 13 11 11 10 9 9 7
19 22 27 34 34 31 32 36 35 32 31 34 34 33 32 30 28 28 25 22 22 21 20 20 19 18 17 17 17 18 17 17 17 16 15 12 11 11 11 11 10 7
19 20 26 34 35 33 35 37 36 34 33 34 34 31 31 30 27 27 25 22 22 21 21 20 19 18 17 16 17 18 17 16 16 16 15 14 13 14 13 12 10 8
19 22 25 32 34 35 38 38 36 36 35 34 34 32 31 30 27 25 24 22 22 21 20 19 18 17 18 17 17 18 17 16 16 15 15 15 15 15 14 13 11 10
18 20 23 29 32 34 36 36 35 36 36 34 34 33 31 29 27 25 24 23 21 18 17 17 18 18 19 19 19 18 17 17 16 15 16 16 16 16 15 14 13 12
16 19 21 26 30 32 34 35 35 34 35 35 34 32 30 29 27 25 24 22 20 17 15 16 18 19 19 20 20 20 18 18 18 17 16 16 16 16 16 15 14 12
13 17 20 25 30 32 32 34 34 33 34 34 34 32 30 29 27 26 24 21 19 18 16 17 18 18 17 18 20 20 19 18 17 17 16 15 15 15 14 14 14 13
15 16 20 24 30 33 32 31 31 30 29 30 31 32 31 29 28 26 24 22 21 20 19 18 19 19 17 17 18 18 18 18 17 16 16 15 14 14 14 14 14 13
15 15 19 23 27 31 32 30 29 27 27 27 28 29 29 28 27 26 25 24 23 22 21 19 19 20 19 17 17 16 16 16 15 15 15 16 15 15 15 14 14 13

ECMWFNIL_850_spd_063.txt.gz
Wind_Speed
29 28 26 24 24 23 23 23 23 24 26 27 26 25 25 25 24 24 24 22 21 22 23 22 21 20 21 21 20 19 19 19 19 18 18 18 17 17 17 16 14 15
30 29 27 25 24 23 24 25 24 25 26 27 27 26 25 26 25 24 24 22 21 22 23 23 21 21 21 21 21 20 20 20 19 18 18 18 18 17 17 16 15 15
31 30 28 26 24 23 23 24 25 25 27 28 29 28 26 26 26 25 23 22 21 22 23 23 22 21 21 21 20 20 20 19 18 18 19 19 18 16 16 16 16 16
29 28 27 26 25 23 22 24 25 25 27 29 30 29 27 26 26 25 24 23 22 22 23 23 23 22 21 20 19 19 20 19 18 18 19 19 18 16 16 16 16 16
26 27 26 26 25 23 22 24 25 26 26 26 27 27 26 26 26 25 24 23 22 23 23 23 23 22 20 19 18 18 19 19 18 18 19 19 18 17 16 16 15 15
25 27 27 26 26 23 22 24 25 25 24 24 24 25 25 25 26 26 24 22 23 23 23 24 23 22 20 19 19 18 18 18 19 19 19 18 18 17 17 16 16 15
24 25 25 26 27 22 19 22 23 22 22 22 23 24 25 25 26 26 24 22 23 24 23 23 23 22 21 20 20 19 19 19 19 19 19 18 18 18 18 17 17 16
23 23 22 23 26 22 19 21 21 21 22 22 22 24 25 25 27 27 25 23 23 23 23 23 23 23 22 21 21 20 20 20 19 19 19 19 19 18 18 18 17 17
24 23 20 20 22 22 22 22 21 22 23 23 23 24 25 25 27 28 25 23 23 23 23 23 23 23 23 22 22 21 20 20 20 19 19 19 18 17 16 16 17 17
22 22 20 19 19 20 21 22 20 21 23 23 24 25 25 25 26 27 25 23 23 23 22 22 22 23 23 22 22 20 20 20 20 19 18 18 17 15 15 15 15 15
16 17 18 19 19 19 20 21 22 23 24 24 25 26 25 24 25 26 25 24 25 24 21 20 21 22 22 21 20 18 18 19 18 18 17 16 15 14 13 14 13 14
16 15 16 19 21 20 18 21 23 25 25 26 27 27 25 23 24 25 25 25 25 23 21 20 21 21 20 19 17 17 17 17 17 17 16 15 14 14 13 13 12 12
17 14 14 17 21 21 19 20 24 25 26 27 28 28 26 23 24 25 26 26 24 22 21 22 22 21 19 18 17 16 17 18 17 17 16 15 14 14 13 12 10 9
18 15 13 15 18 21 21 22 23 24 26 28 29 29 27 25 26 28 27 26 25 23 23 22 22 22 20 19 17 16 18 18 17 18 18 16 14 13 13 11 9 8
19 17 15 14 15 18 21 23 22 24 26 29 30 30 28 26 26 28 27 26 26 25 23 21 20 21 21 19 18 18 18 18 16 17 17 15 14 13 13 12 10 9
18 16 14 14 15 17 20 22 22 24 26 29 32 31 29 26 26 27 26 26 26 25 23 19 19 21 21 20 19 19 19 18 16 16 16 15 14 13 13 13 11 9
21 18 13 14 16 16 20 23 23 25 27 30 34 33 30 28 29 30 28 27 26 25 23 20 20 22 21 20 20 19 18 18 17 16 15 15 14 13 13 12 11 10
26 21 15 14 15 15 20 25 26 26 28 33 37 36 33 31 31 31 30 29 27 26 24 21 20 23 22 19 19 18 17 17 16 16 16 15 15 14 14 12 10 10
27 24 18 15 16 15 19 26 29 29 32 37 38 37 34 32 33 33 32 31 29 28 25 21 20 23 22 19 19 18 17 17 17 17 17 16 16 15 14 12 11 10
25 23 19 15 16 17 20 27 32 33 36 39 38 38 36 34 35 36 34 32 31 30 26 22 21 23 21 20 20 19 19 19 18 18 19 18 17 15 14 13 13 11
23 20 14 12 15 20 25 31 35 35 38 40 38 40 40 39 38 37 34 33 33 30 27 23 22 23 22 20 20 20 20 20 19 19 19 18 17 17 16 15 14 12
24 19 11 8 13 19 26 33 39 38 40 43 42 41 42 42 39 36 34 34 32 30 27 24 24 24 22 21 21 21 21 20 19 19 19 18 18 18 18 17 16 12
28 22 11 3 8 15 19 26 36 41 40 39 39 39 40 41 38 36 35 34 32 29 27 26 26 25 22 21 21 20 21 21 20 19 18 19 19 20 20 19 17 14
29 26 16 4 6 11 13 17 28 38 38 34 35 37 39 39 37 36 35 33 31 29 27 27 27 24 22 21 20 19 19 21 20 19 18 20 21 21 21 20 18 16
25 27 22 11 5 11 10 12 21 33 35 34 35 36 37 37 36 35 35 32 30 29 27 26 25 24 23 22 20 19 18 19 19 19 19 20 22 22 22 21 19 17
20 23 24 19 11 11 13 13 20 29 34 35 36 35 34 34 33 33 32 30 28 26 24 23 23 23 23 22 21 20 18 18 18 19 19 20 21 21 21 20 19 18

ECMWFNIL_850_spd_066.txt.gz
Wind_Speed
22 20 20 21 21 22 24 26 27 25 24 24 22 21 23 23 21 21 21 21 21 22 22 22 22 22 22 22 21 21 19 19 18 18 17 16 16 16 15 14 13 13
19 18 19 21 23 24 24 26 27 25 24 25 21 17 19 19 18 19 20 21 21 22 22 23 22 22 22 22 21 20 20 19 19 18 17 17 16 17 16 14 14 14
17 16 16 20 22 23 24 25 27 26 24 25 21 15 15 16 16 19 20 21 22 22 23 23 22 22 22 21 20 20 20 20 19 18 17 16 17 17 16 15 15 15
15 15 16 18 19 21 23 24 25 26 26 26 22 17 15 14 15 18 20 22 22 22 22 22 22 23 22 20 20 20 20 20 19 18 17 17 17 17 16 15 16 16
15 16 17 18 18 19 22 24 24 24 25 25 23 19 15 13 15 18 20 22 22 22 21 22 22 22 21 20 20 21 21 20 19 18 18 18 18 17 16 16 17 17
17 17 18 19 19 20 22 23 23 23 23 23 21 18 16 14 15 17 20 21 22 22 22 22 23 22 21 21 21 21 20 19 19 19 19 19 18 18 18 17 17 16
16 15 16 18 19 20 22 22 22 22 22 21 19 18 16 15 17 18 19 20 21 22 22 22 21 20 21 21 21 21 20 19 20 20 19 18 18 19 19 19 17 16
14 13 13 16 18 18 20 21 22 21 20 21 19 18 17 16 18 18 19 20 21 21 21 21 20 20 21 22 21 21 20 20 19 19 19 19 18 19 20 19 18 17
15 13 13 16 18 17 18 20 21 20 19 20 19 18 17 17 18 19 20 21 21 21 21 21 21 21 22 23 22 21 21 20 19 19 19 19 19 19 20 19 19 19
15 14 14 15 16 16 16 18 20 20 20 20 20 19 19 19 19 20 21 22 23 22 22 22 23 22 23 24 23 22 21 20 20 19 19 19 18 18 19 19 19 19
16 15 15 15 14 14 15 16 18 21 20 21 21 21 21 21 21 22 22 23 24 24 22 23 23 22 23 24 23 22 21 20 19 19 18 18 18 17 18 18 18 18
15 15 15 16 15 15 16 16 17 19 19 19 20 21 22 22 22 23 23 23 24 22 22 24 22 21 22 24 23 22 22 20 20 19 19 18 17 17 17 17 16 15
15 15 15 15 15 16 18 18 18 18 18 18 20 22 23 24 24 24 23 23 22 21 23 24 22 21 22 23 23 22 22 21 20 20 20 19 18 17 17 16 15 14
16 15 15 14 13 16 18 20 20 20 19 18 20 24 25 24 24 24 24 24 22 22 25 24 22 22 22 22 22 22 22 21 20 20 20 19 18 18 17 16 15 13
20 17 16 15 12 14 17 19 20 20 20 19 21 26 27 26 25 25 26 25 24 24 25 24 23 23 23 22 22 22 22 21 19 19 19 19 19 18 17 16 14 13
24 18 16 15 13 12 14 17 19 19 20 21 23 28 29 29 28 28 27 26 24 25 26 24 23 23 23 23 23 22 21 21 20 19 18 18 19 18 18 17 15 14
27 22 19 18 14 11 13 15 17 18 19 20 24 28 30 30 30 30 29 27 26 27 26 24 24 24 24 25 24 22 21 21 20 19 19 20 19 18 18 17 16 14
32 26 22 20 16 10 10 12 14 16 18 21 25 29 30 32 32 31 30 29 28 28 26 24 24 24 24 25 24 23 22 20 19 19 20 21 20 19 18 17 16 14
35 31 26 23 19 13 9 10 13 16 18 22 27 31 32 33 34 33 31 30 29 28 26 25 25 24 23 24 23 23 22 21 20 19 20 21 20 19 17 17 15 13
36 34 31 27 22 18 13 10 13 17 21 25 30 33 33 32 33 33 31 31 31 29 28 28 27 24 23 23 23 23 23 22 21 20 20 20 20 19 18 17 15 13
36 35 34 32 27 23 17 13 15 19 23 28 31 32 30 31 34 33 32 33 32 30 30 30 28 25 24 25 24 24 23 22 21 21 20 20 20 20 19 17 16 14
35 35 35 34 31 26 20 16 16 20 24 27 29 31 32 33 36 35 33 33 33 32 33 32 29 26 26 26 26 24 22 21 21 20 21 21 21 20 19 18 16 14
32 34 35 35 33 29 23 17 14 17 22 24 25 30 36 37 38 38 36 35 35 35 34 33 30 27 27 27 26 25 22 21 21 21 21 22 22 21 20 18 17 15
29 31 33 35 35 31 25 19 13 11 15 18 18 24 33 36 36 37 37 35 36 37 35 33 32 29 28 28 27 26 23 22 22 21 20 21 22 22 21 20 18 17
26 28 29 32 33 31 26 19 12 7 6 10 11 15 24 30 31 32 32 30 30 32 32 33 32 30 29 29 28 27 24 23 22 21 20 21 21 21 21 20 19 18
24 25 27 30 31 28 25 19 12 6 2 7 10 12 17 23 24 25 26 26 25 26 27 28 29 29 28 27 26 25 24 22 22 22 21 20 20 21 22 22 21 19

ECMWFNIL_850_spd_069.txt.gz
Wind_Speed
16 15 14 13 12 10 9 11 12 12 12 11 11 11 12 13 13 14 17 22 24 25 25 24 24 25 25 25 26 27 26 25 25 23 21 20 20 19 19 20 19 17
13 11 10 9 9 8 7 7 10 13 14 13 12 12 13 13 12 13 16 21 24 25 26 26 25 25 25 25 27 27 26 26 25 23 21 21 20 21 21 20 19 18
11 10 10 10 9 9 8 7 8 11 13 14 13 13 12 12 12 13 15 19 22 24 26 26 24 24 25 25 26 27 26 25 24 23 21 21 21 21 22 21 20 19
11 12 11 12 12 11 11 10 10 11 13 14 14 12 12 12 13 13 15 18 21 23 25 25 24 24 25 25 25 27 26 24 23 22 21 21 21 22 22 21 20 19
12 12 12 12 12 13 13 12 11 13 14 15 15 13 12 12 13 14 16 18 20 22 23 23 23 23 24 25 26 27 27 25 24 23 22 21 21 21 21 20 18 17
12 12 10 10 11 12 14 14 13 14 16 16 15 14 12 12 13 14 16 18 19 20 22 22 22 23 24 25 27 27 26 25 25 23 22 21 21 21 21 19 18 17
15 13 11 10 11 11 12 14 14 15 16 16 15 15 13 13 13 14 17 19 19 20 22 23 22 22 23 25 28 28 26 25 24 23 21 21 20 20 20 19 18 17
14 15 15 15 14 12 12 13 14 15 16 16 16 15 14 13 13 15 18 20 20 21 22 22 22 22 22 24 26 26 24 23 23 22 21 21 20 19 19 19 19 18
14 14 15 16 17 16 13 13 14 15 16 17 17 16 15 14 14 16 20 22 22 22 22 22 22 22 22 23 24 24 23 22 22 21 21 21 20 19 19 20 20 19
14 15 15 15 16 17 15 14 14 15 16 17 16 16 16 15 15 17 21 23 23 23 23 23 23 22 22 22 23 23 22 22 21 20 21 21 20 20 20 20 20 20
15 15 15 14 15 15 16 15 15 15 16 16 16 17 17 17 16 17 20 23 24 24 24 24 23 23 22 22 22 22 21 21 20 20 20 20 20 20 20 20 20 20
19 16 14 14 14 14 15 16 16 17 17 17 17 18 18 19 19 19 20 22 23 24 25 24 24 24 23 22 22 22 22 21 21 20 20 20 21 21 20 20 19 20
24 20 16 14 13 13 13 15 17 19 18 18 19 19 19 20 20 21 22 23 23 25 26 25 25 25 23 22 23 23 23 23 22 21 20 20 20 20 20 19 19 20
27 25 20 15 13 12 13 15 17 19 20 20 21 22 21 21 21 22 23 24 24 25 26 27 26 25 24 23 24 25 24 23 22 21 21 21 20 20 20 20 19 19
28 28 25 18 13 12 12 14 16 18 21 22 22 23 23 22 22 22 23 25 26 26 27 27 26 25 25 24 25 26 24 23 22 21 21 21 21 20 20 19 19 19
29 29 29 23 15 12 12 13 15 16 19 21 22 23 23 23 23 23 24 26 27 28 28 28 27 26 25 25 25 25 24 23 22 22 21 22 21 21 20 20 19 19
30 31 31 28 21 14 12 13 13 14 16 18 21 21 20 21 22 23 25 27 27 28 29 28 28 26 25 26 25 24 23 22 22 22 22 22 22 22 22 21 19 19
32 32 32 32 29 21 14 12 11 12 14 16 18 19 18 18 20 22 25 28 29 29 29 28 27 25 26 26 25 24 23 21 21 22 22 22 22 22 22 21 20 19
32 33 33 33 33 29 21 15 12 11 12 14 16 17 17 17 19 20 23 27 28 28 27 26 26 26 26 26 24 23 22 22 22 22 22 22 23 23 22 21 21 20
32 34 35 34 33 32 28 21 16 14 13 14 14 16 17 18 20 22 23 24 26 27 25 24 25 26 27 25 23 22 22 23 22 22 21 22 23 23 22 21 21 21
33 35 36 35 34 33 32 28 22 17 16 16 16 16 18 19 21 23 23 23 24 26 26 25 27 29 27 24 23 23 23 23 22 22 21 22 23 23 22 21 21 20
34 35 36 36 35 34 35 33 29 24 20 19 19 18 18 19 21 22 24 25 26 27 28 28 30 30 27 24 23 23 23 23 23 22 21 21 22 22 22 21 20 20
31 34 36 36 36 35 35 34 32 29 26 24 22 20 18 17 18 21 24 27 28 29 30 30 31 29 26 24 24 23 23 24 23 23 22 21 21 22 23 22 21 20
29 31 33 35 34 33 33 32 31 29 28 25 22 18 15 13 14 16 19 22 26 30 32 31 31 29 28 27 25 23 23 23 23 23 22 21 22 22 22 22 21 20
28 28 30 31 31 30 29 27 26 25 23 21 18 13 10 7 6 9 11 13 19 26 31 32 30 29 29 28 27 25 25 23 23 22 22 22 22 22 22 22 21 21
27 26 28 29 29 28 27 24 23 22 20 18 15 11 9 10 8 3 4 7 9 16 24 26 24 25 28 28 26 25 25 24 22 22 22 22 22 22 22 23 22 21

ECMWFNIL_850_spd_072.txt.gz
Wind_Speed
12 11 11 11 11 10 9 10 11 11 11 9 8 8 8 10 11 12 14 15 16 17 18 20 21 22 25 26 26 26 26 25 24 25 25 24 23 24 23 22 21 18
10 9 8 9 10 10 10 10 11 11 11 10 9 8 10 11 11 12 14 15 17 18 18 19 19 21 24 26 26 26 25 24 23 25 25 23 23 24 22 22 21 19
9 7 7 8 9 10 10 10 11 11 12 11 9 9 10 11 12 12 14 16 18 19 19 19 19 21 24 26 27 27 25 23 22 24 25 25 26 25 22 22 22 21
9 7 7 8 9 10 10 11 11 12 12 11 9 9 9 11 12 13 14 16 17 19 20 21 21 23 25 26 27 28 27 24 22 24 26 27 27 25 23 22 21 20
10 9 8 8 9 11 11 11 11 11 12 12 11 10 10 11 12 13 15 16 17 18 20 21 22 24 25 26 26 27 27 26 25 25 27 27 27 25 24 23 22 21
9 9 10 10 11 11 11 12 13 13 12 12 12 12 12 12 13 14 14 16 17 18 21 22 22 24 26 26 26 26 26 27 27 27 26 26 26 26 24 22 24 24
10 9 10 11 12 12 11 12 13 13 14 14 13 13 13 13 14 15 15 16 17 18 21 22 22 24 26 27 26 26 27 27 28 28 27 26 26 26 25 25 25 24
11 11 11 11 11 12 12 13 12 13 15 15 14 13 14 14 15 15 16 16 17 19 20 21 22 24 25 26 26 26 28 28 28 29 28 27 25 25 25 25 24 23
12 11 11 11 11 11 11 13 14 14 14 15 16 15 15 15 15 14 16 17 17 19 21 22 23 24 25 25 24 25 26 27 27 28 28 27 25 25 24 22 21 23
14 12 11 11 12 12 11 12 13 14 15 15 17 18 17 17 16 15 16 17 17 19 22 23 24 25 26 25 24 24 25 26 27 27 29 28 27 26 25 23 23 25
16 15 12 11 11 12 12 12 13 14 16 16 18 19 18 17 17 17 17 17 18 20 22 23 25 26 26 26 24 24 25 26 26 28 30 29 27 26 25 22 23 25
17 17 16 14 12 12 12 12 13 14 16 17 18 18 16 16 17 18 18 18 19 20 22 23 24 25 26 27 26 25 26 26 26 27 29 27 25 25 23 21 22 23
17 18 19 18 15 14 13 13 13 14 15 17 18 18 17 16 17 18 19 20 20 20 21 21 22 25 26 27 27 26 25 25 27 27 27 26 26 25 23 22 22 21
16 17 18 19 17 15 14 14 14 14 15 15 16 17 17 17 18 18 20 22 21 21 21 21 21 23 26 27 28 26 24 25 27 27 26 26 25 23 21 21 20 20
17 17 17 19 19 16 14 14 14 14 15 14 14 15 16 16 17 17 19 21 21 20 22 23 22 21 25 29 28 26 25 26 27 27 27 25 24 23 23 22 22 23
17 18 17 18 20 19 17 14 14 14 14 13 13 14 15 16 17 18 18 19 21 21 22 24 24 23 25 28 29 27 26 26 28 29 28 25 23 23 24 24 23 24
18 19 19 18 19 21 20 17 15 15 14 13 12 13 15 16 18 19 19 19 20 20 21 23 24 25 26 26 27 27 27 28 31 30 27 24 22 23 23 23 23 23
19 19 19 19 19 21 22 21 19 17 15 13 12 13 14 16 17 18 19 20 20 20 20 22 23 25 27 26 26 27 28 30 31 29 27 25 23 23 22 22 23 22
20 20 20 20 21 22 23 25 24 21 18 15 13 12 13 15 16 16 17 18 19 19 19 20 21 24 27 27 27 27 29 32 31 27 25 26 25 23 21 20 20 20
20 21 20 21 24 23 24 27 29 27 24 20 17 14 13 13 15 15 15 15 16 17 17 17 21 25 28 29 29 29 30 33 31 25 23 25 25 23 22 20 20 20
20 20 20 22 25 26 27 30 32 31 29 27 24 21 17 15 14 14 14 14 16 18 19 19 21 24 27 30 31 31 31 32 29 26 25 26 25 23 22 21 22 23
21 20 20 22 25 27 28 31 33 33 33 31 30 27 24 21 17 14 13 14 15 18 20 21 21 22 25 30 31 31 31 31 29 28 28 26 25 24 22 22 23 23
22 21 21 22 24 25 26 30 32 33 33 32 30 28 26 24 21 18 15 13 14 16 18 21 21 21 22 27 30 30 32 33 32 30 29 27 25 24 23 23 23 22
20 20 20 21 21 21 23 26 29 31 31 31 29 26 24 21 19 18 17 15 14 14 15 18 21 21 20 24 28 30 33 35 33 32 31 28 25 24 23 23 23 23
18 18 19 19 19 19 19 21 23 26 28 29 28 27 24 19 16 15 15 14 13 13 13 15 19 20 20 23 27 31 35 36 34 33 31 27 25 25 25 24 25 26
19 18 18 18 18 18 17 18 19 22 24 25 26 27 26 23 20 17 15 13 11 11 11 11 14 17 19 21 25 30 33 32 31 31 28 25 25 26 25 25 26 27

ECMWFNIL_850_spd_075.txt.gz
Wind_Speed
7 8 10 10 10 11 13 14 15 16 16 16 17 17 17 16 15 14 14 13 14 15 16 16 18 21 23 25 25 26 27 27 29 28 24 24 24 22 22 24 24 24
7 8 8 9 9 10 13 17 17 17 17 16 17 18 19 19 17 16 14 14 14 15 17 18 19 21 22 24 25 26 28 28 29 28 26 25 23 22 23 23 23 24
8 8 9 10 10 9 12 16 18 17 17 16 18 19 20 21 20 16 14 14 15 16 17 19 20 21 22 24 24 25 28 28 29 29 27 25 24 23 24 23 23 24
10 10 10 11 12 11 11 13 15 16 16 16 17 18 18 20 20 17 14 14 16 17 17 19 21 22 23 24 24 26 28 29 28 27 26 26 25 24 24 23 24 26
12 11 11 11 13 14 13 13 13 14 16 16 17 17 17 19 20 18 15 15 17 18 19 19 20 23 24 23 24 26 28 27 27 26 26 26 24 24 25 24 25 27
13 11 11 12 12 14 15 15 14 13 14 15 15 16 17 19 20 18 17 17 18 18 20 20 20 22 24 24 25 26 27 27 25 26 26 25 24 25 26 25 25 27
15 14 13 14 14 14 14 15 17 17 16 16 15 15 16 17 19 19 18 18 19 19 19 19 20 21 23 25 27 27 29 27 24 25 26 25 25 26 26 26 26 27
16 15 15 16 15 14 15 15 17 18 19 19 19 18 16 16 18 19 19 19 19 20 20 20 20 21 22 25 27 29 30 29 26 27 27 26 26 27 26 27 27 27
17 17 16 16 17 15 15 16 17 18 18 19 20 21 19 17 17 19 20 21 21 22 23 22 21 22 22 23 26 28 29 29 29 28 28 27 28 27 26 27 27 26
18 17 16 18 18 16 16 16 16 18 19 19 19 21 21 20 19 19 21 23 24 25 25 24 23 23 24 25 27 28 27 28 29 29 28 27 28 28 27 27 27 27
19 17 17 20 20 17 17 17 17 18 19 20 21 20 21 20 20 21 22 23 24 25 25 25 24 23 24 26 27 28 27 25 26 26 26 26 27 27 26 26 27 28
20 19 20 21 21 19 19 19 19 19 20 21 22 22 22 21 20 21 22 23 24 23 22 25 26 23 23 25 26 26 24 23 24 26 26 26 25 25 25 26 27 27
21 20 21 21 20 20 20 20 20 21 21 21 22 23 23 22 21 20 20 22 24 23 21 23 25 25 25 25 26 26 23 22 25 27 27 26 24 23 25 26 27 26
20 20 20 20 20 19 19 19 20 21 21 21 22 22 23 23 22 21 20 19 21 22 21 22 25 27 27 25 25 25 25 25 27 28 27 27 26 24 25 26 26 27
20 19 20 20 20 20 20 20 20 21 21 21 21 22 22 22 22 23 23 21 19 18 19 21 25 26 25 25 23 23 24 26 28 27 25 26 25 23 24 25 25 27
20 20 20 21 21 21 21 21 21 22 22 22 21 21 22 21 21 22 22 23 21 18 17 19 23 24 24 24 24 24 24 25 27 26 24 25 26 23 23 24 25 26
20 20 21 21 22 22 21 22 22 22 23 24 22 22 21 21 21 21 21 22 23 21 20 19 21 22 24 25 25 27 28 28 28 28 26 26 27 26 24 24 25 26
20 21 21 21 22 22 22 22 22 22 25 27 25 23 23 22 21 21 20 20 21 22 22 22 21 20 22 25 26 27 29 29 29 30 28 26 28 28 26 25 26 28
20 20 21 22 22 22 22 23 23 23 25 28 28 28 27 25 23 22 20 19 19 20 20 21 23 20 19 22 25 27 29 28 28 29 28 26 28 30 28 27 28 28
20 21 21 22 22 21 22 23 24 24 24 26 28 31 32 31 28 26 23 20 18 18 19 19 21 21 19 18 22 26 28 28 28 27 26 28 29 29 29 29 29 28
20 20 21 21 21 22 22 22 22 22 23 24 25 28 32 34 33 32 30 27 23 19 17 18 20 22 22 21 22 23 25 28 29 28 28 30 29 27 27 28 27 27
20 20 21 21 22 22 22 22 22 21 21 22 22 23 27 32 34 34 34 32 29 25 20 17 18 20 23 24 24 25 25 27 29 30 28 27 27 26 26 26 26 25
21 21 21 21 22 23 22 22 23 23 22 21 21 21 23 27 31 33 34 34 32 31 27 22 19 19 20 21 23 25 26 26 29 31 28 25 25 25 23 23 26 27
21 21 21 22 23 23 22 22 22 23 24 22 20 20 20 22 24 27 32 35 34 33 31 28 24 22 20 20 20 22 23 24 26 25 23 24 26 26 24 25 26 26
21 21 22 22 23 23 23 23 21 21 23 23 21 20 19 20 20 22 28 33 34 33 32 31 28 25 23 21 19 19 20 21 20 18 19 25 28 28 28 27 25 23
20 21 21 22 23 23 23 24 22 21 22 23 23 22 21 21 21 20 22 27 31 33 33 33 31 29 27 24 21 20 18 16 14 13 19 26 28 28 28 27 25 24

ECMWFNIL_850_spd_078.txt.gz
Wind_Speed
9 9 11 12 12 11 11 11 11 12 14 17 19 19 19 19 19 20 20 19 20 21 22 22 21 20 21 21 20 21 25 26 26 26 27 27 28 29 30 29 28 29
15 12 12 12 12 12 12 13 13 12 12 15 17 17 18 19 18 18 20 20 20 21 22 23 22 21 22 22 21 22 24 27 27 26 26 26 27 30 31 30 29 29
20 17 15 14 13 14 15 16 17 15 14 14 15 16 17 17 17 17 18 19 21 22 22 23 23 22 23 23 23 24 26 27 27 26 27 27 27 29 31 32 31 30
20 19 18 18 17 17 17 17 18 18 18 18 17 16 16 16 16 17 18 19 20 22 22 23 22 22 23 23 23 26 27 27 27 27 28 29 28 28 30 31 30 30
15 16 18 20 20 20 18 18 19 19 19 19 19 19 18 17 16 16 18 19 20 22 22 23 23 21 22 23 23 24 26 25 25 25 27 29 28 28 30 30 30 29
13 14 17 19 21 23 21 20 20 20 19 19 18 19 19 19 18 16 17 19 21 22 22 24 24 21 21 23 22 21 23 24 23 24 27 29 28 28 30 30 30 29
17 16 16 18 21 23 23 22 22 22 21 20 19 19 19 20 20 19 19 19 21 22 22 24 25 24 23 23 22 21 21 23 23 25 27 28 28 28 29 29 29 29
19 19 18 19 20 21 22 23 22 22 23 22 21 21 21 20 20 21 21 20 20 22 23 24 25 26 24 23 23 23 22 23 24 26 27 28 28 28 29 29 29 28
20 20 20 21 21 22 23 23 23 23 24 24 23 22 22 22 21 20 19 19 19 20 22 22 23 25 24 24 25 24 24 24 24 25 26 27 28 28 27 28 28 28
21 19 20 22 23 23 24 24 25 25 25 25 25 23 22 22 22 22 21 18 18 19 20 20 21 22 24 24 24 24 25 25 25 25 26 25 27 29 28 26 27 28
22 21 21 23 24 25 25 24 25 26 26 27 27 25 24 22 22 24 24 21 18 18 20 20 20 23 24 24 24 24 25 25 24 25 26 26 27 29 29 29 30 30
23 23 23 23 24 25 25 25 25 26 27 27 27 27 27 25 24 24 26 25 21 18 19 19 20 22 23 23 23 24 25 26 25 24 25 25 27 29 28 29 31 32
23 23 24 24 24 24 25 25 25 26 27 28 27 27 28 28 27 26 25 26 24 20 19 19 19 20 21 21 21 21 21 23 25 26 25 24 26 27 26 26 28 30
22 22 23 24 25 25 25 26 26 26 27 27 27 28 29 29 28 28 27 26 25 22 20 20 20 21 21 22 22 22 21 20 21 23 25 24 24 24 23 24 26 27
21 22 22 24 25 26 27 27 26 27 27 27 28 29 30 30 29 28 28 27 25 22 20 19 20 23 24 24 24 24 23 22 20 21 23 25 26 26 25 25 26 26
21 22 23 24 25 26 27 27 27 27 28 28 28 29 31 32 31 31 31 30 28 25 22 19 19 23 25 26 27 27 25 25 24 23 24 25 27 27 26 26 26 25
22 23 23 24 25 25 26 27 27 27 28 28 29 30 31 32 33 34 35 35 32 30 26 21 20 22 25 27 28 29 28 27 26 25 25 26 27 26 26 24 22 23
22 23 23 24 25 26 26 26 26 27 28 28 29 30 31 32 32 33 36 38 37 35 31 27 24 23 24 26 27 28 28 27 26 26 27 28 27 25 25 25 23 23
23 23 24 25 25 26 26 26 27 28 29 30 29 28 30 32 32 32 34 38 39 38 36 33 30 27 25 25 26 27 27 27 25 25 26 28 28 25 24 25 25 25
23 23 24 25 26 27 27 27 28 29 31 32 30 28 29 31 32 32 33 35 38 39 38 37 36 33 29 25 25 26 27 27 26 25 23 25 28 27 25 25 25 24
23 24 25 26 26 27 28 29 29 29 31 33 32 31 31 31 31 31 31 33 36 38 38 39 39 37 34 29 25 24 25 27 28 27 25 24 27 27 26 26 25 23
23 24 25 26 26 27 28 30 30 29 29 31 32 33 33 32 30 31 31 32 35 37 38 39 40 39 37 36 31 25 22 23 25 26 26 26 27 26 25 26 25 24
22 23 24 25 26 27 28 29 30 30 29 29 30 32 34 34 33 31 31 31 33 35 36 37 39 40 38 38 36 30 22 19 19 20 22 24 26 26 26 26 24 24
22 22 23 24 25 26 27 28 30 30 29 28 27 29 32 34 34 32 31 32 31 31 32 34 37 39 39 38 38 35 28 20 16 15 16 18 20 21 23 24 24 25
21 22 23 24 25 26 26 27 28 30 30 28 26 27 30 32 33 32 32 31 30 30 31 34 36 38 39 39 39 38 34 28 21 16 13 11 11 12 15 18 22 26
20 21 22 23 25 25 25 26 27 28 30 30 27 26 27 29 31 31 30 30 31 31 32 34 36 38 38 38 38 37 36 33 28 23 18 13 8 7 9 13 19 23

ECMWFNIL_850_spd_081.txt.gz
Wind_Speed
17 17 15 14 12 11 9 7 8 10 12 13 14 13 12 13 12 13 14 14 14 15 15 16 17 18 19 20 20 22 23 24 23 20 19 21 22 21 22 27 28 27
15 16 17 17 17 16 14 11 9 9 11 12 14 14 13 14 13 12 13 15 15 15 15 16 17 17 18 19 19 20 21 22 22 20 20 21 22 23 24 25 28 30
13 15 16 18 19 19 17 15 12 12 11 11 12 12 13 14 13 13 13 14 15 16 16 16 17 18 18 19 20 20 20 20 20 21 22 21 22 24 25 25 27 29
13 14 15 16 17 18 18 16 15 15 14 13 12 13 13 13 13 13 14 14 15 16 16 16 17 18 18 19 20 21 21 21 21 21 22 22 23 25 26 26 27 28
15 15 15 15 16 17 18 19 18 18 18 17 16 15 14 14 13 12 12 14 16 16 17 18 17 17 17 18 19 20 21 22 21 21 21 21 21 24 26 28 29 29
16 17 18 18 18 19 21 21 21 21 20 20 19 18 17 16 15 14 13 13 14 15 16 17 18 18 18 18 19 20 21 21 21 21 22 21 19 21 24 27 28 28
17 18 20 20 20 21 22 22 22 22 22 22 21 21 20 19 18 17 16 15 14 13 14 15 16 16 16 17 18 19 20 20 20 21 22 22 21 22 23 25 27 28
19 19 20 20 21 22 22 22 23 23 23 23 23 22 22 21 20 20 18 17 15 14 14 13 14 15 15 16 17 17 18 18 20 21 21 21 22 25 26 25 26 28
21 22 21 22 23 24 23 23 23 23 23 23 23 23 23 23 22 22 20 18 16 15 13 13 14 15 15 16 17 18 20 20 20 20 20 19 20 24 27 26 25 27
21 22 23 24 25 25 25 25 24 24 23 24 24 24 24 24 24 23 22 21 18 16 15 13 13 16 16 16 17 19 21 21 21 21 20 19 20 21 24 24 22 24
21 22 23 25 26 26 26 26 25 25 24 24 25 25 24 24 25 25 24 24 22 20 17 13 13 17 18 18 19 20 21 22 21 21 20 19 19 20 21 22 22 23
22 23 23 24 25 26 26 26 26 26 25 25 26 26 25 25 25 26 26 26 24 22 19 15 14 17 19 20 22 23 23 22 21 20 19 19 20 21 21 21 22 24
24 24 24 25 25 26 26 26 26 26 26 27 28 27 27 26 26 27 28 28 26 25 22 19 17 19 21 22 24 25 25 25 24 22 21 20 20 21 22 21 21 23
25 25 26 27 27 28 28 28 29 28 27 27 28 29 28 28 28 28 29 29 28 27 26 24 23 23 24 25 26 26 26 27 26 25 24 22 20 20 21 22 21 22
27 28 29 29 29 30 30 30 31 31 30 29 30 30 29 28 28 29 29 30 30 30 29 28 29 30 30 29 28 28 29 28 28 27 28 27 25 22 22 23 22 22
29 30 31 31 32 33 32 32 32 32 32 32 33 33 31 29 29 30 31 32 32 32 32 31 32 33 33 32 30 28 28 29 28 28 28 29 28 26 24 24 24 24
30 31 31 32 33 34 34 33 32 32 32 33 35 36 34 31 31 31 32 34 34 34 34 33 34 34 34 34 34 32 29 27 27 26 25 26 27 26 26 26 27 26
29 29 30 30 31 33 34 34 32 31 31 33 35 37 35 33 32 32 33 35 35 36 35 35 35 36 35 35 36 36 34 29 26 23 22 22 23 24 25 26 26 25
26 27 28 28 29 31 33 34 33 31 30 31 34 36 35 34 33 33 34 35 36 37 38 38 38 38 37 36 36 37 38 33 26 21 19 18 19 21 23 24 24 23
25 27 27 27 28 29 32 34 35 33 30 29 32 35 35 34 34 34 34 35 36 37 39 40 41 41 41 40 38 37 39 37 28 21 17 15 16 17 19 21 22 21
25 26 26 26 26 28 31 34 36 35 32 29 29 33 35 34 34 34 34 35 36 36 38 39 40 42 42 43 42 39 39 39 34 26 20 16 15 14 15 18 20 20
24 25 25 26 26 28 31 33 36 36 34 31 30 32 35 35 34 34 34 36 37 38 40 41 41 42 43 44 44 43 40 39 39 35 27 21 18 16 14 15 17 20
25 25 26 26 27 30 31 32 34 35 34 32 32 33 35 35 34 34 35 37 39 40 42 43 43 44 45 45 44 44 42 40 40 40 36 29 24 20 18 16 15 16
26 26 27 27 28 30 32 32 32 33 32 32 33 33 34 34 33 34 35 36 38 39 40 41 43 43 44 45 45 44 43 41 40 40 39 37 32 27 22 20 18 16
26 27 28 27 26 27 30 31 31 31 31 30 31 32 33 33 33 34 35 35 36 38 39 40 42 42 43 44 45 44 44 43 41 40 40 40 38 33 28 23 20 19
24 26 27 27 25 25 27 29 30 30 31 29 29 30 31 33 34 34 35 36 36 37 39 40 41 42 43 43 43 43 43 43 42 41 40 40 38 35 31 27 23 21

ECMWFNIL_850_spd_084.txt.gz
Wind_Speed
7 6 5 6 5 4 2 1 4 6 9 11 13 14 14 15 16 17 16 16 16 15 16 15 15 16 16 16 16 18 19 19 20 20 20 21 21 20 20 22 21 19
7 6 6 7 7 6 4 2 1 2 5 7 9 11 12 13 14 16 17 17 17 17 17 17 16 16 16 16 16 16 18 19 19 19 19 20 20 20 20 22 22 19
6 6 7 7 7 7 5 4 3 2 3 4 6 8 10 11 12 13 15 16 17 17 17 17 18 17 17 18 17 17 17 18 18 17 18 19 19 19 19 20 21 20
7 7 7 7 7 7 6 5 6 5 5 4 5 6 7 9 10 12 13 14 15 16 16 17 19 20 19 20 20 20 19 19 18 17 17 17 18 18 18 18 19 20
8 8 8 8 8 8 7 7 8 8 7 7 6 7 7 8 9 10 10 11 12 13 14 16 19 20 19 21 22 22 22 21 20 19 18 17 17 17 17 17 17 19
10 10 10 9 9 10 9 9 10 9 9 9 8 8 8 9 9 10 10 10 10 11 13 15 18 19 19 20 21 21 22 22 22 22 21 19 18 17 16 16 18 19
13 12 12 12 12 12 12 11 11 11 11 10 10 10 11 11 11 11 11 11 11 11 13 14 17 19 19 21 22 22 22 23 23 24 23 22 20 19 17 16 18 19
14 14 14 14 14 14 14 14 13 13 13 12 12 12 13 13 14 14 14 13 12 12 13 14 17 18 19 21 23 24 24 23 23 24 25 24 23 21 19 16 17 19
15 15 15 16 16 17 16 16 15 15 14 14 13 13 14 15 16 16 16 16 15 15 14 15 17 18 19 21 23 25 26 26 25 25 25 25 24 23 21 19 18 19
17 17 18 19 20 20 19 18 17 17 16 16 15 14 14 15 16 17 17 18 18 18 18 18 19 20 21 22 24 25 26 27 26 27 27 25 24 23 22 21 21 21
21 22 22 22 22 22 22 21 20 19 19 19 17 16 16 16 17 17 18 19 20 20 20 20 21 23 23 24 25 26 26 26 25 25 26 26 26 24 22 21 22 23
26 26 26 25 24 24 23 22 22 22 22 22 21 20 20 20 20 20 21 21 22 22 22 22 23 24 25 26 27 27 28 27 26 24 23 24 25 26 25 23 21 23
28 28 27 27 26 25 24 24 25 24 24 24 24 24 25 25 24 24 24 24 24 24 24 25 25 26 27 28 29 30 30 30 28 26 24 22 22 24 27 27 24 23
27 27 27 26 26 26 26 26 27 27 27 26 26 27 28 28 28 28 28 27 26 26 26 26 27 28 30 31 31 31 32 32 31 29 27 24 22 20 22 26 27 26
25 26 26 25 25 26 26 27 29 29 29 28 28 29 30 31 31 31 31 30 30 29 29 29 29 31 33 34 33 32 32 33 32 30 29 28 25 22 19 21 25 27
24 27 28 27 26 26 26 27 29 29 29 29 29 31 31 32 32 31 32 32 32 32 32 32 32 33 33 33 32 32 31 31 31 31 29 28 27 25 21 19 21 24
24 27 30 30 29 28 27 28 29 29 29 29 30 31 31 31 31 31 32 32 33 33 34 34 34 35 34 34 33 32 30 29 29 30 29 27 26 26 24 22 21 22
24 27 29 31 31 30 29 28 29 29 30 30 31 31 31 31 31 32 33 33 34 35 35 36 36 36 36 35 34 33 32 30 28 28 29 28 26 25 25 24 23 23
27 28 29 30 31 30 29 29 29 30 30 31 31 31 31 32 32 33 33 34 35 36 36 37 38 38 37 37 36 35 33 31 29 28 28 28 27 26 25 24 24 23
29 29 29 30 30 30 29 30 30 30 30 30 30 31 32 32 33 33 34 34 35 36 37 37 38 38 38 38 38 36 34 32 30 29 28 27 28 28 26 25 24 24
29 29 29 29 29 29 29 30 30 30 30 30 29 30 31 32 32 33 34 35 36 36 37 38 38 38 38 38 39 38 37 34 32 31 29 28 27 28 28 27 25 25
29 29 29 29 29 29 29 30 30 29 29 28 29 30 30 31 32 33 34 35 36 37 38 38 38 38 38 37 38 38 38 37 35 33 32 30 29 29 29 28 27 26
27 28 29 29 29 30 29 30 29 29 28 28 28 29 30 31 32 32 33 34 36 37 39 39 39 38 37 36 36 38 39 39 38 37 35 34 32 31 31 30 28 28
27 27 27 28 29 30 30 30 30 30 29 29 29 29 30 31 32 32 33 34 35 37 39 39 40 39 38 36 35 36 38 39 39 39 38 37 35 33 32 31 30 29
26 26 26 27 29 30 30 30 30 30 30 30 30 29 30 30 31 31 32 34 35 37 38 39 40 40 40 38 36 35 36 38 39 40 39 39 38 36 34 33 32 31
26 25 25 26 27 29 29 30 30 30 30 30 30 30 30 31 31 31 33 35 37 38 39 40 40 41 41 41 38 36 36 37 39 40 41 40 39 38 36 35 35 36

ECMWFNIL_850_spd_087.txt.gz
Wind_Speed
6 6 7 8 8 9 10 11 12 13 13 13 14 15 16 16 17 19 19 20 20 20 20 23 24 23 22 21 21 22 22 22 23 24 23 23 23 22 22 21 22 23
6 5 5 5 6 6 7 7 8 9 10 11 12 12 14 15 16 17 18 19 19 19 20 23 23 23 23 23 22 23 24 24 24 24 24 24 23 23 24 23 23 22
5 4 3 3 3 3 4 5 6 7 8 9 10 11 12 13 14 15 16 17 17 18 20 22 22 22 23 24 23 23 24 25 26 26 26 26 25 25 25 25 24 22
3 3 2 2 2 3 4 4 5 6 7 8 9 10 11 12 13 13 14 15 16 17 18 20 21 22 23 24 24 24 24 25 26 27 27 27 26 26 25 24 23 22
1 2 3 3 3 4 4 4 5 6 7 8 9 10 11 12 13 13 13 14 14 16 17 18 19 20 21 22 22 23 25 25 26 27 28 28 27 26 25 24 23 22
2 3 4 4 4 4 3 3 4 5 6 7 8 10 11 12 13 13 14 14 14 15 15 16 17 18 18 19 20 21 23 24 25 25 26 28 27 27 25 24 24 23
5 5 6 5 5 5 4 4 5 6 6 7 8 10 11 12 13 14 14 15 15 14 15 16 18 18 19 20 21 21 22 23 24 25 25 25 26 26 26 26 25 24
8 8 8 8 8 8 8 9 9 9 9 9 9 10 11 12 13 14 14 14 15 15 16 17 18 20 21 23 24 24 24 24 25 26 26 26 25 24 24 24 26 25
10 11 11 11 12 12 12 13 13 13 13 12 12 13 13 13 13 14 14 14 15 15 17 18 20 21 22 24 25 26 26 26 26 26 27 27 26 25 23 22 24 25
14 14 14 14 14 14 15 15 15 15 15 15 15 15 15 15 15 15 16 16 16 17 18 19 21 22 23 24 25 26 27 28 28 28 27 27 27 25 23 22 22 24
17 17 16 16 16 16 16 17 17 17 17 17 17 18 18 18 18 18 19 19 20 20 21 21 22 23 23 24 25 26 27 28 29 30 30 29 28 26 23 22 21 23
18 17 17 18 18 18 18 18 18 18 18 19 19 19 20 20 21 21 21 22 22 22 23 23 24 24 24 25 26 26 26 27 28 29 30 31 30 28 26 23 21 21
18 18 19 19 19 20 19 19 19 19 20 20 20 21 21 22 22 22 23 23 23 23 24 24 25 25 26 26 27 28 28 28 28 29 29 30 31 30 28 27 24 22
18 18 19 20 20 20 20 20 20 20 21 21 21 22 23 23 23 24 24 24 24 25 25 26 26 27 29 29 29 29 29 29 29 28 28 29 29 29 28 27 26 25
19 19 20 20 20 20 20 20 20 21 21 22 22 23 24 24 24 24 25 25 26 26 27 27 28 29 30 31 31 31 31 31 30 29 28 28 28 28 28 26 25 25
20 20 20 20 21 21 21 21 21 21 21 22 23 23 24 24 24 24 25 26 26 27 28 28 28 28 28 29 30 31 31 31 31 30 29 28 28 29 29 28 26 24
21 21 21 21 21 21 21 21 21 21 22 22 23 24 24 24 24 25 26 27 27 28 28 29 29 28 28 28 28 29 30 31 31 31 30 30 29 29 29 29 29 26
22 22 22 21 21 21 21 21 22 22 23 23 24 24 25 25 26 26 27 28 29 30 30 30 30 29 28 28 28 28 30 31 31 31 31 31 31 30 30 30 30 29
22 22 22 21 21 21 21 21 22 23 23 24 24 25 25 26 27 28 29 30 31 31 31 31 31 31 31 30 28 28 29 31 31 32 32 33 33 33 32 31 30 31
22 22 22 22 21 21 21 21 22 23 23 24 24 25 26 27 29 30 30 31 31 31 32 32 32 32 33 32 31 29 29 31 32 33 33 33 34 34 34 32 31 31
22 22 22 22 22 22 22 23 23 23 23 23 24 25 27 29 30 31 31 32 32 32 32 33 33 33 33 33 32 31 30 30 32 33 34 34 34 34 35 35 33 32
23 23 23 23 23 23 23 23 23 23 23 23 24 25 28 30 32 33 33 33 34 34 35 35 35 34 34 34 34 33 31 31 32 34 35 35 35 35 36 36 35 34
22 22 23 23 23 23 24 24 24 24 23 23 24 25 28 31 34 35 35 35 35 36 37 38 38 38 38 37 36 35 33 32 33 35 36 37 38 37 38 38 37 35
21 22 22 22 23 24 24 25 25 24 24 23 24 26 28 31 34 35 35 36 36 37 38 39 40 40 40 40 38 36 34 33 34 35 37 38 39 39 40 41 39 36
20 21 22 22 23 24 24 25 25 25 24 23 24 25 28 30 32 34 35 36 37 38 39 40 41 42 42 41 39 37 35 34 34 36 37 39 41 41 41 42 42 38
18 19 21 21 22 23 23 24 25 24 23 23 24 25 27 29 31 33 35 36 38 39 40 40 41 43 43 41 39 37 35 34 34 36 37 39 40 42 43 43 43 40

ECMWFNIL_850_spd_090.txt.gz
Wind_Speed
7 8 9 10 10 11 11 12 12 13 13 13 13 14 15 15 16 16 16 17 18 19 20 21 22 23 24 24 24 24 24 25 25 25 26 27 28 29 29 28 27 25
7 8 8 8 8 9 9 9 10 11 11 12 12 13 13 14 15 16 16 16 16 17 18 19 20 22 23 23 24 24 24 25 24 24 25 25 26 27 28 29 29 28
7 7 7 7 7 8 8 9 9 10 10 11 11 12 12 13 14 15 15 16 16 16 17 18 19 20 21 21 22 23 24 24 24 24 24 24 24 25 26 27 28 29
6 6 6 6 7 7 8 8 9 9 10 11 11 12 13 13 14 14 14 15 15 16 17 17 18 19 20 21 21 22 22 23 23 24 24 23 23 23 23 24 26 27
6 6 6 6 7 8 8 8 8 9 10 11 11 13 13 14 14 14 14 15 16 16 17 18 19 19 20 21 22 23 24 24 24 24 24 24 23 24 23 23 24 25
5 5 6 6 7 7 7 7 8 9 9 10 11 12 13 14 14 14 15 15 16 17 18 19 20 21 22 23 23 24 25 26 26 26 26 26 25 25 25 24 24 24
5 5 6 6 7 7 7 8 8 9 10 11 11 12 13 13 14 15 15 16 17 18 19 21 22 23 24 24 24 25 26 26 27 28 28 28 28 27 27 27 26 25
6 7 8 8 8 8 9 9 10 11 11 11 11 12 13 14 15 16 16 17 18 19 20 21 22 24 25 26 26 26 26 27 28 29 29 30 30 30 30 29 29 27
9 10 10 9 10 10 11 11 12 12 12 13 13 14 14 15 16 17 18 19 20 21 22 23 23 25 26 27 28 28 29 29 29 30 31 31 31 31 32 31 31 31
11 11 11 11 12 12 13 13 13 14 14 15 15 16 17 18 18 19 20 21 22 23 24 25 25 26 26 27 28 29 30 30 31 31 31 32 32 32 32 32 32 32
12 13 13 13 14 14 15 15 15 15 16 16 17 18 19 19 20 21 22 23 23 24 25 26 26 27 27 27 28 28 29 30 31 31 32 32 31 31 31 31 31 31
14 14 14 15 15 15 15 16 16 16 17 18 18 19 20 20 21 22 23 24 24 25 25 26 27 27 27 28 28 29 29 30 30 30 31 31 31 31 30 30 30 30
16 16 15 16 16 16 16 16 17 17 18 18 19 19 20 21 22 23 23 24 24 25 25 26 26 27 27 28 28 29 29 30 31 31 31 31 31 30 30 30 30 30
17 16 16 16 17 17 17 17 17 17 18 19 19 20 21 22 22 22 22 23 23 24 25 25 26 27 28 29 29 29 29 30 31 32 33 32 32 31 30 30 30 30
17 16 17 17 17 17 17 17 17 18 18 19 19 20 21 21 21 21 22 22 23 24 25 26 28 29 30 31 31 30 29 30 31 32 33 34 34 34 33 32 31 30
17 17 17 16 16 17 16 16 17 17 17 18 19 20 20 21 22 22 24 25 26 26 27 28 29 30 30 30 31 31 30 29 30 32 33 35 36 36 36 35 34 32
17 17 16 16 16 16 15 15 16 16 17 18 19 21 22 23 23 24 26 27 27 28 28 29 30 30 30 30 30 30 30 29 30 31 33 34 36 37 38 38 37 36
17 16 16 16 15 15 14 15 15 16 18 20 22 23 23 24 25 26 27 28 29 29 30 31 31 31 30 30 30 30 29 29 29 30 32 34 36 37 38 39 40 40
16 16 16 15 15 14 14 15 16 17 20 22 23 23 23 24 26 27 28 30 31 32 33 33 33 33 31 31 31 30 29 28 28 30 32 33 35 37 38 39 40 41
16 16 15 15 14 14 15 16 17 19 21 22 22 23 24 26 27 29 30 31 32 33 34 35 35 34 33 32 31 31 30 28 28 29 31 33 35 36 37 39 40 41
15 15 15 15 15 15 15 17 18 19 20 21 23 24 26 27 28 29 30 32 33 34 34 35 36 36 35 34 33 32 30 29 28 29 31 32 34 36 37 38 39 40
16 16 16 16 16 16 17 17 17 18 20 21 23 24 25 27 28 30 31 32 33 34 35 36 37 36 36 35 34 33 31 30 29 30 31 33 35 36 38 39 39 40
17 17 17 17 17 17 17 17 17 18 19 20 22 23 25 26 28 30 31 33 34 35 36 37 37 37 36 35 34 33 33 32 31 31 32 34 36 37 38 39 39 39
17 17 18 18 18 18 17 17 17 18 19 20 21 23 24 26 28 29 31 33 34 36 37 37 37 37 36 35 33 33 34 34 34 34 34 36 37 37 38 39 39 38
17 17 18 18 18 17 17 18 18 18 19 19 20 22 23 25 26 28 30 32 34 36 37 37 38 37 36 34 33 34 34 35 36 36 36 37 38 38 38 39 38 38
16 16 17 17 17 17 17 17 18 18 18 18 19 20 22 23 25 27 30 32 34 35 37 38 39 38 36 34 33 34 35 36 37 37 38 38 38 38 38 39 38 38

ECMWFNIL_850_spd_093.txt.gz
Wind_Speed
6 6 6 6 7 8 9 10 10 11 11 12 13 13 14 14 15 15 15 16 16 17 17 18 19 19 20 20 21 21 21 21 21 21 20 20 19 19 19 20 20 21
6 6 6 7 8 9 10 11 11 12 12 13 13 14 14 14 15 15 15 16 16 17 18 18 19 20 20 20 20 21 20 20 20 20 20 20 20 20 19 19 19 20
7 7 7 9 10 11 12 12 12 12 13 13 13 14 14 14 15 15 16 16 17 18 19 19 20 20 20 20 20 21 21 21 21 20 21 21 21 21 21 20 20 20
7 7 9 10 12 12 12 12 12 12 12 13 13 14 14 14 15 15 16 17 18 19 20 20 20 21 21 21 21 22 22 22 22 22 23 23 23 23 23 23 23 22
8 9 10 12 13 12 11 11 11 12 13 13 14 14 14 15 15 16 17 18 19 19 20 20 21 21 22 22 23 23 23 24 24 25 25 26 26 26 27 27 26 26
9 10 12 13 12 12 11 12 13 13 14 15 15 15 15 16 16 17 18 19 19 20 21 21 22 22 23 24 24 25 25 26 26 27 27 27 28 28 29 29 28 29
10 12 13 13 12 12 13 14 14 15 15 15 15 16 16 17 17 18 19 20 20 21 22 23 24 24 25 25 26 27 27 28 28 28 29 29 29 29 29 29 29 30
12 13 13 13 13 13 14 14 15 15 15 15 15 16 17 17 18 19 20 20 21 22 23 24 25 26 26 27 27 28 29 29 30 30 30 31 31 31 30 30 30 30
13 14 13 13 13 14 14 15 15 15 15 16 16 17 18 18 19 20 20 21 22 23 24 24 26 26 27 28 28 29 29 30 30 31 31 31 31 31 31 31 31 31
15 15 14 14 14 14 15 15 16 16 16 17 17 17 18 19 20 20 21 22 23 24 25 25 26 26 26 27 27 28 28 29 29 30 30 31 31 31 32 32 32 32
16 16 15 15 15 16 16 16 17 17 17 17 18 18 19 20 21 22 22 23 24 24 25 25 25 26 26 27 27 28 28 28 29 29 30 30 30 30 31 31 32 32
17 16 16 16 17 17 17 17 17 17 17 18 19 19 20 21 22 22 23 23 24 24 25 25 26 27 28 28 29 29 29 29 29 29 29 30 30 31 31 32 32 32
17 17 17 17 18 18 18 18 18 18 18 19 19 20 21 21 22 23 23 24 25 25 26 27 28 28 29 29 30 30 30 29 29 30 30 30 31 31 32 32 32 32
18 18 18 18 18 18 18 18 18 18 19 19 19 20 21 22 23 23 24 24 25 26 26 27 27 28 30 30 30 30 29 29 30 30 31 31 32 32 33 33 33 33
18 18 18 18 18 18 18 18 18 18 19 19 20 21 21 22 22 23 23 24 25 26 26 27 28 29 29 30 30 30 29 29 29 30 31 32 33 33 34 35 35 35
18 18 18 17 17 17 17 17 17 18 18 19 20 21 21 22 22 23 24 25 26 27 27 28 29 28 28 27 28 28 28 28 28 28 30 31 32 34 35 36 36 37
17 17 17 17 16 16 16 17 17 18 18 19 20 21 22 23 23 24 26 27 27 28 28 29 28 27 26 26 26 26 26 26 26 27 28 30 32 34 35 36 37 38
16 16 16 16 15 15 16 16 17 17 19 20 21 22 23 23 24 26 27 27 28 28 28 29 28 27 26 26 26 26 25 25 25 26 27 29 31 33 35 36 37 38
15 15 15 15 15 15 15 16 17 18 20 21 21 22 23 24 25 26 27 28 28 29 29 29 28 27 27 26 26 26 25 24 24 25 27 28 30 33 35 36 37 38
14 14 14 14 15 15 15 16 18 19 20 20 21 22 23 24 26 26 27 28 29 30 30 30 29 28 28 27 26 26 25 25 24 25 27 28 30 33 35 36 37 38
14 14 14 15 15 15 16 17 18 19 20 20 21 22 23 25 25 26 27 28 29 30 30 30 30 29 28 27 27 26 26 26 25 25 27 29 30 32 34 35 36 36
14 14 15 15 15 15 16 17 18 19 20 20 21 22 23 24 25 26 27 28 29 31 31 31 30 29 29 28 27 27 27 27 27 27 29 30 31 32 34 35 36 36
15 15 16 16 15 15 15 16 17 18 19 19 20 21 22 24 25 26 27 28 30 31 32 31 31 30 30 29 28 29 28 26 25 26 29 30 32 33 32 31 33 36
16 16 16 16 16 15 15 16 16 17 18 18 19 20 21 23 24 25 26 28 30 31 32 32 31 31 30 29 29 30 29 24 21 22 24 26 28 28 25 24 29 35
17 17 17 16 16 15 15 15 15 16 16 17 18 19 20 21 23 24 26 28 29 31 32 32 32 31 30 29 28 30 31 27 23 24 24 24 26 24 20 21 25 29
18 17 17 16 15 15 15 14 14 14 15 15 16 18 19 20 22 23 25 27 28 30 32 32 32 31 30 29 28 29 31 30 29 31 29 24 25 23 20 22 23 25

ECMWFNIL_850_spd_096.txt.gz
Wind_Speed
2 3 5 7 8 9 9 9 9 10 10 11 11 12 13 14 14 15 16 16 16 17 17 17 17 17 17 17 17 17 17 17 17 17 17 17 18 17 17 16 15 15
4 6 8 9 9 10 10 10 11 11 12 12 13 14 14 14 15 16 16 16 17 17 17 17 17 17 18 17 17 17 17 18 18 18 18 19 19 19 19 18 17 16
7 9 10 10 10 11 12 12 13 13 13 14 14 15 15 15 16 16 16 17 17 17 18 18 18 18 18 18 18 18 18 19 19 19 19 20 20 21 22 21 20 18
9 11 12 12 12 13 14 14 14 15 15 15 15 15 15 16 16 16 17 17 18 18 18 18 19 19 19 19 19 19 20 21 20 21 22 22 22 23 23 23 23 21
12 13 13 14 14 15 15 15 16 16 16 16 16 15 15 15 16 16 17 17 18 18 18 19 19 19 19 20 21 21 22 22 22 23 24 24 24 24 25 24 24 23
14 16 16 16 16 16 16 16 16 16 16 16 15 15 15 15 16 16 17 17 18 18 19 20 20 21 21 22 23 23 23 24 24 25 25 25 26 26 26 26 25 24
16 17 17 17 17 16 16 17 16 16 16 16 15 16 16 16 16 16 17 18 18 20 20 21 21 22 23 23 24 24 24 25 25 26 25 25 26 26 26 26 26 24
18 19 18 17 17 17 17 17 16 16 16 16 16 16 16 16 17 17 18 19 20 21 21 22 22 23 23 24 24 24 25 25 25 25 25 25 25 25 26 26 25 24
19 19 18 17 17 17 17 17 17 17 17 16 16 17 17 17 18 19 20 20 21 22 22 22 23 23 24 24 24 24 24 24 24 24 25 25 25 25 26 25 24 23
19 19 18 17 17 17 17 17 17 17 17 17 17 18 19 19 20 20 21 21 22 22 22 23 23 23 24 23 23 24 24 23 24 24 24 24 25 25 25 24 22 21
19 19 18 18 18 18 17 17 17 17 17 18 19 19 20 20 21 21 22 22 22 22 22 23 23 23 23 23 23 24 24 24 24 24 23 24 24 24 24 23 21 19
19 18 18 18 18 17 17 17 17 18 19 20 20 20 21 21 21 22 22 22 22 22 22 22 23 23 23 23 24 24 24 23 23 23 22 22 23 23 22 21 20 20
19 19 18 18 17 17 17 18 18 19 20 20 20 20 21 21 21 22 22 21 21 21 22 22 23 23 23 24 25 24 24 22 21 21 21 21 22 21 19 18 18 19
19 19 18 17 17 17 18 18 19 20 20 19 19 20 21 22 22 22 21 21 22 22 22 22 23 24 24 25 24 24 24 21 20 21 21 21 20 18 17 17 18 18
19 18 18 18 18 18 18 19 19 19 19 19 20 21 22 22 22 22 21 22 22 22 22 23 23 24 24 24 24 24 23 21 19 20 20 18 18 18 17 18 19 18
19 18 18 18 18 18 18 18 18 19 19 20 21 22 22 22 22 22 22 22 23 23 23 23 23 23 22 22 23 23 22 21 19 18 17 16 17 18 18 17 18 18
18 18 17 17 17 17 17 17 18 19 20 20 21 22 22 22 22 22 23 23 23 23 24 23 23 22 21 21 22 22 21 21 19 17 16 16 18 18 17 18 18 18
18 18 17 17 17 16 17 17 18 19 20 21 22 22 22 22 22 23 23 23 24 24 24 24 23 22 21 21 21 21 21 20 18 17 16 16 17 17 17 18 18 20
18 18 17 16 16 16 16 17 18 19 20 21 22 22 22 22 23 23 23 24 24 24 24 24 23 23 21 21 21 20 20 20 17 15 15 16 17 17 18 18 19 20
17 17 16 16 15 15 16 17 18 19 20 21 21 21 22 22 23 23 24 24 24 24 24 24 24 23 22 21 21 20 20 21 17 15 15 17 17 18 19 19 20 20
16 16 16 15 15 15 16 17 18 19 20 21 21 21 22 22 23 24 24 24 24 24 25 24 24 23 22 22 22 22 21 21 18 16 17 17 17 19 19 20 20 20
16 16 16 15 15 15 16 17 18 19 20 20 20 21 21 22 23 24 24 24 25 25 24 23 23 23 23 23 23 23 22 20 17 17 17 18 18 19 19 20 21 22
16 16 15 15 14 14 15 17 17 18 19 19 19 20 21 22 23 23 24 24 25 25 24 22 22 23 23 23 24 24 22 20 18 17 17 18 19 18 19 20 21 22
16 16 15 15 14 14 15 16 16 17 18 18 19 19 20 21 22 22 23 24 24 25 25 22 21 22 23 22 23 24 22 19 18 18 16 17 19 18 19 20 20 23
16 16 15 14 14 14 14 15 15 15 16 17 16 16 17 19 20 21 22 24 25 26 26 24 23 22 23 23 22 24 23 19 18 20 17 16 18 19 19 20 20 22
17 16 15 14 13 14 14 13 14 14 15 15 14 13 15 17 18 19 21 22 24 24 25 25 25 24 24 24 23 24 25 21 20 23 20 15 18 20 20 20 21 21

ECMWFNIL_850_spd_099.txt.gz
Wind_Speed
7 7 7 7 8 8 7 8 9 10 12 12 12 12 13 12 12 12 12 12 12 12 12 12 12 12 13 13 13 14 14 14 13 14 16 16 16 17 16 16 15 13
7 7 7 7 8 8 9 10 12 12 13 13 13 13 13 13 13 12 13 13 13 13 13 13 13 13 14 14 14 15 15 14 14 16 17 17 17 17 17 16 15 14
7 8 9 9 9 10 12 14 14 14 14 14 14 13 13 13 13 13 13 14 13 13 14 14 14 14 15 15 16 16 16 15 16 18 18 18 18 18 18 16 15 16
9 9 9 10 12 13 15 16 15 15 14 14 14 14 14 14 14 14 14 14 14 15 15 15 15 16 16 17 17 17 17 18 18 19 17 17 18 18 18 17 16 16
9 9 10 13 16 16 16 16 15 15 14 14 15 14 14 15 15 15 15 16 16 17 17 17 17 17 18 18 18 18 19 19 19 18 16 15 16 17 17 16 15 15
10 11 14 18 18 17 16 16 15 15 14 15 15 15 15 15 16 16 16 17 17 18 18 18 18 18 18 19 19 19 19 18 18 17 16 15 15 15 16 15 15 14
14 16 18 18 17 17 16 16 16 15 15 15 15 16 16 16 17 17 17 17 18 18 18 18 18 18 19 18 18 18 18 18 18 17 15 15 14 15 15 15 14 14
18 19 19 17 17 17 16 16 16 16 16 15 15 16 17 17 17 17 17 17 18 18 18 18 18 18 18 18 17 17 18 18 17 16 16 15 14 15 15 15 14 14
19 19 18 18 17 17 16 16 16 16 16 17 16 16 17 18 17 17 17 17 18 18 17 17 17 17 17 17 17 17 17 17 17 16 15 14 14 15 15 15 15 15
19 18 18 18 17 17 16 16 16 17 17 17 17 16 16 17 17 17 17 17 17 17 16 16 16 17 17 17 17 18 17 17 16 15 14 14 14 15 15 15 15 15
19 18 18 17 17 16 16 17 17 18 17 16 16 16 17 16 17 17 17 17 16 16 16 16 16 16 17 17 18 17 16 16 15 14 13 13 14 14 14 15 15 15
19 18 18 17 17 17 17 17 18 17 16 16 16 16 17 16 17 17 16 16 16 15 15 15 16 17 17 18 18 16 16 16 15 14 13 13 13 13 14 15 15 15
19 18 18 17 17 17 18 18 18 17 16 16 16 16 16 16 16 17 16 16 16 15 16 15 16 17 17 18 17 16 16 15 13 12 12 13 13 13 14 15 15 15
19 18 17 17 18 18 18 18 17 16 16 16 16 17 17 16 16 16 16 16 16 16 16 16 17 17 17 18 17 17 16 12 11 12 12 12 13 13 13 14 15 15
19 18 18 18 18 18 17 17 17 17 16 16 17 17 17 16 15 15 15 15 16 16 16 17 17 18 19 18 18 18 15 11 10 12 12 12 12 13 13 14 16 16
19 18 17 17 17 17 17 17 17 17 17 17 17 17 17 17 16 16 15 14 15 16 16 17 18 18 19 18 18 17 14 11 10 11 11 11 13 13 13 15 17 16
17 17 16 16 17 17 16 16 17 17 17 17 17 17 17 17 16 16 15 14 15 16 17 17 18 18 17 17 17 15 14 13 10 10 10 11 13 13 14 16 16 17
17 17 16 16 16 16 16 16 16 17 17 17 18 17 18 17 16 16 15 14 15 17 18 17 17 17 17 17 16 15 15 15 11 10 11 11 13 13 13 15 16 18
17 17 16 16 16 16 16 16 15 15 15 16 17 18 18 17 17 16 15 14 14 16 18 18 18 18 17 17 17 16 17 16 11 11 12 11 13 13 14 15 17 19
17 16 16 16 15 15 15 14 14 13 13 14 15 16 17 17 17 17 16 15 13 14 18 19 19 18 18 17 17 16 18 17 11 10 12 12 13 14 14 15 16 19
16 16 15 14 14 14 13 13 13 12 11 11 12 13 15 16 17 17 17 16 14 13 17 20 20 19 18 18 17 15 17 16 12 10 11 12 12 13 14 14 17 20
16 16 15 14 14 14 13 13 12 11 10 10 10 12 13 15 16 17 17 17 15 13 15 19 21 20 19 19 18 16 16 16 13 11 11 11 13 14 13 14 17 19
16 16 15 14 14 13 12 12 11 10 9 9 9 9 10 11 13 16 17 18 17 14 13 17 21 21 20 21 20 18 17 16 14 13 11 11 13 15 14 14 18 20
16 16 15 14 13 13 12 11 10 9 9 8 8 8 9 9 9 12 14 16 18 18 15 16 19 21 21 21 21 20 19 18 16 15 13 11 13 16 15 14 18 21
16 16 15 14 14 13 12 10 9 8 8 7 7 7 7 7 7 8 10 12 15 18 19 18 19 21 22 22 21 21 21 20 19 18 15 11 13 17 16 15 17 19
17 16 15 14 14 13 11 10 9 8 8 7 7 7 6 6 6 6 7 8 9 13 17 19 20 21 22 22 21 21 21 21 21 21 19 13 12 16 17 16 17 17

ECMWFNIL_850_spd_102.txt.gz
Wind_Speed
10 11 11 11 10 10 9 9 8 9 11 12 11 11 10 9 9 9 10 10 10 10 10 10 11 11 11 11 11 12 10 11 13 14 14 13 13 13 13 14 14 13
11 11 10 10 10 11 11 10 10 11 13 13 12 11 10 10 10 10 11 11 11 11 11 11 11 11 12 12 12 12 11 12 14 14 14 14 14 13 13 14 15 14
12 12 10 11 11 11 11 11 13 14 14 13 12 12 12 11 11 11 12 12 12 12 11 11 12 12 13 13 13 13 13 13 14 14 13 13 14 13 13 14 14 15
12 12 11 12 12 12 13 15 16 16 14 13 13 13 13 13 12 12 13 13 14 13 12 12 13 14 14 14 14 14 14 14 14 13 12 13 14 13 13 15 14 15
13 12 12 12 13 14 16 17 16 15 14 14 14 14 14 14 14 14 14 14 14 14 13 13 14 15 15 15 14 13 14 14 13 12 12 13 14 14 13 14 14 15
14 13 13 14 16 17 18 17 16 15 15 14 14 14 15 15 15 14 14 14 13 14 14 14 14 15 14 14 14 13 13 13 12 12 12 13 14 14 14 14 14 14
15 14 16 18 19 18 18 16 16 15 15 16 16 15 15 15 15 14 13 13 13 13 13 13 13 14 13 13 13 13 13 13 14 14 14 14 14 14 15 15 14 14
17 18 19 20 19 18 17 17 16 16 15 16 17 16 15 15 15 14 13 12 12 12 13 13 12 12 12 11 12 13 13 14 14 14 14 14 14 14 14 14 15 14
20 20 20 19 18 18 17 17 18 17 16 16 17 17 16 15 14 13 12 12 12 12 12 12 12 12 11 11 11 13 13 13 13 13 13 14 13 13 14 13 14 14
21 21 20 19 18 18 17 18 18 18 17 17 16 17 16 15 13 12 12 11 11 11 11 12 12 12 12 11 11 13 14 12 12 12 12 12 12 12 13 13 14 13
21 20 19 18 18 18 18 19 18 18 17 17 16 16 16 14 13 12 11 11 11 11 11 12 12 12 12 12 11 13 14 12 12 12 12 12 12 12 12 13 13 12
21 20 19 18 18 18 18 18 18 18 17 17 16 16 15 14 13 12 12 11 11 11 11 11 12 12 12 13 11 12 13 11 11 12 11 11 12 11 11 12 14 14
20 19 19 19 19 19 18 18 18 17 18 17 16 15 14 13 12 12 12 12 11 12 12 12 12 12 13 14 12 12 12 11 11 11 10 11 11 10 12 14 16 17
20 19 19 19 19 18 18 17 17 16 17 16 16 15 14 13 12 11 12 12 12 12 12 12 12 12 13 14 13 12 11 11 11 10 10 11 10 11 13 14 15 17
20 19 19 19 19 18 18 17 17 17 16 16 15 16 15 13 11 10 11 13 12 12 12 12 12 13 14 15 14 12 10 11 11 9 9 11 11 11 12 14 15 17
20 20 19 19 18 18 17 17 17 17 17 16 16 15 15 14 11 11 12 13 13 12 12 12 13 14 15 15 14 12 10 11 12 10 9 10 11 10 11 14 13 16
20 20 19 18 18 17 17 17 17 17 16 16 16 15 15 14 12 12 14 14 13 12 12 13 13 15 14 14 14 11 11 12 12 11 9 9 10 10 10 12 10 15
20 19 19 18 18 17 17 17 17 17 17 16 16 15 14 14 12 12 13 15 14 13 13 13 13 14 13 13 13 12 11 12 12 11 9 9 11 10 10 12 13 18
19 19 19 18 18 18 18 18 17 18 17 16 16 15 14 13 13 12 12 14 15 14 14 14 14 14 13 12 13 13 12 11 11 10 9 9 11 10 9 14 17 20
19 19 20 19 19 19 18 18 17 18 17 17 16 16 15 14 13 12 11 11 14 15 15 15 15 15 14 13 13 13 12 11 9 8 7 8 10 10 9 12 17 20
20 20 20 19 18 17 17 16 16 16 16 16 16 16 15 14 13 13 11 10 13 16 16 16 16 16 16 15 14 12 11 11 9 5 5 6 9 12 10 10 16 20
21 20 19 18 17 16 16 16 16 16 16 16 16 16 15 15 14 13 12 10 10 14 16 17 16 17 17 16 15 13 12 12 10 4 4 7 7 12 11 9 15 20
21 20 19 18 17 17 18 18 16 16 15 14 14 14 13 14 14 14 14 12 10 12 16 17 17 17 17 17 17 16 14 15 14 8 4 7 5 9 12 12 15 19
21 21 20 18 17 18 18 17 16 15 14 13 12 12 10 9 10 12 14 14 14 14 16 17 17 18 18 18 18 18 16 16 16 12 7 5 4 7 11 13 16 18
21 21 20 18 18 18 18 17 16 15 14 12 11 10 8 6 6 7 10 13 15 16 17 18 19 19 19 19 19 19 18 17 16 15 12 7 5 8 10 13 15 16
22 21 20 19 19 19 18 17 16 14 12 10 8 7 7 6 4 4 6 9 12 14 15 17 18 19 19 18 18 18 18 17 16 17 15 13 10 9 9 12 15 15

ECMWFNIL_850_spd_105.txt.gz
Wind_Speed
10 11 12 13 15 15 14 13 12 10 10 11 10 9 8 7 6 6 5 6 6 6 6 6 5 5 5 5 6 6 6 7 8 8 7 8 9 9 10 12 12 12
13 14 14 16 17 17 17 16 13 11 12 12 10 9 8 7 6 6 6 7 7 7 7 6 6 6 5 6 6 6 6 6 7 7 7 8 9 10 11 12 12 12
15 16 17 17 18 18 17 15 12 12 13 12 10 10 9 8 8 7 7 8 8 8 7 6 6 6 6 6 6 6 6 6 7 7 8 8 8 9 11 11 11 12
15 16 17 17 17 16 14 13 14 14 13 12 11 10 10 9 9 8 9 9 9 9 7 7 7 7 7 6 6 6 6 6 7 7 8 9 9 9 10 10 11 13
14 14 14 16 16 15 14 15 16 15 14 13 12 11 11 10 10 9 9 9 9 9 8 7 8 7 8 7 6 6 6 6 7 7 8 10 11 11 10 10 12 15
13 12 13 14 15 16 17 17 16 15 13 12 12 12 12 11 11 10 10 10 9 9 9 8 8 8 8 8 7 6 7 7 8 8 9 11 11 12 12 12 15 17
14 14 15 15 17 18 18 17 15 14 13 13 13 12 12 11 11 11 10 10 9 9 8 8 7 7 7 7 8 8 8 9 10 10 10 10 10 11 11 13 16 18
15 16 17 17 19 18 17 16 15 14 14 14 14 14 13 12 12 12 11 10 10 9 8 7 6 6 5 6 8 8 9 10 10 10 9 9 11 12 12 14 17 17
17 18 19 19 19 18 17 16 15 15 15 15 15 14 13 12 11 11 11 10 9 9 8 8 6 5 4 4 6 9 10 10 9 9 8 9 11 13 15 16 17 17
19 20 20 19 19 18 17 17 16 16 15 15 15 15 13 12 11 10 10 9 9 8 8 7 7 6 4 3 5 8 11 11 9 9 9 10 12 13 16 19 19 19
22 21 21 20 19 19 18 18 18 17 17 16 16 15 14 13 11 10 10 9 9 8 7 7 7 7 5 3 4 7 10 11 9 8 9 9 12 13 16 20 22 21
23 22 21 20 20 20 19 19 18 18 18 17 15 14 13 12 11 10 10 9 9 8 7 7 7 7 6 5 6 7 10 11 9 8 8 9 12 16 17 20 21 22
24 23 22 21 21 21 20 20 19 18 18 16 14 13 13 12 11 10 10 9 8 8 8 7 7 7 7 6 7 7 8 10 9 9 10 11 13 16 17 18 19 20
24 23 22 22 22 22 21 21 21 19 18 17 15 14 14 13 11 10 10 9 8 8 7 7 7 7 7 7 7 7 7 9 10 11 12 12 12 12 12 15 16 18
25 24 23 23 23 22 22 22 21 20 19 17 16 15 15 14 12 11 10 9 8 8 7 7 8 8 9 8 7 7 8 8 10 11 11 11 11 8 8 13 15 17
25 25 24 23 23 22 22 21 21 20 19 18 16 15 15 14 12 11 11 9 8 8 8 8 9 10 10 9 8 8 8 9 10 11 11 10 9 7 9 13 16 19
26 26 25 24 23 22 21 21 20 19 18 18 15 14 15 14 11 11 11 10 9 8 8 9 10 11 11 10 9 8 9 10 11 11 11 11 9 8 9 13 17 20
27 26 25 25 23 22 21 20 20 19 18 17 16 15 16 15 12 11 11 10 9 9 10 10 11 11 11 10 9 9 9 10 10 10 10 11 12 9 9 13 15 19
27 26 25 24 23 22 22 21 20 19 18 17 16 14 15 15 13 12 11 11 10 10 11 11 12 12 11 11 10 9 8 7 7 9 8 7 10 10 10 12 14 18
27 26 25 24 23 22 22 21 20 19 18 17 15 14 14 15 15 13 12 12 11 11 11 11 12 12 12 12 12 10 8 6 5 7 6 4 7 8 8 11 14 18
28 27 25 25 24 24 23 22 21 20 19 18 16 14 13 13 15 14 13 13 12 11 11 11 13 13 13 13 13 12 11 8 6 6 5 4 5 5 6 9 13 17
28 27 26 26 26 25 24 23 22 21 20 18 17 15 13 12 14 14 13 13 13 12 12 13 13 14 14 14 14 14 13 11 9 7 5 3 4 4 6 9 13 16
28 27 27 28 27 26 25 24 23 21 20 19 17 16 15 13 14 15 14 13 13 13 13 14 14 14 15 15 15 15 14 13 12 9 6 3 3 3 5 8 11 13
27 28 29 29 27 26 26 24 23 22 20 19 18 17 16 15 15 16 15 14 14 14 14 15 15 15 15 16 16 16 15 14 13 12 8 5 3 4 5 7 9 10
28 29 29 28 27 26 25 24 23 22 20 19 18 17 17 16 15 15 15 14 14 15 16 16 16 16 16 16 17 16 16 15 14 13 11 10 7 5 6 8 10 10
29 29 28 27 26 26 25 24 22 20 18 17 16 16 16 15 14 14 13 13 13 14 16 16 16 16 16 16 16 16 15 15 14 14 14 14 12 10 10 12 13 14

ECMWFNIL_850_spd_108.txt.gz
Wind_Speed
14 13 13 12 11 9 9 7 6 10 12 11 11 10 9 8 7 6 6 5 5 5 4 4 4 4 4 3 3 3 4 5 7 8 6 7 8 9 11 12 11 12
15 14 13 13 12 10 9 7 6 8 10 11 10 9 8 8 7 7 6 6 6 6 5 5 5 5 4 4 2 3 4 5 7 7 6 6 8 10 12 12 12 12
16 15 14 13 12 11 10 9 7 8 11 11 11 9 9 8 8 8 8 8 7 6 6 5 5 5 4 4 3 3 4 5 7 7 5 6 7 10 13 12 11 12
17 16 16 15 13 13 12 11 9 10 12 12 11 10 10 9 9 9 9 8 7 7 6 6 5 5 4 4 3 3 4 5 7 7 5 6 8 11 12 11 11 12
18 17 17 15 15 15 13 11 11 13 14 13 12 11 10 10 9 9 9 8 8 6 6 5 5 4 4 3 3 3 4 5 6 6 5 8 11 12 12 11 12 12
18 17 17 16 16 15 14 12 14 15 14 13 13 12 11 10 9 9 9 8 7 6 5 4 3 3 3 3 3 3 4 4 5 6 7 10 12 12 11 12 12 12
17 17 17 16 16 15 14 15 16 16 14 13 13 12 11 11 10 9 9 7 7 6 4 4 3 3 2 2 2 3 3 4 5 7 9 10 12 12 12 13 13 13
16 16 16 16 16 16 17 18 17 15 15 14 13 13 12 10 9 9 9 8 7 7 6 5 4 3 2 2 1 2 3 4 6 8 9 10 11 12 13 13 14 15
14 15 15 16 18 19 18 18 16 16 15 14 14 13 11 10 10 9 9 9 8 7 6 5 4 3 2 2 1 1 2 4 7 8 9 10 11 12 14 15 17 19
14 15 16 18 19 19 18 17 17 16 15 14 13 11 10 11 10 10 9 8 8 7 6 5 4 3 2 2 1 2 3 5 7 9 9 9 10 12 15 17 20 22
15 16 18 19 19 18 18 17 17 16 15 14 12 11 11 11 11 10 9 8 7 7 5 4 4 3 3 2 2 2 3 5 7 8 9 9 10 13 16 18 20 22
16 18 19 20 19 18 18 18 17 16 15 13 11 11 11 11 11 10 9 8 7 6 5 4 3 3 3 2 2 3 3 5 6 7 8 8 9 11 15 17 18 21
19 20 20 20 19 19 19 18 18 16 15 13 12 12 12 11 11 10 9 8 7 6 5 4 3 3 3 3 2 2 2 4 6 7 7 6 6 8 13 16 17 19
21 21 21 20 20 19 19 19 18 17 15 14 13 13 12 12 11 10 9 8 7 6 5 4 4 3 3 3 2 2 2 3 5 7 6 4 4 7 10 13 15 18
23 22 21 21 21 20 20 19 18 17 16 15 14 13 13 12 11 10 9 8 7 6 5 4 4 3 3 3 3 3 2 3 5 6 4 3 4 5 7 10 13 17
24 23 23 23 22 21 21 20 19 18 16 15 15 14 13 12 11 10 9 8 7 6 5 5 4 4 4 4 4 3 3 4 5 6 5 3 4 5 6 9 11 16
25 25 24 23 23 22 21 21 19 18 17 16 16 15 13 12 11 10 9 8 7 6 6 5 5 5 5 4 4 4 4 4 5 6 5 3 3 4 6 8 11 15
26 26 25 24 24 23 22 21 19 18 17 16 16 15 14 13 12 11 10 9 8 7 6 6 6 6 5 5 4 3 3 3 4 3 3 2 2 3 4 7 11 14
27 27 26 26 25 24 23 22 20 18 17 16 17 16 15 13 12 11 10 9 8 7 7 7 6 6 6 5 4 3 1 1 2 3 2 2 2 2 3 6 10 13
28 27 27 26 25 25 24 22 20 19 17 16 17 16 15 14 13 12 11 10 9 8 7 7 7 7 7 7 5 3 1 1 2 3 3 3 3 3 2 5 8 10
29 28 28 27 26 25 24 23 21 19 18 18 17 16 14 13 13 12 11 10 9 9 8 8 9 8 8 7 6 5 3 1 3 4 4 4 4 4 4 6 6 8
30 29 28 27 26 24 24 23 21 20 19 18 18 18 16 14 13 12 11 11 11 10 9 9 9 9 8 8 7 7 6 3 2 3 4 4 5 5 6 7 7 8
31 30 29 28 26 25 24 23 22 21 20 19 19 19 17 15 14 14 12 12 12 11 10 10 10 9 9 8 8 8 8 5 3 1 2 4 4 5 6 7 7 8
31 30 29 29 27 26 25 24 23 22 21 19 19 19 18 17 16 15 14 13 13 13 12 11 11 10 10 9 9 9 8 6 5 2 0 2 2 3 4 5 6 8
31 30 29 29 28 27 26 25 23 22 21 20 20 20 20 19 17 16 16 15 14 14 13 12 11 11 11 10 10 9 8 7 6 4 3 3 4 4 5 6 7 9
31 29 29 29 28 28 26 24 23 23 22 21 21 21 21 19 18 17 16 16 15 14 13 12 12 11 10 10 10 9 8 8 7 6 7 7 8 8 7 7 9 11

ECMWFNIL_850_spd_111.txt.gz
Wind_Speed
18 19 18 17 15 12 11 9 8 6 7 8 9 8 7 6 5 5 4 3 3 3 2 2 1 2 2 3 4 4 5 5 6 7 8 8 8 7 7 9 9 10
20 19 18 16 14 12 11 9 6 5 7 9 9 8 7 7 6 5 4 3 2 2 1 1 0 1 2 3 3 4 5 5 6 6 7 7 7 7 8 9 9 10
20 18 17 15 14 12 12 10 7 6 8 10 10 9 8 7 6 5 4 3 2 2 2 1 0 0 1 2 3 4 5 5 5 6 6 6 7 8 8 9 9 9
19 18 16 15 14 13 12 11 9 8 9 11 11 10 8 7 5 5 4 3 2 2 2 2 1 1 1 1 2 3 4 4 5 5 5 6 8 8 9 8 8 8
18 17 16 15 15 14 13 12 11 10 10 12 12 9 8 6 5 4 4 3 3 2 2 2 2 1 0 1 2 2 3 4 5 5 5 7 9 9 8 8 8 8
17 17 16 16 15 14 13 13 12 11 11 12 11 9 8 6 5 4 4 3 3 3 3 3 2 1 1 1 1 1 3 4 5 5 6 8 9 9 8 8 8 9
18 17 17 17 16 15 14 13 13 12 13 13 11 9 7 6 5 4 4 5 5 4 4 3 2 2 2 1 0 1 3 4 5 5 7 8 9 9 9 9 9 10
18 18 18 17 16 15 15 15 14 14 14 13 11 9 7 6 5 5 6 6 6 5 5 4 3 3 2 1 1 2 3 4 5 5 6 8 9 10 11 11 11 11
19 18 18 17 17 17 16 15 15 15 14 12 10 8 7 7 7 7 7 7 7 6 5 5 4 3 3 2 1 2 3 4 4 5 6 7 9 10 11 12 12 13
18 18 18 17 17 17 16 16 16 16 14 12 9 7 7 8 9 9 9 8 7 6 6 5 4 3 3 2 1 2 3 4 4 5 6 6 8 9 11 12 14 14
18 18 18 17 17 17 16 17 17 16 14 11 8 7 8 10 10 10 9 8 7 6 6 5 4 4 3 2 1 2 3 4 4 4 5 5 6 9 11 13 14 15
18 17 17 17 17 17 17 18 17 15 13 10 8 8 10 11 11 10 10 8 7 7 6 5 4 4 2 1 1 1 3 4 3 4 5 5 5 8 11 12 14 15
17 16 16 17 17 18 18 17 16 14 12 10 10 10 11 11 11 10 10 8 8 7 6 5 4 3 2 2 1 2 3 3 3 4 5 5 5 7 9 11 13 15
16 15 16 17 18 18 18 17 16 14 12 11 11 11 12 11 10 10 9 9 8 7 6 5 4 3 3 2 1 2 2 2 3 3 4 5 6 6 8 10 12 14
16 16 17 19 19 19 18 17 16 14 12 11 11 12 12 11 10 10 9 8 8 7 6 5 4 3 3 2 1 2 2 1 2 3 4 5 5 5 7 9 11 13
17 18 20 20 20 19 19 18 16 13 12 11 11 12 11 11 11 10 9 8 7 7 6 5 4 4 3 2 2 1 1 1 2 3 5 5 4 4 5 7 10 12
18 20 21 21 21 20 19 17 15 13 12 12 13 12 12 11 11 10 10 9 8 7 6 5 5 4 3 3 2 2 1 1 2 3 4 5 4 3 4 6 8 10
20 22 23 22 21 20 18 16 15 13 13 13 13 13 12 11 11 11 10 9 8 7 6 5 5 4 4 3 2 2 1 1 1 2 3 4 4 3 4 6 8 8
22 24 24 23 22 20 18 17 15 14 13 13 14 13 12 12 11 11 10 9 8 7 6 6 5 4 4 3 3 2 2 1 1 2 2 3 4 4 5 8 9 8
24 25 24 23 22 21 19 17 16 15 14 14 14 13 12 12 12 11 10 9 8 7 6 6 5 5 4 4 3 2 2 1 1 1 2 3 4 5 6 8 9 8
26 26 25 24 23 21 20 18 17 16 15 14 14 13 12 12 11 11 10 10 9 8 7 6 6 6 5 4 4 3 2 1 0 1 2 3 4 5 7 8 7 7
28 27 26 25 24 23 21 19 18 17 15 14 14 14 13 12 12 11 11 10 9 9 8 7 7 6 6 5 4 3 3 2 0 1 2 3 4 5 6 7 6 6
29 28 26 26 25 24 22 20 19 18 16 15 15 15 13 12 12 12 11 11 10 10 9 8 8 7 6 6 5 4 3 2 1 1 2 3 3 4 5 5 4 5
29 28 27 26 25 24 22 21 19 18 17 16 15 15 14 13 13 13 13 12 11 10 9 8 8 8 7 6 5 5 3 3 2 0 1 2 2 3 3 2 3 5
29 28 27 27 26 24 22 20 19 18 17 17 16 15 15 14 14 14 14 13 12 11 10 9 8 8 8 7 6 5 4 3 2 2 1 0 0 0 1 1 2 4
30 28 28 27 25 24 22 20 19 19 18 18 17 17 17 16 15 14 14 14 13 12 12 11 10 9 8 7 5 4 4 3 3 3 3 2 1 1 1 0 1 4

ECMWFNIL_850_spd_114.txt.gz
Wind_Speed
13 13 12 12 12 11 11 11 10 7 6 4 3 5 5 5 4 2 0 1 3 4 5 5 5 5 6 6 7 7 8 8 9 10 11 11 12 12 12 13 13 13
15 14 13 13 12 12 11 10 8 6 5 3 4 5 6 5 4 2 0 1 3 4 4 4 4 4 5 5 7 7 8 9 10 10 10 10 11 11 11 12 12 13
16 14 14 14 13 12 11 10 8 6 4 4 5 6 6 5 3 2 1 1 2 3 2 3 3 4 5 6 7 7 8 9 10 10 9 10 10 10 10 11 12 12
15 15 15 14 13 12 11 9 8 6 5 5 6 6 6 4 3 2 2 1 1 1 1 2 3 4 5 6 6 7 8 8 10 10 9 8 9 8 10 11 11 12
16 17 16 15 13 12 11 9 8 8 6 5 6 7 6 4 3 3 2 1 1 1 1 2 3 4 5 6 6 6 7 8 9 8 7 7 8 9 10 10 10 10
18 17 16 15 14 13 11 10 9 8 6 6 7 8 6 5 4 3 2 2 2 2 3 3 3 4 5 5 6 6 7 7 7 7 6 7 8 9 9 9 8 9
18 17 16 15 14 13 12 11 10 9 7 7 8 9 7 6 5 4 4 3 4 4 4 3 3 4 5 5 6 6 6 6 6 6 6 8 8 8 8 8 9 10
17 17 16 15 14 13 12 11 11 10 8 8 9 9 8 6 5 5 5 5 5 4 4 4 4 4 4 5 5 6 5 5 5 6 7 8 7 7 8 9 9 10
16 16 16 15 14 13 12 12 12 10 9 9 10 9 8 7 6 6 6 6 6 5 4 4 3 3 3 4 4 5 5 4 5 5 6 6 5 6 8 9 10 10
17 16 16 15 14 14 13 13 12 11 10 11 11 8 7 7 7 7 7 7 6 5 4 4 3 2 3 3 3 4 5 5 5 4 4 4 5 6 8 9 10 12
17 17 16 15 15 15 14 14 12 11 12 12 10 8 7 8 9 9 8 7 6 5 4 3 3 2 2 2 3 4 5 5 4 3 3 3 5 6 8 10 11 12
18 17 16 16 16 16 15 14 13 13 13 12 9 8 8 9 10 9 8 7 6 6 5 3 3 2 2 2 2 3 4 5 3 2 3 4 5 6 9 11 12 13
18 17 17 16 16 16 15 14 14 14 14 12 10 9 9 10 10 10 9 8 7 6 5 4 3 3 2 2 2 3 3 4 3 3 3 4 5 7 9 11 12 13
18 17 17 16 16 15 15 15 16 16 14 12 10 10 10 10 10 10 9 8 7 6 6 5 4 3 2 2 2 2 3 3 4 3 4 4 5 7 9 11 12 13
19 17 17 17 16 16 17 17 17 16 13 12 11 11 11 12 11 10 9 8 8 7 6 5 4 3 2 2 1 1 2 3 4 4 4 5 5 7 9 11 12 13
19 18 17 17 17 18 19 19 18 15 13 12 12 12 12 12 11 11 10 8 8 7 7 6 4 3 3 2 2 1 2 3 4 4 5 5 6 7 9 10 11 12
19 19 19 19 19 20 20 19 17 15 13 12 12 13 14 13 12 11 10 9 8 7 7 6 5 4 3 3 2 2 2 3 3 3 4 5 6 7 8 8 9 11
20 20 20 20 21 21 20 19 16 14 14 13 13 13 13 13 12 11 11 10 9 8 7 6 5 5 4 4 3 3 2 2 2 2 3 4 5 6 7 7 8 10
22 21 21 21 22 22 20 18 16 15 14 14 14 13 13 12 12 12 11 11 10 9 7 7 6 6 5 5 4 3 3 2 2 2 2 3 4 5 6 7 8 9
23 22 22 23 23 22 20 18 16 15 14 14 14 13 13 12 12 12 12 11 10 9 8 7 7 7 6 6 5 4 3 3 2 2 1 2 3 4 5 6 7 8
24 23 23 24 24 23 21 19 17 15 14 13 13 13 12 12 12 12 12 11 11 10 9 8 8 8 7 6 5 4 3 3 2 2 1 1 2 3 5 6 7 8
25 24 25 26 25 24 22 19 17 15 14 13 14 13 13 13 13 13 12 11 11 11 10 9 9 8 8 6 5 4 3 3 3 2 1 0 1 3 4 6 7 7
26 25 25 27 26 25 22 19 17 16 15 14 14 14 14 14 13 13 13 12 12 12 11 10 9 9 8 7 6 5 4 3 3 2 2 1 1 2 4 5 6 7
26 25 26 27 27 25 22 19 17 16 15 13 13 13 13 14 14 14 14 14 13 13 12 11 10 9 9 8 6 5 4 4 3 3 2 2 1 2 3 4 5 6
23 23 24 26 26 24 21 19 17 16 15 13 13 13 14 14 15 15 15 15 15 14 13 12 11 10 9 8 7 7 5 5 4 3 3 2 2 2 2 3 4 6
21 21 21 24 25 23 21 20 17 16 15 15 14 15 15 15 15 16 16 16 17 16 15 14 12 11 10 9 9 8 6 5 5 4 3 2 1 1 1 2 4 5

ECMWFNIL_850_spd_117.txt.gz
Wind_Speed
13 12 10 9 8 6 5 4 5 5 5 4 1 2 4 5 5 5 5 5 5 6 7 8 8 8 9 10 11 10 10 10 10 11 11 11 12 12 13 14 14 15
14 13 11 9 8 7 6 5 5 4 4 2 1 2 5 5 5 5 5 5 5 6 7 7 8 9 9 11 11 10 10 9 10 11 10 11 12 12 13 14 14 15
14 13 11 10 9 9 7 6 5 4 2 1 1 3 6 6 5 5 5 5 5 6 7 7 8 9 10 11 10 9 9 9 10 11 10 10 12 12 12 13 13 14
15 14 12 11 10 10 8 6 5 4 2 1 1 4 6 6 5 6 6 6 5 5 7 8 8 9 10 10 9 9 9 9 10 11 10 10 11 11 12 12 13 14
16 15 13 11 12 11 9 6 5 4 2 1 1 4 6 6 6 6 6 6 6 6 7 8 8 9 9 9 9 8 8 9 11 11 10 10 10 10 11 12 13 13
18 16 14 13 13 12 9 7 6 4 2 1 2 5 7 7 6 7 6 6 6 6 7 8 8 9 9 9 8 7 8 9 10 10 9 9 9 10 11 12 13 13
18 16 16 16 14 12 9 7 6 4 3 1 3 7 8 7 7 7 7 7 7 7 8 8 8 8 9 9 8 7 8 9 9 8 7 8 9 10 11 12 12 13
17 17 18 17 14 11 9 7 6 6 4 3 5 8 9 8 8 8 8 8 8 8 8 8 8 8 8 8 8 7 7 7 7 6 6 8 9 9 11 11 12 12
18 19 18 16 14 11 9 8 7 7 5 4 6 9 9 9 9 9 9 9 9 9 9 8 8 7 8 8 7 6 6 6 6 5 6 7 8 9 10 11 11 13
21 20 18 16 13 11 10 10 9 8 6 6 9 10 10 10 10 10 10 10 10 9 8 8 8 7 7 7 7 6 5 5 5 5 6 6 7 8 9 11 12 13
22 20 18 16 13 11 11 11 10 8 7 8 11 11 11 11 11 11 11 11 10 9 8 8 8 7 7 7 6 6 5 4 4 4 5 5 6 8 9 11 13 14
21 19 17 15 13 12 12 11 10 8 8 11 13 12 11 11 11 12 12 12 11 10 9 8 8 7 7 6 6 5 5 4 4 4 4 5 6 8 10 12 13 14
19 18 16 15 14 13 12 12 10 9 11 14 14 13 12 11 12 13 13 13 12 11 10 9 8 7 7 7 6 5 5 4 4 4 4 5 7 9 10 11 13 14
18 17 16 15 14 13 13 12 11 12 14 16 15 13 12 12 12 13 13 13 13 12 11 9 8 7 7 7 7 6 6 5 4 4 5 6 7 9 10 11 12 13
19 19 17 16 15 14 14 13 13 15 17 17 15 14 14 14 14 14 13 14 13 12 11 10 9 8 7 7 7 7 6 6 5 5 5 6 7 8 9 10 11 12
20 20 18 17 16 15 15 15 16 18 19 17 16 15 15 16 16 14 14 14 13 13 12 10 9 9 8 8 7 7 7 6 6 6 6 6 7 7 8 9 10 11
22 21 19 18 17 16 16 18 19 20 19 18 17 16 16 17 16 15 15 15 14 13 12 11 10 9 9 8 8 8 7 7 6 6 6 6 7 7 7 8 9 10
23 21 20 19 18 18 19 21 22 21 20 19 18 17 17 17 17 16 16 16 15 14 13 12 11 10 10 9 8 8 8 7 7 6 6 6 6 6 6 7 8 8
23 22 21 20 19 19 21 22 23 22 20 19 18 18 18 18 18 18 17 17 16 15 14 13 12 11 10 9 9 8 9 8 7 6 6 5 5 5 5 6 6 7
24 23 22 21 20 21 22 24 23 22 21 19 18 18 19 19 19 19 18 18 17 16 15 14 13 12 11 10 10 9 9 9 8 7 6 5 4 4 4 4 5 6
26 25 24 23 21 22 24 25 24 22 21 20 19 19 19 20 19 19 19 18 17 16 16 15 13 13 12 11 10 10 10 9 8 7 6 5 4 3 3 3 4 5
28 27 25 24 22 23 25 25 24 23 21 20 20 20 20 20 20 19 19 18 18 17 16 15 14 13 12 12 11 11 11 10 9 8 7 5 4 3 3 2 2 4
28 25 22 21 21 23 26 26 24 23 21 20 21 21 22 22 21 20 20 19 18 18 17 16 15 14 13 12 12 12 11 11 10 9 8 6 5 3 2 2 1 3
27 21 19 20 21 23 25 25 24 23 21 20 21 22 22 22 21 21 20 19 18 18 17 17 16 15 14 14 13 13 12 11 11 10 9 7 5 4 3 1 1 2
25 19 19 20 21 22 24 24 23 22 20 19 20 21 21 21 21 22 21 20 20 18 18 18 16 15 15 14 14 13 12 12 11 10 9 8 6 5 3 2 1 2
23 19 19 20 20 22 24 23 22 21 20 20 20 21 21 21 22 23 22 22 21 21 20 19 18 16 16 15 14 14 13 12 12 11 10 8 7 5 4 2 1 2

ECMWFNIL_850_spd_120.txt.gz
Wind_Speed
21 18 17 14 12 11 10 9 7 5 4 3 3 7 10 11 11 12 11 11 12 12 13 14 14 15 15 14 13 13 13 12 13 12 12 12 12 12 13 14 14 14
20 19 17 15 13 11 11 10 6 5 4 4 6 9 12 12 12 12 12 12 12 13 14 15 15 15 15 14 13 13 13 12 13 12 12 12 12 13 14 14 14 14
21 20 17 15 14 12 11 10 6 5 6 6 7 10 12 12 12 12 12 12 13 14 15 16 16 15 14 14 13 13 13 13 13 12 11 12 12 13 14 14 14 14
22 20 18 17 15 13 11 9 6 6 7 7 8 10 12 12 12 12 13 13 14 15 16 16 16 15 15 14 13 13 13 13 12 11 11 12 12 13 14 14 13 13
22 20 19 17 15 14 12 9 7 7 8 7 8 11 13 13 13 13 14 14 14 15 16 16 15 15 15 14 13 13 12 12 12 11 11 12 12 13 14 13 13 13
22 21 19 17 15 14 14 9 8 9 9 8 9 12 14 14 14 14 14 15 15 15 16 16 16 15 15 14 13 13 12 12 12 11 11 12 12 12 13 13 13 13
23 22 21 18 15 15 14 10 9 11 10 9 11 14 15 15 15 14 14 15 15 15 16 16 15 15 14 14 13 13 12 12 12 11 11 12 12 12 12 13 13 12
22 22 21 18 16 17 14 10 10 12 11 10 11 15 16 15 15 15 15 15 15 16 16 16 15 14 14 14 13 12 12 12 11 11 10 11 12 12 12 12 12 12
23 23 21 18 18 18 15 11 12 13 11 10 12 16 17 16 16 16 16 16 16 17 17 16 15 14 14 14 13 12 11 11 11 10 10 11 12 12 12 12 12 12
25 24 20 19 20 19 14 12 13 13 11 10 13 17 17 17 17 16 16 17 17 17 17 16 15 14 14 14 13 12 11 10 10 10 10 11 11 12 13 12 12 13
26 23 20 20 22 19 15 13 14 14 12 12 15 18 18 18 18 17 18 18 18 17 17 16 15 14 14 14 13 12 11 9 9 10 11 11 11 12 12 13 13 13
26 23 22 23 22 19 16 14 15 14 13 13 17 19 18 18 19 19 19 19 18 17 16 16 15 14 14 14 13 12 11 10 10 10 11 12 12 12 12 13 13 12
25 24 24 24 21 18 16 16 16 15 13 15 19 20 19 18 19 20 20 19 18 17 17 16 16 15 15 14 13 12 11 10 10 11 12 12 12 12 12 13 13 12
25 25 25 24 21 18 17 17 17 16 15 17 21 21 19 19 20 21 21 20 19 19 17 17 16 16 15 14 13 12 11 11 11 12 12 12 12 12 13 13 12 11
26 26 26 23 21 19 19 19 18 18 17 20 22 22 20 20 21 22 22 21 21 20 18 17 17 16 16 15 14 13 12 11 12 12 12 12 12 12 12 13 12 10
28 27 26 23 21 20 21 21 20 19 19 22 23 22 21 22 22 22 22 22 21 20 19 18 18 17 17 16 15 14 13 12 12 13 12 12 12 12 12 12 11 9
29 27 25 22 21 22 22 22 21 20 21 23 24 23 22 23 24 23 23 22 21 20 20 19 18 18 17 16 16 15 14 13 13 13 12 12 11 11 10 10 9 8
28 26 24 22 22 23 24 23 22 21 22 25 25 23 23 24 24 24 23 22 22 21 20 19 19 18 17 16 16 15 15 15 13 13 13 12 11 10 9 8 8 7
26 25 24 23 25 26 26 25 23 22 24 26 25 23 23 24 25 24 24 23 22 21 20 20 19 18 17 17 16 15 16 15 13 12 13 11 10 11 9 8 8 6
26 27 27 27 30 29 26 22 21 22 24 25 24 23 23 24 25 25 24 23 23 22 21 20 19 18 18 17 17 16 16 15 13 13 13 11 10 11 11 10 9 7
28 29 29 30 30 25 19 17 19 22 24 24 25 23 23 24 24 24 24 23 23 23 22 21 20 19 18 18 17 17 16 16 15 14 13 11 10 11 11 9 9 8
28 28 27 28 24 17 15 18 22 25 26 25 25 23 22 24 24 24 24 24 24 23 22 22 20 19 19 18 17 17 17 16 15 14 13 12 11 11 10 10 9 8
28 26 26 25 19 14 16 19 21 24 27 26 24 23 23 24 24 25 24 23 24 24 23 22 21 20 19 19 18 18 17 16 14 13 13 12 12 11 10 9 9 8
28 26 25 23 19 16 19 20 20 24 28 26 23 22 22 23 24 24 23 24 24 24 24 23 22 21 20 19 19 19 18 17 14 13 13 13 12 11 10 9 9 8
27 27 25 22 19 18 19 21 21 24 27 25 22 22 21 22 23 23 23 24 25 24 25 24 22 21 20 20 20 19 19 18 15 13 14 14 13 11 11 10 8 7
27 28 26 24 21 19 19 20 20 24 28 27 23 22 22 23 23 23 24 25 25 25 25 24 23 22 21 20 20 20 20 20 17 14 15 15 14 12 11 10 9 7